<?xml version="1.0" encoding="UTF-8" standalone="no" ?>
<gpx xmlns="http://www.topografix.com/GPX/1/1" xmlns:xsi="http://www.w3.org/2001/XMLSchema-instance" xsi:schemaLocation="http://www.topografix.com/GPX/1/1 http://www.topografix.com/GPX/1/1/gpx.xsd" version="1.1" creator="VisuGPX - https://www.visugpx.com">
  <metadata>
    <name>J2 grand</name>
  </metadata>
  <trk>
    <name><![CDATA[beaulieu-sous- la- roche  88KM 25-19993249]]></name>
    <extensions>
      <line xmlns="http://www.topografix.com/GPX/gpx_style/0/2">
        <color>0000FF</color>
        <width>4</width>
      </line>
    </extensions>
    <trkseg>
      <trkpt lat="46.75836" lon="-1.78655">
        <ele>38</ele>
        <time>2024-12-16T18:33:00Z</time>
      </trkpt>
      <trkpt lat="46.75809" lon="-1.7868">
        <ele>36</ele>
        <time>2024-12-16T18:33:06Z</time>
      </trkpt>
      <trkpt lat="46.75605" lon="-1.78836">
        <ele>22</ele>
        <time>2024-12-16T18:33:47Z</time>
      </trkpt>
      <trkpt lat="46.75574" lon="-1.78865">
        <ele>21</ele>
        <time>2024-12-16T18:33:53Z</time>
      </trkpt>
      <trkpt lat="46.75521" lon="-1.78946">
        <ele>18</ele>
        <time>2024-12-16T18:34:07Z</time>
      </trkpt>
      <trkpt lat="46.75489" lon="-1.79002">
        <ele>18</ele>
        <time>2024-12-16T18:34:16Z</time>
      </trkpt>
      <trkpt lat="46.75457" lon="-1.79039">
        <ele>16</ele>
        <time>2024-12-16T18:34:23Z</time>
      </trkpt>
      <trkpt lat="46.75386" lon="-1.79145">
        <ele>15</ele>
        <time>2024-12-16T18:34:41Z</time>
      </trkpt>
      <trkpt lat="46.75368" lon="-1.79167">
        <ele>15</ele>
        <time>2024-12-16T18:34:45Z</time>
      </trkpt>
      <trkpt lat="46.75364" lon="-1.79169">
        <ele>15</ele>
        <time>2024-12-16T18:34:46Z</time>
      </trkpt>
      <trkpt lat="46.75363" lon="-1.79185">
        <ele>15</ele>
        <time>2024-12-16T18:34:48Z</time>
      </trkpt>
      <trkpt lat="46.75341" lon="-1.79261">
        <ele>12</ele>
        <time>2024-12-16T18:34:58Z</time>
      </trkpt>
      <trkpt lat="46.75333" lon="-1.79277">
        <ele>11</ele>
        <time>2024-12-16T18:35:00Z</time>
      </trkpt>
      <trkpt lat="46.75309" lon="-1.7931">
        <ele>11</ele>
        <time>2024-12-16T18:35:06Z</time>
      </trkpt>
      <trkpt lat="46.75292" lon="-1.79342">
        <ele>12</ele>
        <time>2024-12-16T18:35:11Z</time>
      </trkpt>
      <trkpt lat="46.7528" lon="-1.79372">
        <ele>12</ele>
        <time>2024-12-16T18:35:15Z</time>
      </trkpt>
      <trkpt lat="46.75269" lon="-1.79406">
        <ele>12</ele>
        <time>2024-12-16T18:35:20Z</time>
      </trkpt>
      <trkpt lat="46.7526" lon="-1.79448">
        <ele>13</ele>
        <time>2024-12-16T18:35:25Z</time>
      </trkpt>
      <trkpt lat="46.75253" lon="-1.79526">
        <ele>14</ele>
        <time>2024-12-16T18:35:35Z</time>
      </trkpt>
      <trkpt lat="46.75248" lon="-1.79563">
        <ele>14</ele>
        <time>2024-12-16T18:35:40Z</time>
      </trkpt>
      <trkpt lat="46.75237" lon="-1.79611">
        <ele>16</ele>
        <time>2024-12-16T18:35:46Z</time>
      </trkpt>
      <trkpt lat="46.75221" lon="-1.7966">
        <ele>17</ele>
        <time>2024-12-16T18:35:52Z</time>
      </trkpt>
      <trkpt lat="46.75184" lon="-1.79726">
        <ele>17</ele>
        <time>2024-12-16T18:36:03Z</time>
      </trkpt>
      <trkpt lat="46.75172" lon="-1.79759">
        <ele>17</ele>
        <time>2024-12-16T18:36:07Z</time>
      </trkpt>
      <trkpt lat="46.75158" lon="-1.79815">
        <ele>16</ele>
        <time>2024-12-16T18:36:15Z</time>
      </trkpt>
      <trkpt lat="46.75134" lon="-1.79893">
        <ele>15</ele>
        <time>2024-12-16T18:36:25Z</time>
      </trkpt>
      <trkpt lat="46.7512" lon="-1.79928">
        <ele>15</ele>
        <time>2024-12-16T18:36:30Z</time>
      </trkpt>
      <trkpt lat="46.7511" lon="-1.79943">
        <ele>14</ele>
        <time>2024-12-16T18:36:33Z</time>
      </trkpt>
      <trkpt lat="46.75101" lon="-1.79949">
        <ele>14</ele>
        <time>2024-12-16T18:36:34Z</time>
      </trkpt>
      <trkpt lat="46.75041" lon="-1.7998">
        <ele>14</ele>
        <time>2024-12-16T18:36:46Z</time>
      </trkpt>
      <trkpt lat="46.75017" lon="-1.79995">
        <ele>13</ele>
        <time>2024-12-16T18:36:50Z</time>
      </trkpt>
      <trkpt lat="46.75007" lon="-1.79962">
        <ele>12</ele>
        <time>2024-12-16T18:36:55Z</time>
      </trkpt>
      <trkpt lat="46.74998" lon="-1.79937">
        <ele>11</ele>
        <time>2024-12-16T18:36:58Z</time>
      </trkpt>
      <trkpt lat="46.74974" lon="-1.7989">
        <ele>9</ele>
        <time>2024-12-16T18:37:05Z</time>
      </trkpt>
      <trkpt lat="46.74876" lon="-1.79755">
        <ele>6</ele>
        <time>2024-12-16T18:37:29Z</time>
      </trkpt>
      <trkpt lat="46.74865" lon="-1.79744">
        <ele>6</ele>
        <time>2024-12-16T18:37:32Z</time>
      </trkpt>
      <trkpt lat="46.74839" lon="-1.79729">
        <ele>6</ele>
        <time>2024-12-16T18:37:37Z</time>
      </trkpt>
      <trkpt lat="46.74825" lon="-1.79724">
        <ele>7</ele>
        <time>2024-12-16T18:37:39Z</time>
      </trkpt>
      <trkpt lat="46.74774" lon="-1.79706">
        <ele>8</ele>
        <time>2024-12-16T18:37:48Z</time>
      </trkpt>
      <trkpt lat="46.74757" lon="-1.79696">
        <ele>9</ele>
        <time>2024-12-16T18:37:52Z</time>
      </trkpt>
      <trkpt lat="46.74688" lon="-1.79645">
        <ele>13</ele>
        <time>2024-12-16T18:38:06Z</time>
      </trkpt>
      <trkpt lat="46.74757" lon="-1.79696">
        <ele>9</ele>
        <time>2024-12-16T18:38:19Z</time>
      </trkpt>
      <trkpt lat="46.74753" lon="-1.79708">
        <ele>9</ele>
        <time>2024-12-16T18:38:21Z</time>
      </trkpt>
      <trkpt lat="46.74747" lon="-1.79782">
        <ele>8</ele>
        <time>2024-12-16T18:38:30Z</time>
      </trkpt>
      <trkpt lat="46.74737" lon="-1.79815">
        <ele>9</ele>
        <time>2024-12-16T18:38:34Z</time>
      </trkpt>
      <trkpt lat="46.7473" lon="-1.79828">
        <ele>10</ele>
        <time>2024-12-16T18:38:36Z</time>
      </trkpt>
      <trkpt lat="46.74707" lon="-1.79836">
        <ele>11</ele>
        <time>2024-12-16T18:38:41Z</time>
      </trkpt>
      <trkpt lat="46.74704" lon="-1.7984">
        <ele>11</ele>
        <time>2024-12-16T18:38:41Z</time>
      </trkpt>
      <trkpt lat="46.74703" lon="-1.79848">
        <ele>11</ele>
        <time>2024-12-16T18:38:42Z</time>
      </trkpt>
      <trkpt lat="46.74711" lon="-1.7988">
        <ele>12</ele>
        <time>2024-12-16T18:38:46Z</time>
      </trkpt>
      <trkpt lat="46.74717" lon="-1.79917">
        <ele>13</ele>
        <time>2024-12-16T18:38:51Z</time>
      </trkpt>
      <trkpt lat="46.74718" lon="-1.7993">
        <ele>13</ele>
        <time>2024-12-16T18:38:53Z</time>
      </trkpt>
      <trkpt lat="46.74717" lon="-1.79937">
        <ele>13</ele>
        <time>2024-12-16T18:38:54Z</time>
      </trkpt>
      <trkpt lat="46.74716" lon="-1.79939">
        <ele>13</ele>
        <time>2024-12-16T18:38:54Z</time>
      </trkpt>
      <trkpt lat="46.74713" lon="-1.79942">
        <ele>13</ele>
        <time>2024-12-16T18:38:55Z</time>
      </trkpt>
      <trkpt lat="46.74691" lon="-1.7995">
        <ele>14</ele>
        <time>2024-12-16T18:38:59Z</time>
      </trkpt>
      <trkpt lat="46.74686" lon="-1.79959">
        <ele>14</ele>
        <time>2024-12-16T18:39:00Z</time>
      </trkpt>
      <trkpt lat="46.74682" lon="-1.80067">
        <ele>14</ele>
        <time>2024-12-16T18:39:13Z</time>
      </trkpt>
      <trkpt lat="46.74687" lon="-1.80106">
        <ele>14</ele>
        <time>2024-12-16T18:39:18Z</time>
      </trkpt>
      <trkpt lat="46.74675" lon="-1.80116">
        <ele>15</ele>
        <time>2024-12-16T18:39:20Z</time>
      </trkpt>
      <trkpt lat="46.74607" lon="-1.80152">
        <ele>17</ele>
        <time>2024-12-16T18:39:33Z</time>
      </trkpt>
      <trkpt lat="46.74596" lon="-1.80153">
        <ele>17</ele>
        <time>2024-12-16T18:39:35Z</time>
      </trkpt>
      <trkpt lat="46.74589" lon="-1.80179">
        <ele>17</ele>
        <time>2024-12-16T18:39:39Z</time>
      </trkpt>
      <trkpt lat="46.74581" lon="-1.80201">
        <ele>17</ele>
        <time>2024-12-16T18:39:42Z</time>
      </trkpt>
      <trkpt lat="46.74572" lon="-1.80224">
        <ele>18</ele>
        <time>2024-12-16T18:39:45Z</time>
      </trkpt>
      <trkpt lat="46.7456" lon="-1.80249">
        <ele>18</ele>
        <time>2024-12-16T18:39:49Z</time>
      </trkpt>
      <trkpt lat="46.7454" lon="-1.80277">
        <ele>18</ele>
        <time>2024-12-16T18:39:54Z</time>
      </trkpt>
      <trkpt lat="46.74466" lon="-1.80385">
        <ele>19</ele>
        <time>2024-12-16T18:40:12Z</time>
      </trkpt>
      <trkpt lat="46.74446" lon="-1.80414">
        <ele>20</ele>
        <time>2024-12-16T18:40:17Z</time>
      </trkpt>
      <trkpt lat="46.74399" lon="-1.80482">
        <ele>20</ele>
        <time>2024-12-16T18:40:29Z</time>
      </trkpt>
      <trkpt lat="46.74371" lon="-1.80521">
        <ele>20</ele>
        <time>2024-12-16T18:40:36Z</time>
      </trkpt>
      <trkpt lat="46.74228" lon="-1.80735">
        <ele>19</ele>
        <time>2024-12-16T18:41:12Z</time>
      </trkpt>
      <trkpt lat="46.74212" lon="-1.80763">
        <ele>19</ele>
        <time>2024-12-16T18:41:17Z</time>
      </trkpt>
      <trkpt lat="46.74198" lon="-1.80799">
        <ele>20</ele>
        <time>2024-12-16T18:41:22Z</time>
      </trkpt>
      <trkpt lat="46.74187" lon="-1.8084">
        <ele>21</ele>
        <time>2024-12-16T18:41:27Z</time>
      </trkpt>
      <trkpt lat="46.74169" lon="-1.80914">
        <ele>21</ele>
        <time>2024-12-16T18:41:37Z</time>
      </trkpt>
      <trkpt lat="46.74111" lon="-1.8116">
        <ele>22</ele>
        <time>2024-12-16T18:42:09Z</time>
      </trkpt>
      <trkpt lat="46.74082" lon="-1.81281">
        <ele>23</ele>
        <time>2024-12-16T18:42:24Z</time>
      </trkpt>
      <trkpt lat="46.74075" lon="-1.81311">
        <ele>23</ele>
        <time>2024-12-16T18:42:28Z</time>
      </trkpt>
      <trkpt lat="46.74071" lon="-1.81332">
        <ele>23</ele>
        <time>2024-12-16T18:42:31Z</time>
      </trkpt>
      <trkpt lat="46.74067" lon="-1.81367">
        <ele>23</ele>
        <time>2024-12-16T18:42:35Z</time>
      </trkpt>
      <trkpt lat="46.74067" lon="-1.81408">
        <ele>22</ele>
        <time>2024-12-16T18:42:40Z</time>
      </trkpt>
      <trkpt lat="46.74077" lon="-1.81704">
        <ele>20</ele>
        <time>2024-12-16T18:43:16Z</time>
      </trkpt>
      <trkpt lat="46.74084" lon="-1.8188">
        <ele>17</ele>
        <time>2024-12-16T18:43:38Z</time>
      </trkpt>
      <trkpt lat="46.74086" lon="-1.81897">
        <ele>16</ele>
        <time>2024-12-16T18:43:40Z</time>
      </trkpt>
      <trkpt lat="46.74098" lon="-1.81959">
        <ele>16</ele>
        <time>2024-12-16T18:43:48Z</time>
      </trkpt>
      <trkpt lat="46.74107" lon="-1.82009">
        <ele>16</ele>
        <time>2024-12-16T18:43:54Z</time>
      </trkpt>
      <trkpt lat="46.74113" lon="-1.82052">
        <ele>16</ele>
        <time>2024-12-16T18:43:59Z</time>
      </trkpt>
      <trkpt lat="46.74113" lon="-1.82073">
        <ele>16</ele>
        <time>2024-12-16T18:44:02Z</time>
      </trkpt>
      <trkpt lat="46.74109" lon="-1.82101">
        <ele>16</ele>
        <time>2024-12-16T18:44:05Z</time>
      </trkpt>
      <trkpt lat="46.74096" lon="-1.82109">
        <ele>17</ele>
        <time>2024-12-16T18:44:08Z</time>
      </trkpt>
      <trkpt lat="46.74075" lon="-1.82118">
        <ele>17</ele>
        <time>2024-12-16T18:44:12Z</time>
      </trkpt>
      <trkpt lat="46.74069" lon="-1.82121">
        <ele>17</ele>
        <time>2024-12-16T18:44:13Z</time>
      </trkpt>
      <trkpt lat="46.74066" lon="-1.82124">
        <ele>17</ele>
        <time>2024-12-16T18:44:13Z</time>
      </trkpt>
      <trkpt lat="46.74032" lon="-1.82145">
        <ele>17</ele>
        <time>2024-12-16T18:44:20Z</time>
      </trkpt>
      <trkpt lat="46.74008" lon="-1.82161">
        <ele>17</ele>
        <time>2024-12-16T18:44:25Z</time>
      </trkpt>
      <trkpt lat="46.73996" lon="-1.82208">
        <ele>16</ele>
        <time>2024-12-16T18:44:31Z</time>
      </trkpt>
      <trkpt lat="46.73982" lon="-1.82262">
        <ele>16</ele>
        <time>2024-12-16T18:44:38Z</time>
      </trkpt>
      <trkpt lat="46.73979" lon="-1.82273">
        <ele>15</ele>
        <time>2024-12-16T18:44:39Z</time>
      </trkpt>
      <trkpt lat="46.7397" lon="-1.82304">
        <ele>15</ele>
        <time>2024-12-16T18:44:43Z</time>
      </trkpt>
      <trkpt lat="46.73961" lon="-1.82327">
        <ele>14</ele>
        <time>2024-12-16T18:44:47Z</time>
      </trkpt>
      <trkpt lat="46.7396" lon="-1.82339">
        <ele>14</ele>
        <time>2024-12-16T18:44:48Z</time>
      </trkpt>
      <trkpt lat="46.73957" lon="-1.82359">
        <ele>14</ele>
        <time>2024-12-16T18:44:51Z</time>
      </trkpt>
      <trkpt lat="46.73954" lon="-1.82372">
        <ele>13</ele>
        <time>2024-12-16T18:44:52Z</time>
      </trkpt>
      <trkpt lat="46.7394" lon="-1.82428">
        <ele>12</ele>
        <time>2024-12-16T18:45:00Z</time>
      </trkpt>
      <trkpt lat="46.73933" lon="-1.82454">
        <ele>12</ele>
        <time>2024-12-16T18:45:03Z</time>
      </trkpt>
      <trkpt lat="46.73918" lon="-1.82513">
        <ele>10</ele>
        <time>2024-12-16T18:45:11Z</time>
      </trkpt>
      <trkpt lat="46.73847" lon="-1.82784">
        <ele>14</ele>
        <time>2024-12-16T18:45:46Z</time>
      </trkpt>
      <trkpt lat="46.73844" lon="-1.82795">
        <ele>15</ele>
        <time>2024-12-16T18:45:47Z</time>
      </trkpt>
      <trkpt lat="46.73843" lon="-1.82797">
        <ele>15</ele>
        <time>2024-12-16T18:45:48Z</time>
      </trkpt>
      <trkpt lat="46.73821" lon="-1.82878">
        <ele>17</ele>
        <time>2024-12-16T18:45:58Z</time>
      </trkpt>
      <trkpt lat="46.7381" lon="-1.82904">
        <ele>17</ele>
        <time>2024-12-16T18:46:02Z</time>
      </trkpt>
      <trkpt lat="46.73787" lon="-1.82937">
        <ele>18</ele>
        <time>2024-12-16T18:46:08Z</time>
      </trkpt>
      <trkpt lat="46.7377" lon="-1.82955">
        <ele>18</ele>
        <time>2024-12-16T18:46:12Z</time>
      </trkpt>
      <trkpt lat="46.73741" lon="-1.82978">
        <ele>19</ele>
        <time>2024-12-16T18:46:17Z</time>
      </trkpt>
      <trkpt lat="46.73712" lon="-1.82999">
        <ele>20</ele>
        <time>2024-12-16T18:46:23Z</time>
      </trkpt>
      <trkpt lat="46.73646" lon="-1.83049">
        <ele>21</ele>
        <time>2024-12-16T18:46:36Z</time>
      </trkpt>
      <trkpt lat="46.73628" lon="-1.83066">
        <ele>21</ele>
        <time>2024-12-16T18:46:40Z</time>
      </trkpt>
      <trkpt lat="46.73612" lon="-1.8309">
        <ele>20</ele>
        <time>2024-12-16T18:46:44Z</time>
      </trkpt>
      <trkpt lat="46.73603" lon="-1.83109">
        <ele>20</ele>
        <time>2024-12-16T18:46:47Z</time>
      </trkpt>
      <trkpt lat="46.7359" lon="-1.83149">
        <ele>20</ele>
        <time>2024-12-16T18:46:53Z</time>
      </trkpt>
      <trkpt lat="46.73575" lon="-1.83214">
        <ele>21</ele>
        <time>2024-12-16T18:47:01Z</time>
      </trkpt>
      <trkpt lat="46.73571" lon="-1.83233">
        <ele>21</ele>
        <time>2024-12-16T18:47:03Z</time>
      </trkpt>
      <trkpt lat="46.73555" lon="-1.83293">
        <ele>21</ele>
        <time>2024-12-16T18:47:11Z</time>
      </trkpt>
      <trkpt lat="46.73543" lon="-1.83323">
        <ele>21</ele>
        <time>2024-12-16T18:47:15Z</time>
      </trkpt>
      <trkpt lat="46.73539" lon="-1.83331">
        <ele>21</ele>
        <time>2024-12-16T18:47:17Z</time>
      </trkpt>
      <trkpt lat="46.73529" lon="-1.83347">
        <ele>21</ele>
        <time>2024-12-16T18:47:19Z</time>
      </trkpt>
      <trkpt lat="46.73431" lon="-1.83473">
        <ele>22</ele>
        <time>2024-12-16T18:47:43Z</time>
      </trkpt>
      <trkpt lat="46.73419" lon="-1.83492">
        <ele>22</ele>
        <time>2024-12-16T18:47:46Z</time>
      </trkpt>
      <trkpt lat="46.73408" lon="-1.83518">
        <ele>22</ele>
        <time>2024-12-16T18:47:49Z</time>
      </trkpt>
      <trkpt lat="46.73395" lon="-1.83563">
        <ele>21</ele>
        <time>2024-12-16T18:47:55Z</time>
      </trkpt>
      <trkpt lat="46.7339" lon="-1.83597">
        <ele>21</ele>
        <time>2024-12-16T18:48:00Z</time>
      </trkpt>
      <trkpt lat="46.73373" lon="-1.83729">
        <ele>20</ele>
        <time>2024-12-16T18:48:16Z</time>
      </trkpt>
      <trkpt lat="46.7336" lon="-1.83841">
        <ele>20</ele>
        <time>2024-12-16T18:48:30Z</time>
      </trkpt>
      <trkpt lat="46.73358" lon="-1.83871">
        <ele>20</ele>
        <time>2024-12-16T18:48:34Z</time>
      </trkpt>
      <trkpt lat="46.73359" lon="-1.84071">
        <ele>21</ele>
        <time>2024-12-16T18:48:58Z</time>
      </trkpt>
      <trkpt lat="46.7336" lon="-1.84129">
        <ele>21</ele>
        <time>2024-12-16T18:49:05Z</time>
      </trkpt>
      <trkpt lat="46.73362" lon="-1.84254">
        <ele>21</ele>
        <time>2024-12-16T18:49:20Z</time>
      </trkpt>
      <trkpt lat="46.73361" lon="-1.84312">
        <ele>20</ele>
        <time>2024-12-16T18:49:27Z</time>
      </trkpt>
      <trkpt lat="46.73357" lon="-1.84347">
        <ele>20</ele>
        <time>2024-12-16T18:49:32Z</time>
      </trkpt>
      <trkpt lat="46.73345" lon="-1.84427">
        <ele>19</ele>
        <time>2024-12-16T18:49:42Z</time>
      </trkpt>
      <trkpt lat="46.73343" lon="-1.84437">
        <ele>19</ele>
        <time>2024-12-16T18:49:43Z</time>
      </trkpt>
      <trkpt lat="46.73297" lon="-1.84688">
        <ele>20</ele>
        <time>2024-12-16T18:50:15Z</time>
      </trkpt>
      <trkpt lat="46.73283" lon="-1.84733">
        <ele>19</ele>
        <time>2024-12-16T18:50:21Z</time>
      </trkpt>
      <trkpt lat="46.7315" lon="-1.85114">
        <ele>18</ele>
        <time>2024-12-16T18:51:13Z</time>
      </trkpt>
      <trkpt lat="46.73068" lon="-1.85349">
        <ele>11</ele>
        <time>2024-12-16T18:51:45Z</time>
      </trkpt>
      <trkpt lat="46.7306" lon="-1.85377">
        <ele>11</ele>
        <time>2024-12-16T18:51:49Z</time>
      </trkpt>
      <trkpt lat="46.73053" lon="-1.85408">
        <ele>11</ele>
        <time>2024-12-16T18:51:53Z</time>
      </trkpt>
      <trkpt lat="46.7305" lon="-1.85435">
        <ele>11</ele>
        <time>2024-12-16T18:51:56Z</time>
      </trkpt>
      <trkpt lat="46.73048" lon="-1.85465">
        <ele>12</ele>
        <time>2024-12-16T18:52:00Z</time>
      </trkpt>
      <trkpt lat="46.73049" lon="-1.85493">
        <ele>12</ele>
        <time>2024-12-16T18:52:03Z</time>
      </trkpt>
      <trkpt lat="46.73053" lon="-1.85531">
        <ele>12</ele>
        <time>2024-12-16T18:52:08Z</time>
      </trkpt>
      <trkpt lat="46.7306" lon="-1.85586">
        <ele>12</ele>
        <time>2024-12-16T18:52:15Z</time>
      </trkpt>
      <trkpt lat="46.7307" lon="-1.85664">
        <ele>12</ele>
        <time>2024-12-16T18:52:24Z</time>
      </trkpt>
      <trkpt lat="46.73085" lon="-1.85764">
        <ele>12</ele>
        <time>2024-12-16T18:52:37Z</time>
      </trkpt>
      <trkpt lat="46.73093" lon="-1.85807">
        <ele>11</ele>
        <time>2024-12-16T18:52:42Z</time>
      </trkpt>
      <trkpt lat="46.73127" lon="-1.8595">
        <ele>10</ele>
        <time>2024-12-16T18:53:01Z</time>
      </trkpt>
      <trkpt lat="46.73133" lon="-1.85979">
        <ele>11</ele>
        <time>2024-12-16T18:53:04Z</time>
      </trkpt>
      <trkpt lat="46.73137" lon="-1.86008">
        <ele>11</ele>
        <time>2024-12-16T18:53:08Z</time>
      </trkpt>
      <trkpt lat="46.7314" lon="-1.86064">
        <ele>11</ele>
        <time>2024-12-16T18:53:15Z</time>
      </trkpt>
      <trkpt lat="46.73133" lon="-1.86308">
        <ele>10</ele>
        <time>2024-12-16T18:53:45Z</time>
      </trkpt>
      <trkpt lat="46.7313" lon="-1.86469">
        <ele>10</ele>
        <time>2024-12-16T18:54:04Z</time>
      </trkpt>
      <trkpt lat="46.73131" lon="-1.86528">
        <ele>11</ele>
        <time>2024-12-16T18:54:11Z</time>
      </trkpt>
      <trkpt lat="46.73136" lon="-1.86569">
        <ele>11</ele>
        <time>2024-12-16T18:54:16Z</time>
      </trkpt>
      <trkpt lat="46.73159" lon="-1.86717">
        <ele>7</ele>
        <time>2024-12-16T18:54:35Z</time>
      </trkpt>
      <trkpt lat="46.73199" lon="-1.86973">
        <ele>9</ele>
        <time>2024-12-16T18:55:07Z</time>
      </trkpt>
      <trkpt lat="46.732" lon="-1.8699">
        <ele>10</ele>
        <time>2024-12-16T18:55:09Z</time>
      </trkpt>
      <trkpt lat="46.73205" lon="-1.87041">
        <ele>10</ele>
        <time>2024-12-16T18:55:15Z</time>
      </trkpt>
      <trkpt lat="46.73209" lon="-1.87094">
        <ele>11</ele>
        <time>2024-12-16T18:55:22Z</time>
      </trkpt>
      <trkpt lat="46.73212" lon="-1.87122">
        <ele>11</ele>
        <time>2024-12-16T18:55:25Z</time>
      </trkpt>
      <trkpt lat="46.73214" lon="-1.87155">
        <ele>11</ele>
        <time>2024-12-16T18:55:29Z</time>
      </trkpt>
      <trkpt lat="46.73217" lon="-1.87164">
        <ele>11</ele>
        <time>2024-12-16T18:55:31Z</time>
      </trkpt>
      <trkpt lat="46.73218" lon="-1.87172">
        <ele>11</ele>
        <time>2024-12-16T18:55:32Z</time>
      </trkpt>
      <trkpt lat="46.73216" lon="-1.87188">
        <ele>11</ele>
        <time>2024-12-16T18:55:34Z</time>
      </trkpt>
      <trkpt lat="46.73213" lon="-1.87196">
        <ele>11</ele>
        <time>2024-12-16T18:55:35Z</time>
      </trkpt>
      <trkpt lat="46.73208" lon="-1.87202">
        <ele>11</ele>
        <time>2024-12-16T18:55:36Z</time>
      </trkpt>
      <trkpt lat="46.73202" lon="-1.87205">
        <ele>11</ele>
        <time>2024-12-16T18:55:37Z</time>
      </trkpt>
      <trkpt lat="46.73196" lon="-1.87206">
        <ele>12</ele>
        <time>2024-12-16T18:55:38Z</time>
      </trkpt>
      <trkpt lat="46.73195" lon="-1.87208">
        <ele>12</ele>
        <time>2024-12-16T18:55:38Z</time>
      </trkpt>
      <trkpt lat="46.73177" lon="-1.87251">
        <ele>12</ele>
        <time>2024-12-16T18:55:44Z</time>
      </trkpt>
      <trkpt lat="46.73159" lon="-1.87308">
        <ele>12</ele>
        <time>2024-12-16T18:55:52Z</time>
      </trkpt>
      <trkpt lat="46.73067" lon="-1.87601">
        <ele>11</ele>
        <time>2024-12-16T18:56:31Z</time>
      </trkpt>
      <trkpt lat="46.73063" lon="-1.87613">
        <ele>11</ele>
        <time>2024-12-16T18:56:33Z</time>
      </trkpt>
      <trkpt lat="46.73034" lon="-1.87712">
        <ele>11</ele>
        <time>2024-12-16T18:56:46Z</time>
      </trkpt>
      <trkpt lat="46.72984" lon="-1.87862">
        <ele>11</ele>
        <time>2024-12-16T18:57:07Z</time>
      </trkpt>
      <trkpt lat="46.7297" lon="-1.87892">
        <ele>11</ele>
        <time>2024-12-16T18:57:11Z</time>
      </trkpt>
      <trkpt lat="46.72958" lon="-1.87915">
        <ele>12</ele>
        <time>2024-12-16T18:57:14Z</time>
      </trkpt>
      <trkpt lat="46.7294" lon="-1.87941">
        <ele>12</ele>
        <time>2024-12-16T18:57:19Z</time>
      </trkpt>
      <trkpt lat="46.72853" lon="-1.88061">
        <ele>12</ele>
        <time>2024-12-16T18:57:40Z</time>
      </trkpt>
      <trkpt lat="46.72845" lon="-1.88073">
        <ele>12</ele>
        <time>2024-12-16T18:57:42Z</time>
      </trkpt>
      <trkpt lat="46.72804" lon="-1.88129">
        <ele>11</ele>
        <time>2024-12-16T18:57:52Z</time>
      </trkpt>
      <trkpt lat="46.72776" lon="-1.88171">
        <ele>9</ele>
        <time>2024-12-16T18:57:59Z</time>
      </trkpt>
      <trkpt lat="46.72742" lon="-1.88235">
        <ele>8</ele>
        <time>2024-12-16T18:58:09Z</time>
      </trkpt>
      <trkpt lat="46.72731" lon="-1.88261">
        <ele>7</ele>
        <time>2024-12-16T18:58:13Z</time>
      </trkpt>
      <trkpt lat="46.72708" lon="-1.88325">
        <ele>5</ele>
        <time>2024-12-16T18:58:22Z</time>
      </trkpt>
      <trkpt lat="46.72689" lon="-1.884">
        <ele>5</ele>
        <time>2024-12-16T18:58:32Z</time>
      </trkpt>
      <trkpt lat="46.72681" lon="-1.88476">
        <ele>4</ele>
        <time>2024-12-16T18:58:41Z</time>
      </trkpt>
      <trkpt lat="46.72665" lon="-1.88651">
        <ele>6</ele>
        <time>2024-12-16T18:59:03Z</time>
      </trkpt>
      <trkpt lat="46.72649" lon="-1.88824">
        <ele>6</ele>
        <time>2024-12-16T18:59:24Z</time>
      </trkpt>
      <trkpt lat="46.72658" lon="-1.88826">
        <ele>6</ele>
        <time>2024-12-16T18:59:25Z</time>
      </trkpt>
      <trkpt lat="46.72619" lon="-1.89153">
        <ele>6</ele>
        <time>2024-12-16T19:00:06Z</time>
      </trkpt>
      <trkpt lat="46.72609" lon="-1.89218">
        <ele>5</ele>
        <time>2024-12-16T19:00:14Z</time>
      </trkpt>
      <trkpt lat="46.72588" lon="-1.89333">
        <ele>5</ele>
        <time>2024-12-16T19:00:29Z</time>
      </trkpt>
      <trkpt lat="46.7258" lon="-1.89368">
        <ele>5</ele>
        <time>2024-12-16T19:00:33Z</time>
      </trkpt>
      <trkpt lat="46.72564" lon="-1.89429">
        <ele>4</ele>
        <time>2024-12-16T19:00:41Z</time>
      </trkpt>
      <trkpt lat="46.72555" lon="-1.89422">
        <ele>4</ele>
        <time>2024-12-16T19:00:43Z</time>
      </trkpt>
      <trkpt lat="46.72536" lon="-1.89465">
        <ele>4</ele>
        <time>2024-12-16T19:00:49Z</time>
      </trkpt>
      <trkpt lat="46.72521" lon="-1.89491">
        <ele>4</ele>
        <time>2024-12-16T19:00:53Z</time>
      </trkpt>
      <trkpt lat="46.72503" lon="-1.89519">
        <ele>4</ele>
        <time>2024-12-16T19:00:58Z</time>
      </trkpt>
      <trkpt lat="46.72486" lon="-1.89538">
        <ele>4</ele>
        <time>2024-12-16T19:01:02Z</time>
      </trkpt>
      <trkpt lat="46.72487" lon="-1.89543">
        <ele>4</ele>
        <time>2024-12-16T19:01:02Z</time>
      </trkpt>
      <trkpt lat="46.72486" lon="-1.89549">
        <ele>4</ele>
        <time>2024-12-16T19:01:03Z</time>
      </trkpt>
      <trkpt lat="46.72483" lon="-1.89552">
        <ele>4</ele>
        <time>2024-12-16T19:01:04Z</time>
      </trkpt>
      <trkpt lat="46.72477" lon="-1.89551">
        <ele>4</ele>
        <time>2024-12-16T19:01:05Z</time>
      </trkpt>
      <trkpt lat="46.72458" lon="-1.89586">
        <ele>3</ele>
        <time>2024-12-16T19:01:10Z</time>
      </trkpt>
      <trkpt lat="46.72434" lon="-1.89618">
        <ele>3</ele>
        <time>2024-12-16T19:01:16Z</time>
      </trkpt>
      <trkpt lat="46.72414" lon="-1.89639">
        <ele>3</ele>
        <time>2024-12-16T19:01:20Z</time>
      </trkpt>
      <trkpt lat="46.72368" lon="-1.89675">
        <ele>4</ele>
        <time>2024-12-16T19:01:30Z</time>
      </trkpt>
      <trkpt lat="46.72302" lon="-1.89729">
        <ele>5</ele>
        <time>2024-12-16T19:01:43Z</time>
      </trkpt>
      <trkpt lat="46.7225" lon="-1.89771">
        <ele>7</ele>
        <time>2024-12-16T19:01:54Z</time>
      </trkpt>
      <trkpt lat="46.72203" lon="-1.8981">
        <ele>8</ele>
        <time>2024-12-16T19:02:03Z</time>
      </trkpt>
      <trkpt lat="46.72178" lon="-1.89831">
        <ele>9</ele>
        <time>2024-12-16T19:02:09Z</time>
      </trkpt>
      <trkpt lat="46.72121" lon="-1.89877">
        <ele>8</ele>
        <time>2024-12-16T19:02:20Z</time>
      </trkpt>
      <trkpt lat="46.72076" lon="-1.89915">
        <ele>7</ele>
        <time>2024-12-16T19:02:29Z</time>
      </trkpt>
      <trkpt lat="46.72039" lon="-1.89945">
        <ele>7</ele>
        <time>2024-12-16T19:02:37Z</time>
      </trkpt>
      <trkpt lat="46.72029" lon="-1.89959">
        <ele>7</ele>
        <time>2024-12-16T19:02:39Z</time>
      </trkpt>
      <trkpt lat="46.72026" lon="-1.89956">
        <ele>7</ele>
        <time>2024-12-16T19:02:40Z</time>
      </trkpt>
      <trkpt lat="46.72001" lon="-1.89927">
        <ele>7</ele>
        <time>2024-12-16T19:02:46Z</time>
      </trkpt>
      <trkpt lat="46.71976" lon="-1.899">
        <ele>7</ele>
        <time>2024-12-16T19:02:51Z</time>
      </trkpt>
      <trkpt lat="46.71963" lon="-1.89882">
        <ele>7</ele>
        <time>2024-12-16T19:02:54Z</time>
      </trkpt>
      <trkpt lat="46.71952" lon="-1.8986">
        <ele>8</ele>
        <time>2024-12-16T19:02:58Z</time>
      </trkpt>
      <trkpt lat="46.71909" lon="-1.89732">
        <ele>10</ele>
        <time>2024-12-16T19:03:15Z</time>
      </trkpt>
      <trkpt lat="46.71903" lon="-1.89702">
        <ele>11</ele>
        <time>2024-12-16T19:03:19Z</time>
      </trkpt>
      <trkpt lat="46.71899" lon="-1.89662">
        <ele>11</ele>
        <time>2024-12-16T19:03:24Z</time>
      </trkpt>
      <trkpt lat="46.71888" lon="-1.89572">
        <ele>11</ele>
        <time>2024-12-16T19:03:35Z</time>
      </trkpt>
      <trkpt lat="46.71877" lon="-1.89507">
        <ele>12</ele>
        <time>2024-12-16T19:03:43Z</time>
      </trkpt>
      <trkpt lat="46.71864" lon="-1.89458">
        <ele>13</ele>
        <time>2024-12-16T19:03:50Z</time>
      </trkpt>
      <trkpt lat="46.71859" lon="-1.89441">
        <ele>14</ele>
        <time>2024-12-16T19:03:52Z</time>
      </trkpt>
      <trkpt lat="46.71851" lon="-1.89413">
        <ele>15</ele>
        <time>2024-12-16T19:03:56Z</time>
      </trkpt>
      <trkpt lat="46.71849" lon="-1.89397">
        <ele>14</ele>
        <time>2024-12-16T19:03:58Z</time>
      </trkpt>
      <trkpt lat="46.71848" lon="-1.8939">
        <ele>14</ele>
        <time>2024-12-16T19:03:58Z</time>
      </trkpt>
      <trkpt lat="46.71772" lon="-1.89395">
        <ele>16</ele>
        <time>2024-12-16T19:04:12Z</time>
      </trkpt>
      <trkpt lat="46.71694" lon="-1.89398">
        <ele>16</ele>
        <time>2024-12-16T19:04:26Z</time>
      </trkpt>
      <trkpt lat="46.71686" lon="-1.89398">
        <ele>16</ele>
        <time>2024-12-16T19:04:27Z</time>
      </trkpt>
      <trkpt lat="46.71669" lon="-1.894">
        <ele>16</ele>
        <time>2024-12-16T19:04:30Z</time>
      </trkpt>
      <trkpt lat="46.71627" lon="-1.89413">
        <ele>16</ele>
        <time>2024-12-16T19:04:38Z</time>
      </trkpt>
      <trkpt lat="46.71581" lon="-1.89435">
        <ele>16</ele>
        <time>2024-12-16T19:04:47Z</time>
      </trkpt>
      <trkpt lat="46.71556" lon="-1.89454">
        <ele>15</ele>
        <time>2024-12-16T19:04:52Z</time>
      </trkpt>
      <trkpt lat="46.71499" lon="-1.89498">
        <ele>15</ele>
        <time>2024-12-16T19:05:03Z</time>
      </trkpt>
      <trkpt lat="46.715" lon="-1.89507">
        <ele>15</ele>
        <time>2024-12-16T19:05:04Z</time>
      </trkpt>
      <trkpt lat="46.71497" lon="-1.89515">
        <ele>15</ele>
        <time>2024-12-16T19:05:05Z</time>
      </trkpt>
      <trkpt lat="46.7149" lon="-1.89519">
        <ele>15</ele>
        <time>2024-12-16T19:05:07Z</time>
      </trkpt>
      <trkpt lat="46.71486" lon="-1.89518">
        <ele>15</ele>
        <time>2024-12-16T19:05:07Z</time>
      </trkpt>
      <trkpt lat="46.71483" lon="-1.89516">
        <ele>15</ele>
        <time>2024-12-16T19:05:08Z</time>
      </trkpt>
      <trkpt lat="46.71481" lon="-1.8951">
        <ele>15</ele>
        <time>2024-12-16T19:05:09Z</time>
      </trkpt>
      <trkpt lat="46.71479" lon="-1.89508">
        <ele>15</ele>
        <time>2024-12-16T19:05:09Z</time>
      </trkpt>
      <trkpt lat="46.71429" lon="-1.89518">
        <ele>15</ele>
        <time>2024-12-16T19:05:18Z</time>
      </trkpt>
      <trkpt lat="46.71409" lon="-1.89527">
        <ele>15</ele>
        <time>2024-12-16T19:05:22Z</time>
      </trkpt>
      <trkpt lat="46.71376" lon="-1.89547">
        <ele>15</ele>
        <time>2024-12-16T19:05:28Z</time>
      </trkpt>
      <trkpt lat="46.7136" lon="-1.89561">
        <ele>14</ele>
        <time>2024-12-16T19:05:32Z</time>
      </trkpt>
      <trkpt lat="46.71345" lon="-1.89573">
        <ele>14</ele>
        <time>2024-12-16T19:05:35Z</time>
      </trkpt>
      <trkpt lat="46.71307" lon="-1.89609">
        <ele>12</ele>
        <time>2024-12-16T19:05:43Z</time>
      </trkpt>
      <trkpt lat="46.71287" lon="-1.89625">
        <ele>12</ele>
        <time>2024-12-16T19:05:47Z</time>
      </trkpt>
      <trkpt lat="46.71248" lon="-1.89642">
        <ele>12</ele>
        <time>2024-12-16T19:05:54Z</time>
      </trkpt>
      <trkpt lat="46.71225" lon="-1.8965">
        <ele>12</ele>
        <time>2024-12-16T19:05:58Z</time>
      </trkpt>
      <trkpt lat="46.71214" lon="-1.89658">
        <ele>12</ele>
        <time>2024-12-16T19:06:00Z</time>
      </trkpt>
      <trkpt lat="46.7121" lon="-1.89663">
        <ele>12</ele>
        <time>2024-12-16T19:06:01Z</time>
      </trkpt>
      <trkpt lat="46.712" lon="-1.89681">
        <ele>12</ele>
        <time>2024-12-16T19:06:04Z</time>
      </trkpt>
      <trkpt lat="46.71203" lon="-1.89685">
        <ele>12</ele>
        <time>2024-12-16T19:06:05Z</time>
      </trkpt>
      <trkpt lat="46.7117" lon="-1.89766">
        <ele>12</ele>
        <time>2024-12-16T19:06:16Z</time>
      </trkpt>
      <trkpt lat="46.71153" lon="-1.89808">
        <ele>13</ele>
        <time>2024-12-16T19:06:22Z</time>
      </trkpt>
      <trkpt lat="46.71146" lon="-1.89831">
        <ele>13</ele>
        <time>2024-12-16T19:06:25Z</time>
      </trkpt>
      <trkpt lat="46.71142" lon="-1.8985">
        <ele>14</ele>
        <time>2024-12-16T19:06:28Z</time>
      </trkpt>
      <trkpt lat="46.71141" lon="-1.89873">
        <ele>14</ele>
        <time>2024-12-16T19:06:31Z</time>
      </trkpt>
      <trkpt lat="46.71135" lon="-1.8995">
        <ele>15</ele>
        <time>2024-12-16T19:06:40Z</time>
      </trkpt>
      <trkpt lat="46.71132" lon="-1.8995">
        <ele>15</ele>
        <time>2024-12-16T19:06:41Z</time>
      </trkpt>
      <trkpt lat="46.7113" lon="-1.89966">
        <ele>15</ele>
        <time>2024-12-16T19:06:43Z</time>
      </trkpt>
      <trkpt lat="46.71123" lon="-1.89959">
        <ele>16</ele>
        <time>2024-12-16T19:06:44Z</time>
      </trkpt>
      <trkpt lat="46.71105" lon="-1.89933">
        <ele>16</ele>
        <time>2024-12-16T19:06:49Z</time>
      </trkpt>
      <trkpt lat="46.71051" lon="-1.8984">
        <ele>16</ele>
        <time>2024-12-16T19:07:03Z</time>
      </trkpt>
      <trkpt lat="46.71037" lon="-1.8981">
        <ele>17</ele>
        <time>2024-12-16T19:07:08Z</time>
      </trkpt>
      <trkpt lat="46.71023" lon="-1.89779">
        <ele>17</ele>
        <time>2024-12-16T19:07:12Z</time>
      </trkpt>
      <trkpt lat="46.70968" lon="-1.89662">
        <ele>19</ele>
        <time>2024-12-16T19:07:30Z</time>
      </trkpt>
      <trkpt lat="46.70923" lon="-1.89551">
        <ele>19</ele>
        <time>2024-12-16T19:07:45Z</time>
      </trkpt>
      <trkpt lat="46.70916" lon="-1.89541">
        <ele>20</ele>
        <time>2024-12-16T19:07:47Z</time>
      </trkpt>
      <trkpt lat="46.70908" lon="-1.89536">
        <ele>20</ele>
        <time>2024-12-16T19:07:49Z</time>
      </trkpt>
      <trkpt lat="46.70827" lon="-1.89523">
        <ele>22</ele>
        <time>2024-12-16T19:08:03Z</time>
      </trkpt>
      <trkpt lat="46.70806" lon="-1.89516">
        <ele>22</ele>
        <time>2024-12-16T19:08:07Z</time>
      </trkpt>
      <trkpt lat="46.70786" lon="-1.89505">
        <ele>23</ele>
        <time>2024-12-16T19:08:11Z</time>
      </trkpt>
      <trkpt lat="46.70728" lon="-1.89467">
        <ele>24</ele>
        <time>2024-12-16T19:08:22Z</time>
      </trkpt>
      <trkpt lat="46.70703" lon="-1.89455">
        <ele>23</ele>
        <time>2024-12-16T19:08:27Z</time>
      </trkpt>
      <trkpt lat="46.70692" lon="-1.89452">
        <ele>23</ele>
        <time>2024-12-16T19:08:29Z</time>
      </trkpt>
      <trkpt lat="46.70667" lon="-1.89449">
        <ele>22</ele>
        <time>2024-12-16T19:08:33Z</time>
      </trkpt>
      <trkpt lat="46.70588" lon="-1.89453">
        <ele>23</ele>
        <time>2024-12-16T19:08:47Z</time>
      </trkpt>
      <trkpt lat="46.70416" lon="-1.89508">
        <ele>23</ele>
        <time>2024-12-16T19:09:19Z</time>
      </trkpt>
      <trkpt lat="46.70299" lon="-1.8954">
        <ele>22</ele>
        <time>2024-12-16T19:09:40Z</time>
      </trkpt>
      <trkpt lat="46.70262" lon="-1.89547">
        <ele>22</ele>
        <time>2024-12-16T19:09:47Z</time>
      </trkpt>
      <trkpt lat="46.70176" lon="-1.8955">
        <ele>22</ele>
        <time>2024-12-16T19:10:02Z</time>
      </trkpt>
      <trkpt lat="46.70136" lon="-1.89555">
        <ele>22</ele>
        <time>2024-12-16T19:10:09Z</time>
      </trkpt>
      <trkpt lat="46.70022" lon="-1.89588">
        <ele>18</ele>
        <time>2024-12-16T19:10:30Z</time>
      </trkpt>
      <trkpt lat="46.70003" lon="-1.89596">
        <ele>17</ele>
        <time>2024-12-16T19:10:33Z</time>
      </trkpt>
      <trkpt lat="46.69935" lon="-1.89632">
        <ele>17</ele>
        <time>2024-12-16T19:10:46Z</time>
      </trkpt>
      <trkpt lat="46.69917" lon="-1.89639">
        <ele>17</ele>
        <time>2024-12-16T19:10:49Z</time>
      </trkpt>
      <trkpt lat="46.69901" lon="-1.89643">
        <ele>18</ele>
        <time>2024-12-16T19:10:52Z</time>
      </trkpt>
      <trkpt lat="46.69839" lon="-1.89652">
        <ele>20</ele>
        <time>2024-12-16T19:11:03Z</time>
      </trkpt>
      <trkpt lat="46.69814" lon="-1.89659">
        <ele>20</ele>
        <time>2024-12-16T19:11:08Z</time>
      </trkpt>
      <trkpt lat="46.69757" lon="-1.89682">
        <ele>21</ele>
        <time>2024-12-16T19:11:18Z</time>
      </trkpt>
      <trkpt lat="46.69746" lon="-1.89684">
        <ele>21</ele>
        <time>2024-12-16T19:11:20Z</time>
      </trkpt>
      <trkpt lat="46.69709" lon="-1.89686">
        <ele>21</ele>
        <time>2024-12-16T19:11:27Z</time>
      </trkpt>
      <trkpt lat="46.69655" lon="-1.89709">
        <ele>21</ele>
        <time>2024-12-16T19:11:37Z</time>
      </trkpt>
      <trkpt lat="46.69589" lon="-1.89717">
        <ele>22</ele>
        <time>2024-12-16T19:11:49Z</time>
      </trkpt>
      <trkpt lat="46.69567" lon="-1.89725">
        <ele>23</ele>
        <time>2024-12-16T19:11:53Z</time>
      </trkpt>
      <trkpt lat="46.69539" lon="-1.89741">
        <ele>24</ele>
        <time>2024-12-16T19:11:58Z</time>
      </trkpt>
      <trkpt lat="46.69522" lon="-1.8975">
        <ele>25</ele>
        <time>2024-12-16T19:12:01Z</time>
      </trkpt>
      <trkpt lat="46.69478" lon="-1.89763">
        <ele>26</ele>
        <time>2024-12-16T19:12:09Z</time>
      </trkpt>
      <trkpt lat="46.69441" lon="-1.89767">
        <ele>26</ele>
        <time>2024-12-16T19:12:16Z</time>
      </trkpt>
      <trkpt lat="46.69385" lon="-1.89767">
        <ele>25</ele>
        <time>2024-12-16T19:12:26Z</time>
      </trkpt>
      <trkpt lat="46.69378" lon="-1.89769">
        <ele>25</ele>
        <time>2024-12-16T19:12:27Z</time>
      </trkpt>
      <trkpt lat="46.69373" lon="-1.89772">
        <ele>25</ele>
        <time>2024-12-16T19:12:28Z</time>
      </trkpt>
      <trkpt lat="46.69359" lon="-1.89782">
        <ele>24</ele>
        <time>2024-12-16T19:12:31Z</time>
      </trkpt>
      <trkpt lat="46.69361" lon="-1.89794">
        <ele>24</ele>
        <time>2024-12-16T19:12:32Z</time>
      </trkpt>
      <trkpt lat="46.69357" lon="-1.89806">
        <ele>24</ele>
        <time>2024-12-16T19:12:34Z</time>
      </trkpt>
      <trkpt lat="46.69355" lon="-1.89811">
        <ele>24</ele>
        <time>2024-12-16T19:12:35Z</time>
      </trkpt>
      <trkpt lat="46.69349" lon="-1.89816">
        <ele>24</ele>
        <time>2024-12-16T19:12:36Z</time>
      </trkpt>
      <trkpt lat="46.69342" lon="-1.89817">
        <ele>23</ele>
        <time>2024-12-16T19:12:37Z</time>
      </trkpt>
      <trkpt lat="46.69335" lon="-1.89815">
        <ele>23</ele>
        <time>2024-12-16T19:12:39Z</time>
      </trkpt>
      <trkpt lat="46.69329" lon="-1.89806">
        <ele>23</ele>
        <time>2024-12-16T19:12:40Z</time>
      </trkpt>
      <trkpt lat="46.69328" lon="-1.89804">
        <ele>23</ele>
        <time>2024-12-16T19:12:40Z</time>
      </trkpt>
      <trkpt lat="46.69325" lon="-1.89789">
        <ele>24</ele>
        <time>2024-12-16T19:12:42Z</time>
      </trkpt>
      <trkpt lat="46.69327" lon="-1.89782">
        <ele>24</ele>
        <time>2024-12-16T19:12:43Z</time>
      </trkpt>
      <trkpt lat="46.69333" lon="-1.8977">
        <ele>24</ele>
        <time>2024-12-16T19:12:45Z</time>
      </trkpt>
      <trkpt lat="46.69338" lon="-1.8974">
        <ele>24</ele>
        <time>2024-12-16T19:12:49Z</time>
      </trkpt>
      <trkpt lat="46.69338" lon="-1.89724">
        <ele>24</ele>
        <time>2024-12-16T19:12:51Z</time>
      </trkpt>
      <trkpt lat="46.6934" lon="-1.89716">
        <ele>24</ele>
        <time>2024-12-16T19:12:52Z</time>
      </trkpt>
      <trkpt lat="46.69338" lon="-1.8965">
        <ele>24</ele>
        <time>2024-12-16T19:13:00Z</time>
      </trkpt>
      <trkpt lat="46.69316" lon="-1.8908">
        <ele>23</ele>
        <time>2024-12-16T19:14:09Z</time>
      </trkpt>
      <trkpt lat="46.69306" lon="-1.88805">
        <ele>23</ele>
        <time>2024-12-16T19:14:43Z</time>
      </trkpt>
      <trkpt lat="46.69305" lon="-1.88769">
        <ele>24</ele>
        <time>2024-12-16T19:14:47Z</time>
      </trkpt>
      <trkpt lat="46.69123" lon="-1.88847">
        <ele>23</ele>
        <time>2024-12-16T19:15:21Z</time>
      </trkpt>
      <trkpt lat="46.69049" lon="-1.88871">
        <ele>23</ele>
        <time>2024-12-16T19:15:35Z</time>
      </trkpt>
      <trkpt lat="46.69034" lon="-1.88876">
        <ele>22</ele>
        <time>2024-12-16T19:15:37Z</time>
      </trkpt>
      <trkpt lat="46.68949" lon="-1.88903">
        <ele>22</ele>
        <time>2024-12-16T19:15:53Z</time>
      </trkpt>
      <trkpt lat="46.6877" lon="-1.88966">
        <ele>23</ele>
        <time>2024-12-16T19:16:26Z</time>
      </trkpt>
      <trkpt lat="46.68746" lon="-1.88972">
        <ele>23</ele>
        <time>2024-12-16T19:16:30Z</time>
      </trkpt>
      <trkpt lat="46.68708" lon="-1.88979">
        <ele>24</ele>
        <time>2024-12-16T19:16:37Z</time>
      </trkpt>
      <trkpt lat="46.6864" lon="-1.88988">
        <ele>24</ele>
        <time>2024-12-16T19:16:49Z</time>
      </trkpt>
      <trkpt lat="46.68517" lon="-1.89042">
        <ele>23</ele>
        <time>2024-12-16T19:17:12Z</time>
      </trkpt>
      <trkpt lat="46.68486" lon="-1.89052">
        <ele>22</ele>
        <time>2024-12-16T19:17:18Z</time>
      </trkpt>
      <trkpt lat="46.68465" lon="-1.89054">
        <ele>22</ele>
        <time>2024-12-16T19:17:21Z</time>
      </trkpt>
      <trkpt lat="46.68435" lon="-1.89052">
        <ele>22</ele>
        <time>2024-12-16T19:17:27Z</time>
      </trkpt>
      <trkpt lat="46.68333" lon="-1.89034">
        <ele>23</ele>
        <time>2024-12-16T19:17:45Z</time>
      </trkpt>
      <trkpt lat="46.68306" lon="-1.89032">
        <ele>23</ele>
        <time>2024-12-16T19:17:50Z</time>
      </trkpt>
      <trkpt lat="46.68193" lon="-1.89042">
        <ele>21</ele>
        <time>2024-12-16T19:18:10Z</time>
      </trkpt>
      <trkpt lat="46.68151" lon="-1.89046">
        <ele>21</ele>
        <time>2024-12-16T19:18:17Z</time>
      </trkpt>
      <trkpt lat="46.6814" lon="-1.89049">
        <ele>21</ele>
        <time>2024-12-16T19:18:19Z</time>
      </trkpt>
      <trkpt lat="46.68135" lon="-1.89059">
        <ele>21</ele>
        <time>2024-12-16T19:18:21Z</time>
      </trkpt>
      <trkpt lat="46.68129" lon="-1.89055">
        <ele>21</ele>
        <time>2024-12-16T19:18:22Z</time>
      </trkpt>
      <trkpt lat="46.68123" lon="-1.89047">
        <ele>20</ele>
        <time>2024-12-16T19:18:23Z</time>
      </trkpt>
      <trkpt lat="46.68107" lon="-1.89043">
        <ele>20</ele>
        <time>2024-12-16T19:18:26Z</time>
      </trkpt>
      <trkpt lat="46.6798" lon="-1.89045">
        <ele>19</ele>
        <time>2024-12-16T19:18:49Z</time>
      </trkpt>
      <trkpt lat="46.67962" lon="-1.89044">
        <ele>19</ele>
        <time>2024-12-16T19:18:52Z</time>
      </trkpt>
      <trkpt lat="46.67923" lon="-1.89037">
        <ele>19</ele>
        <time>2024-12-16T19:18:59Z</time>
      </trkpt>
      <trkpt lat="46.67903" lon="-1.89028">
        <ele>19</ele>
        <time>2024-12-16T19:19:03Z</time>
      </trkpt>
      <trkpt lat="46.67873" lon="-1.8901">
        <ele>19</ele>
        <time>2024-12-16T19:19:09Z</time>
      </trkpt>
      <trkpt lat="46.6785" lon="-1.8899">
        <ele>19</ele>
        <time>2024-12-16T19:19:13Z</time>
      </trkpt>
      <trkpt lat="46.67808" lon="-1.88942">
        <ele>19</ele>
        <time>2024-12-16T19:19:23Z</time>
      </trkpt>
      <trkpt lat="46.67783" lon="-1.88924">
        <ele>18</ele>
        <time>2024-12-16T19:19:28Z</time>
      </trkpt>
      <trkpt lat="46.67676" lon="-1.88868">
        <ele>15</ele>
        <time>2024-12-16T19:19:48Z</time>
      </trkpt>
      <trkpt lat="46.67621" lon="-1.88841">
        <ele>15</ele>
        <time>2024-12-16T19:19:58Z</time>
      </trkpt>
      <trkpt lat="46.67575" lon="-1.88826">
        <ele>15</ele>
        <time>2024-12-16T19:20:07Z</time>
      </trkpt>
      <trkpt lat="46.67573" lon="-1.88825">
        <ele>15</ele>
        <time>2024-12-16T19:20:07Z</time>
      </trkpt>
      <trkpt lat="46.67572" lon="-1.88822">
        <ele>15</ele>
        <time>2024-12-16T19:20:08Z</time>
      </trkpt>
      <trkpt lat="46.67568" lon="-1.88818">
        <ele>15</ele>
        <time>2024-12-16T19:20:08Z</time>
      </trkpt>
      <trkpt lat="46.67541" lon="-1.88808">
        <ele>15</ele>
        <time>2024-12-16T19:20:13Z</time>
      </trkpt>
      <trkpt lat="46.67498" lon="-1.88802">
        <ele>15</ele>
        <time>2024-12-16T19:20:21Z</time>
      </trkpt>
      <trkpt lat="46.67495" lon="-1.88809">
        <ele>15</ele>
        <time>2024-12-16T19:20:22Z</time>
      </trkpt>
      <trkpt lat="46.67416" lon="-1.88808">
        <ele>13</ele>
        <time>2024-12-16T19:20:36Z</time>
      </trkpt>
      <trkpt lat="46.67409" lon="-1.88808">
        <ele>13</ele>
        <time>2024-12-16T19:20:37Z</time>
      </trkpt>
      <trkpt lat="46.67407" lon="-1.888">
        <ele>13</ele>
        <time>2024-12-16T19:20:38Z</time>
      </trkpt>
      <trkpt lat="46.67404" lon="-1.88797">
        <ele>13</ele>
        <time>2024-12-16T19:20:39Z</time>
      </trkpt>
      <trkpt lat="46.67399" lon="-1.88796">
        <ele>13</ele>
        <time>2024-12-16T19:20:40Z</time>
      </trkpt>
      <trkpt lat="46.67395" lon="-1.888">
        <ele>13</ele>
        <time>2024-12-16T19:20:41Z</time>
      </trkpt>
      <trkpt lat="46.67393" lon="-1.88803">
        <ele>13</ele>
        <time>2024-12-16T19:20:41Z</time>
      </trkpt>
      <trkpt lat="46.67388" lon="-1.888">
        <ele>13</ele>
        <time>2024-12-16T19:20:42Z</time>
      </trkpt>
      <trkpt lat="46.67379" lon="-1.88795">
        <ele>13</ele>
        <time>2024-12-16T19:20:44Z</time>
      </trkpt>
      <trkpt lat="46.67297" lon="-1.88728">
        <ele>13</ele>
        <time>2024-12-16T19:21:01Z</time>
      </trkpt>
      <trkpt lat="46.67252" lon="-1.88689">
        <ele>13</ele>
        <time>2024-12-16T19:21:10Z</time>
      </trkpt>
      <trkpt lat="46.67232" lon="-1.88672">
        <ele>13</ele>
        <time>2024-12-16T19:21:14Z</time>
      </trkpt>
      <trkpt lat="46.67219" lon="-1.88667">
        <ele>13</ele>
        <time>2024-12-16T19:21:17Z</time>
      </trkpt>
      <trkpt lat="46.6721" lon="-1.88666">
        <ele>13</ele>
        <time>2024-12-16T19:21:18Z</time>
      </trkpt>
      <trkpt lat="46.67203" lon="-1.88669">
        <ele>14</ele>
        <time>2024-12-16T19:21:19Z</time>
      </trkpt>
      <trkpt lat="46.67197" lon="-1.88654">
        <ele>14</ele>
        <time>2024-12-16T19:21:22Z</time>
      </trkpt>
      <trkpt lat="46.67189" lon="-1.88643">
        <ele>14</ele>
        <time>2024-12-16T19:21:24Z</time>
      </trkpt>
      <trkpt lat="46.67159" lon="-1.88606">
        <ele>13</ele>
        <time>2024-12-16T19:21:31Z</time>
      </trkpt>
      <trkpt lat="46.67149" lon="-1.886">
        <ele>13</ele>
        <time>2024-12-16T19:21:32Z</time>
      </trkpt>
      <trkpt lat="46.67126" lon="-1.88568">
        <ele>12</ele>
        <time>2024-12-16T19:21:38Z</time>
      </trkpt>
      <trkpt lat="46.67106" lon="-1.8854">
        <ele>12</ele>
        <time>2024-12-16T19:21:43Z</time>
      </trkpt>
      <trkpt lat="46.67121" lon="-1.88472">
        <ele>11</ele>
        <time>2024-12-16T19:21:52Z</time>
      </trkpt>
      <trkpt lat="46.67133" lon="-1.88417">
        <ele>10</ele>
        <time>2024-12-16T19:21:59Z</time>
      </trkpt>
      <trkpt lat="46.67139" lon="-1.88411">
        <ele>10</ele>
        <time>2024-12-16T19:22:00Z</time>
      </trkpt>
      <trkpt lat="46.67137" lon="-1.88403">
        <ele>10</ele>
        <time>2024-12-16T19:22:01Z</time>
      </trkpt>
      <trkpt lat="46.67139" lon="-1.88389">
        <ele>10</ele>
        <time>2024-12-16T19:22:03Z</time>
      </trkpt>
      <trkpt lat="46.67141" lon="-1.88356">
        <ele>9</ele>
        <time>2024-12-16T19:22:07Z</time>
      </trkpt>
      <trkpt lat="46.67141" lon="-1.88308">
        <ele>9</ele>
        <time>2024-12-16T19:22:13Z</time>
      </trkpt>
      <trkpt lat="46.67144" lon="-1.8829">
        <ele>9</ele>
        <time>2024-12-16T19:22:15Z</time>
      </trkpt>
      <trkpt lat="46.67152" lon="-1.88261">
        <ele>8</ele>
        <time>2024-12-16T19:22:19Z</time>
      </trkpt>
      <trkpt lat="46.67156" lon="-1.88256">
        <ele>8</ele>
        <time>2024-12-16T19:22:20Z</time>
      </trkpt>
      <trkpt lat="46.67161" lon="-1.88236">
        <ele>8</ele>
        <time>2024-12-16T19:22:22Z</time>
      </trkpt>
      <trkpt lat="46.67165" lon="-1.88233">
        <ele>8</ele>
        <time>2024-12-16T19:22:23Z</time>
      </trkpt>
      <trkpt lat="46.67166" lon="-1.88224">
        <ele>8</ele>
        <time>2024-12-16T19:22:24Z</time>
      </trkpt>
      <trkpt lat="46.67168" lon="-1.88223">
        <ele>8</ele>
        <time>2024-12-16T19:22:25Z</time>
      </trkpt>
      <trkpt lat="46.67174" lon="-1.88214">
        <ele>8</ele>
        <time>2024-12-16T19:22:26Z</time>
      </trkpt>
      <trkpt lat="46.67173" lon="-1.88204">
        <ele>8</ele>
        <time>2024-12-16T19:22:27Z</time>
      </trkpt>
      <trkpt lat="46.67168" lon="-1.88197">
        <ele>7</ele>
        <time>2024-12-16T19:22:29Z</time>
      </trkpt>
      <trkpt lat="46.67175" lon="-1.88164">
        <ele>7</ele>
        <time>2024-12-16T19:22:33Z</time>
      </trkpt>
      <trkpt lat="46.67178" lon="-1.88143">
        <ele>8</ele>
        <time>2024-12-16T19:22:36Z</time>
      </trkpt>
      <trkpt lat="46.67185" lon="-1.88089">
        <ele>9</ele>
        <time>2024-12-16T19:22:42Z</time>
      </trkpt>
      <trkpt lat="46.67196" lon="-1.88021">
        <ele>10</ele>
        <time>2024-12-16T19:22:51Z</time>
      </trkpt>
      <trkpt lat="46.672" lon="-1.8799">
        <ele>10</ele>
        <time>2024-12-16T19:22:55Z</time>
      </trkpt>
      <trkpt lat="46.67212" lon="-1.87901">
        <ele>10</ele>
        <time>2024-12-16T19:23:06Z</time>
      </trkpt>
      <trkpt lat="46.67213" lon="-1.87858">
        <ele>10</ele>
        <time>2024-12-16T19:23:11Z</time>
      </trkpt>
      <trkpt lat="46.67212" lon="-1.87764">
        <ele>10</ele>
        <time>2024-12-16T19:23:22Z</time>
      </trkpt>
      <trkpt lat="46.6722" lon="-1.87617">
        <ele>11</ele>
        <time>2024-12-16T19:23:40Z</time>
      </trkpt>
      <trkpt lat="46.67248" lon="-1.8738">
        <ele>11</ele>
        <time>2024-12-16T19:24:10Z</time>
      </trkpt>
      <trkpt lat="46.67269" lon="-1.8711">
        <ele>9</ele>
        <time>2024-12-16T19:24:43Z</time>
      </trkpt>
      <trkpt lat="46.67271" lon="-1.8702">
        <ele>8</ele>
        <time>2024-12-16T19:24:54Z</time>
      </trkpt>
      <trkpt lat="46.67271" lon="-1.87011">
        <ele>8</ele>
        <time>2024-12-16T19:24:55Z</time>
      </trkpt>
      <trkpt lat="46.67264" lon="-1.86989">
        <ele>7</ele>
        <time>2024-12-16T19:24:58Z</time>
      </trkpt>
      <trkpt lat="46.67253" lon="-1.86963">
        <ele>5</ele>
        <time>2024-12-16T19:25:02Z</time>
      </trkpt>
      <trkpt lat="46.67213" lon="-1.86887">
        <ele>3</ele>
        <time>2024-12-16T19:25:13Z</time>
      </trkpt>
      <trkpt lat="46.67203" lon="-1.86867">
        <ele>3</ele>
        <time>2024-12-16T19:25:16Z</time>
      </trkpt>
      <trkpt lat="46.67181" lon="-1.86824">
        <ele>4</ele>
        <time>2024-12-16T19:25:23Z</time>
      </trkpt>
      <trkpt lat="46.67172" lon="-1.86801">
        <ele>4</ele>
        <time>2024-12-16T19:25:26Z</time>
      </trkpt>
      <trkpt lat="46.67166" lon="-1.86769">
        <ele>5</ele>
        <time>2024-12-16T19:25:30Z</time>
      </trkpt>
      <trkpt lat="46.67164" lon="-1.86733">
        <ele>6</ele>
        <time>2024-12-16T19:25:35Z</time>
      </trkpt>
      <trkpt lat="46.67166" lon="-1.8668">
        <ele>8</ele>
        <time>2024-12-16T19:25:41Z</time>
      </trkpt>
      <trkpt lat="46.6717" lon="-1.86646">
        <ele>8</ele>
        <time>2024-12-16T19:25:45Z</time>
      </trkpt>
      <trkpt lat="46.67181" lon="-1.866">
        <ele>8</ele>
        <time>2024-12-16T19:25:51Z</time>
      </trkpt>
      <trkpt lat="46.67196" lon="-1.86549">
        <ele>9</ele>
        <time>2024-12-16T19:25:58Z</time>
      </trkpt>
      <trkpt lat="46.67226" lon="-1.86451">
        <ele>10</ele>
        <time>2024-12-16T19:26:11Z</time>
      </trkpt>
      <trkpt lat="46.67236" lon="-1.86403">
        <ele>10</ele>
        <time>2024-12-16T19:26:17Z</time>
      </trkpt>
      <trkpt lat="46.67239" lon="-1.86378">
        <ele>10</ele>
        <time>2024-12-16T19:26:20Z</time>
      </trkpt>
      <trkpt lat="46.67243" lon="-1.86317">
        <ele>10</ele>
        <time>2024-12-16T19:26:28Z</time>
      </trkpt>
      <trkpt lat="46.67248" lon="-1.86246">
        <ele>10</ele>
        <time>2024-12-16T19:26:37Z</time>
      </trkpt>
      <trkpt lat="46.67257" lon="-1.86215">
        <ele>11</ele>
        <time>2024-12-16T19:26:41Z</time>
      </trkpt>
      <trkpt lat="46.67275" lon="-1.86168">
        <ele>12</ele>
        <time>2024-12-16T19:26:47Z</time>
      </trkpt>
      <trkpt lat="46.67286" lon="-1.86119">
        <ele>12</ele>
        <time>2024-12-16T19:26:54Z</time>
      </trkpt>
      <trkpt lat="46.67298" lon="-1.86035">
        <ele>14</ele>
        <time>2024-12-16T19:27:04Z</time>
      </trkpt>
      <trkpt lat="46.67301" lon="-1.85999">
        <ele>15</ele>
        <time>2024-12-16T19:27:09Z</time>
      </trkpt>
      <trkpt lat="46.67304" lon="-1.85932">
        <ele>15</ele>
        <time>2024-12-16T19:27:17Z</time>
      </trkpt>
      <trkpt lat="46.67302" lon="-1.85841">
        <ele>16</ele>
        <time>2024-12-16T19:27:28Z</time>
      </trkpt>
      <trkpt lat="46.67296" lon="-1.85758">
        <ele>16</ele>
        <time>2024-12-16T19:27:38Z</time>
      </trkpt>
      <trkpt lat="46.67263" lon="-1.85355">
        <ele>19</ele>
        <time>2024-12-16T19:28:28Z</time>
      </trkpt>
      <trkpt lat="46.67255" lon="-1.85306">
        <ele>20</ele>
        <time>2024-12-16T19:28:34Z</time>
      </trkpt>
      <trkpt lat="46.67237" lon="-1.8524">
        <ele>19</ele>
        <time>2024-12-16T19:28:42Z</time>
      </trkpt>
      <trkpt lat="46.672" lon="-1.85112">
        <ele>19</ele>
        <time>2024-12-16T19:28:59Z</time>
      </trkpt>
      <trkpt lat="46.67181" lon="-1.85049">
        <ele>19</ele>
        <time>2024-12-16T19:29:08Z</time>
      </trkpt>
      <trkpt lat="46.67175" lon="-1.85022">
        <ele>18</ele>
        <time>2024-12-16T19:29:11Z</time>
      </trkpt>
      <trkpt lat="46.67164" lon="-1.84956">
        <ele>18</ele>
        <time>2024-12-16T19:29:20Z</time>
      </trkpt>
      <trkpt lat="46.67162" lon="-1.8493">
        <ele>18</ele>
        <time>2024-12-16T19:29:23Z</time>
      </trkpt>
      <trkpt lat="46.67162" lon="-1.84895">
        <ele>18</ele>
        <time>2024-12-16T19:29:27Z</time>
      </trkpt>
      <trkpt lat="46.67166" lon="-1.84842">
        <ele>18</ele>
        <time>2024-12-16T19:29:34Z</time>
      </trkpt>
      <trkpt lat="46.67171" lon="-1.84804">
        <ele>18</ele>
        <time>2024-12-16T19:29:38Z</time>
      </trkpt>
      <trkpt lat="46.67174" lon="-1.84781">
        <ele>19</ele>
        <time>2024-12-16T19:29:41Z</time>
      </trkpt>
      <trkpt lat="46.67175" lon="-1.8477">
        <ele>19</ele>
        <time>2024-12-16T19:29:42Z</time>
      </trkpt>
      <trkpt lat="46.67226" lon="-1.84383">
        <ele>21</ele>
        <time>2024-12-16T19:30:31Z</time>
      </trkpt>
      <trkpt lat="46.67247" lon="-1.84217">
        <ele>21</ele>
        <time>2024-12-16T19:30:51Z</time>
      </trkpt>
      <trkpt lat="46.67257" lon="-1.83916">
        <ele>23</ele>
        <time>2024-12-16T19:31:28Z</time>
      </trkpt>
      <trkpt lat="46.67253" lon="-1.83842">
        <ele>23</ele>
        <time>2024-12-16T19:31:37Z</time>
      </trkpt>
      <trkpt lat="46.67252" lon="-1.83834">
        <ele>23</ele>
        <time>2024-12-16T19:31:38Z</time>
      </trkpt>
      <trkpt lat="46.6725" lon="-1.83824">
        <ele>23</ele>
        <time>2024-12-16T19:31:39Z</time>
      </trkpt>
      <trkpt lat="46.67243" lon="-1.83753">
        <ele>23</ele>
        <time>2024-12-16T19:31:48Z</time>
      </trkpt>
      <trkpt lat="46.6724" lon="-1.83719">
        <ele>22</ele>
        <time>2024-12-16T19:31:52Z</time>
      </trkpt>
      <trkpt lat="46.67228" lon="-1.83591">
        <ele>20</ele>
        <time>2024-12-16T19:32:08Z</time>
      </trkpt>
      <trkpt lat="46.67222" lon="-1.83546">
        <ele>20</ele>
        <time>2024-12-16T19:32:14Z</time>
      </trkpt>
      <trkpt lat="46.67203" lon="-1.83472">
        <ele>21</ele>
        <time>2024-12-16T19:32:23Z</time>
      </trkpt>
      <trkpt lat="46.67197" lon="-1.83453">
        <ele>21</ele>
        <time>2024-12-16T19:32:26Z</time>
      </trkpt>
      <trkpt lat="46.67174" lon="-1.83377">
        <ele>22</ele>
        <time>2024-12-16T19:32:36Z</time>
      </trkpt>
      <trkpt lat="46.67149" lon="-1.83307">
        <ele>22</ele>
        <time>2024-12-16T19:32:46Z</time>
      </trkpt>
      <trkpt lat="46.6712" lon="-1.83235">
        <ele>21</ele>
        <time>2024-12-16T19:32:56Z</time>
      </trkpt>
      <trkpt lat="46.67097" lon="-1.83187">
        <ele>21</ele>
        <time>2024-12-16T19:33:03Z</time>
      </trkpt>
      <trkpt lat="46.67039" lon="-1.83063">
        <ele>18</ele>
        <time>2024-12-16T19:33:21Z</time>
      </trkpt>
      <trkpt lat="46.6703" lon="-1.83039">
        <ele>18</ele>
        <time>2024-12-16T19:33:25Z</time>
      </trkpt>
      <trkpt lat="46.67021" lon="-1.83009">
        <ele>18</ele>
        <time>2024-12-16T19:33:29Z</time>
      </trkpt>
      <trkpt lat="46.67007" lon="-1.82949">
        <ele>18</ele>
        <time>2024-12-16T19:33:36Z</time>
      </trkpt>
      <trkpt lat="46.67002" lon="-1.82932">
        <ele>18</ele>
        <time>2024-12-16T19:33:39Z</time>
      </trkpt>
      <trkpt lat="46.66998" lon="-1.82919">
        <ele>18</ele>
        <time>2024-12-16T19:33:40Z</time>
      </trkpt>
      <trkpt lat="46.66998" lon="-1.82909">
        <ele>18</ele>
        <time>2024-12-16T19:33:42Z</time>
      </trkpt>
      <trkpt lat="46.66996" lon="-1.82896">
        <ele>18</ele>
        <time>2024-12-16T19:33:43Z</time>
      </trkpt>
      <trkpt lat="46.66995" lon="-1.82863">
        <ele>18</ele>
        <time>2024-12-16T19:33:47Z</time>
      </trkpt>
      <trkpt lat="46.66997" lon="-1.82853">
        <ele>18</ele>
        <time>2024-12-16T19:33:48Z</time>
      </trkpt>
      <trkpt lat="46.67028" lon="-1.82763">
        <ele>18</ele>
        <time>2024-12-16T19:34:01Z</time>
      </trkpt>
      <trkpt lat="46.67039" lon="-1.82763">
        <ele>19</ele>
        <time>2024-12-16T19:34:03Z</time>
      </trkpt>
      <trkpt lat="46.67069" lon="-1.82753">
        <ele>20</ele>
        <time>2024-12-16T19:34:08Z</time>
      </trkpt>
      <trkpt lat="46.67088" lon="-1.82739">
        <ele>20</ele>
        <time>2024-12-16T19:34:12Z</time>
      </trkpt>
      <trkpt lat="46.67094" lon="-1.82734">
        <ele>21</ele>
        <time>2024-12-16T19:34:13Z</time>
      </trkpt>
      <trkpt lat="46.67106" lon="-1.82714">
        <ele>21</ele>
        <time>2024-12-16T19:34:16Z</time>
      </trkpt>
      <trkpt lat="46.67088" lon="-1.8269">
        <ele>22</ele>
        <time>2024-12-16T19:34:21Z</time>
      </trkpt>
      <trkpt lat="46.6708" lon="-1.82683">
        <ele>22</ele>
        <time>2024-12-16T19:34:22Z</time>
      </trkpt>
      <trkpt lat="46.67081" lon="-1.82677">
        <ele>23</ele>
        <time>2024-12-16T19:34:23Z</time>
      </trkpt>
      <trkpt lat="46.67081" lon="-1.82675">
        <ele>23</ele>
        <time>2024-12-16T19:34:23Z</time>
      </trkpt>
      <trkpt lat="46.67079" lon="-1.82666">
        <ele>23</ele>
        <time>2024-12-16T19:34:25Z</time>
      </trkpt>
      <trkpt lat="46.67073" lon="-1.82661">
        <ele>23</ele>
        <time>2024-12-16T19:34:26Z</time>
      </trkpt>
      <trkpt lat="46.67077" lon="-1.82638">
        <ele>24</ele>
        <time>2024-12-16T19:34:29Z</time>
      </trkpt>
      <trkpt lat="46.67078" lon="-1.82614">
        <ele>26</ele>
        <time>2024-12-16T19:34:32Z</time>
      </trkpt>
      <trkpt lat="46.67083" lon="-1.82592">
        <ele>27</ele>
        <time>2024-12-16T19:34:34Z</time>
      </trkpt>
      <trkpt lat="46.67092" lon="-1.82573">
        <ele>28</ele>
        <time>2024-12-16T19:34:37Z</time>
      </trkpt>
      <trkpt lat="46.6714" lon="-1.82497">
        <ele>31</ele>
        <time>2024-12-16T19:34:50Z</time>
      </trkpt>
      <trkpt lat="46.67158" lon="-1.82456">
        <ele>31</ele>
        <time>2024-12-16T19:34:56Z</time>
      </trkpt>
      <trkpt lat="46.67192" lon="-1.82382">
        <ele>32</ele>
        <time>2024-12-16T19:35:07Z</time>
      </trkpt>
      <trkpt lat="46.67222" lon="-1.82317">
        <ele>32</ele>
        <time>2024-12-16T19:35:16Z</time>
      </trkpt>
      <trkpt lat="46.67248" lon="-1.82256">
        <ele>32</ele>
        <time>2024-12-16T19:35:25Z</time>
      </trkpt>
      <trkpt lat="46.67276" lon="-1.82183">
        <ele>32</ele>
        <time>2024-12-16T19:35:35Z</time>
      </trkpt>
      <trkpt lat="46.67297" lon="-1.82122">
        <ele>32</ele>
        <time>2024-12-16T19:35:44Z</time>
      </trkpt>
      <trkpt lat="46.67332" lon="-1.82002">
        <ele>33</ele>
        <time>2024-12-16T19:36:00Z</time>
      </trkpt>
      <trkpt lat="46.67341" lon="-1.81975">
        <ele>33</ele>
        <time>2024-12-16T19:36:03Z</time>
      </trkpt>
      <trkpt lat="46.67346" lon="-1.81959">
        <ele>33</ele>
        <time>2024-12-16T19:36:05Z</time>
      </trkpt>
      <trkpt lat="46.67367" lon="-1.81908">
        <ele>32</ele>
        <time>2024-12-16T19:36:13Z</time>
      </trkpt>
      <trkpt lat="46.67391" lon="-1.81849">
        <ele>32</ele>
        <time>2024-12-16T19:36:21Z</time>
      </trkpt>
      <trkpt lat="46.67398" lon="-1.81821">
        <ele>32</ele>
        <time>2024-12-16T19:36:25Z</time>
      </trkpt>
      <trkpt lat="46.67406" lon="-1.8178">
        <ele>32</ele>
        <time>2024-12-16T19:36:30Z</time>
      </trkpt>
      <trkpt lat="46.6742" lon="-1.81627">
        <ele>32</ele>
        <time>2024-12-16T19:36:49Z</time>
      </trkpt>
      <trkpt lat="46.67428" lon="-1.81584">
        <ele>32</ele>
        <time>2024-12-16T19:36:54Z</time>
      </trkpt>
      <trkpt lat="46.67461" lon="-1.81447">
        <ele>35</ele>
        <time>2024-12-16T19:37:12Z</time>
      </trkpt>
      <trkpt lat="46.67469" lon="-1.81423">
        <ele>35</ele>
        <time>2024-12-16T19:37:15Z</time>
      </trkpt>
      <trkpt lat="46.67474" lon="-1.8141">
        <ele>35</ele>
        <time>2024-12-16T19:37:17Z</time>
      </trkpt>
      <trkpt lat="46.67481" lon="-1.81392">
        <ele>35</ele>
        <time>2024-12-16T19:37:19Z</time>
      </trkpt>
      <trkpt lat="46.6749" lon="-1.81362">
        <ele>35</ele>
        <time>2024-12-16T19:37:23Z</time>
      </trkpt>
      <trkpt lat="46.675" lon="-1.8131">
        <ele>35</ele>
        <time>2024-12-16T19:37:30Z</time>
      </trkpt>
      <trkpt lat="46.67503" lon="-1.81278">
        <ele>36</ele>
        <time>2024-12-16T19:37:34Z</time>
      </trkpt>
      <trkpt lat="46.67505" lon="-1.81137">
        <ele>33</ele>
        <time>2024-12-16T19:37:51Z</time>
      </trkpt>
      <trkpt lat="46.67517" lon="-1.81032">
        <ele>32</ele>
        <time>2024-12-16T19:38:04Z</time>
      </trkpt>
      <trkpt lat="46.67559" lon="-1.80841">
        <ele>35</ele>
        <time>2024-12-16T19:38:29Z</time>
      </trkpt>
      <trkpt lat="46.67564" lon="-1.80812">
        <ele>36</ele>
        <time>2024-12-16T19:38:32Z</time>
      </trkpt>
      <trkpt lat="46.67571" lon="-1.80747">
        <ele>36</ele>
        <time>2024-12-16T19:38:40Z</time>
      </trkpt>
      <trkpt lat="46.67569" lon="-1.80593">
        <ele>37</ele>
        <time>2024-12-16T19:38:59Z</time>
      </trkpt>
      <trkpt lat="46.6757" lon="-1.80491">
        <ele>37</ele>
        <time>2024-12-16T19:39:12Z</time>
      </trkpt>
      <trkpt lat="46.67569" lon="-1.80334">
        <ele>37</ele>
        <time>2024-12-16T19:39:31Z</time>
      </trkpt>
      <trkpt lat="46.67564" lon="-1.80278">
        <ele>36</ele>
        <time>2024-12-16T19:39:38Z</time>
      </trkpt>
      <trkpt lat="46.67551" lon="-1.80207">
        <ele>36</ele>
        <time>2024-12-16T19:39:47Z</time>
      </trkpt>
      <trkpt lat="46.67549" lon="-1.80174">
        <ele>37</ele>
        <time>2024-12-16T19:39:51Z</time>
      </trkpt>
      <trkpt lat="46.67548" lon="-1.80079">
        <ele>38</ele>
        <time>2024-12-16T19:40:02Z</time>
      </trkpt>
      <trkpt lat="46.67555" lon="-1.80009">
        <ele>39</ele>
        <time>2024-12-16T19:40:11Z</time>
      </trkpt>
      <trkpt lat="46.67559" lon="-1.79967">
        <ele>40</ele>
        <time>2024-12-16T19:40:16Z</time>
      </trkpt>
      <trkpt lat="46.6756" lon="-1.7996">
        <ele>40</ele>
        <time>2024-12-16T19:40:17Z</time>
      </trkpt>
      <trkpt lat="46.6759" lon="-1.79873">
        <ele>42</ele>
        <time>2024-12-16T19:40:29Z</time>
      </trkpt>
      <trkpt lat="46.67596" lon="-1.79848">
        <ele>42</ele>
        <time>2024-12-16T19:40:32Z</time>
      </trkpt>
      <trkpt lat="46.67602" lon="-1.79813">
        <ele>42</ele>
        <time>2024-12-16T19:40:36Z</time>
      </trkpt>
      <trkpt lat="46.67606" lon="-1.79721">
        <ele>41</ele>
        <time>2024-12-16T19:40:48Z</time>
      </trkpt>
      <trkpt lat="46.67613" lon="-1.7968">
        <ele>41</ele>
        <time>2024-12-16T19:40:53Z</time>
      </trkpt>
      <trkpt lat="46.67629" lon="-1.79614">
        <ele>40</ele>
        <time>2024-12-16T19:41:01Z</time>
      </trkpt>
      <trkpt lat="46.67632" lon="-1.79588">
        <ele>40</ele>
        <time>2024-12-16T19:41:05Z</time>
      </trkpt>
      <trkpt lat="46.67633" lon="-1.79559">
        <ele>40</ele>
        <time>2024-12-16T19:41:08Z</time>
      </trkpt>
      <trkpt lat="46.67631" lon="-1.79533">
        <ele>39</ele>
        <time>2024-12-16T19:41:11Z</time>
      </trkpt>
      <trkpt lat="46.67627" lon="-1.79511">
        <ele>39</ele>
        <time>2024-12-16T19:41:14Z</time>
      </trkpt>
      <trkpt lat="46.67623" lon="-1.79493">
        <ele>40</ele>
        <time>2024-12-16T19:41:17Z</time>
      </trkpt>
      <trkpt lat="46.67596" lon="-1.79426">
        <ele>41</ele>
        <time>2024-12-16T19:41:26Z</time>
      </trkpt>
      <trkpt lat="46.67587" lon="-1.79398">
        <ele>41</ele>
        <time>2024-12-16T19:41:30Z</time>
      </trkpt>
      <trkpt lat="46.67581" lon="-1.79366">
        <ele>42</ele>
        <time>2024-12-16T19:41:34Z</time>
      </trkpt>
      <trkpt lat="46.67578" lon="-1.79329">
        <ele>42</ele>
        <time>2024-12-16T19:41:38Z</time>
      </trkpt>
      <trkpt lat="46.67574" lon="-1.79127">
        <ele>42</ele>
        <time>2024-12-16T19:42:03Z</time>
      </trkpt>
      <trkpt lat="46.6757" lon="-1.79086">
        <ele>42</ele>
        <time>2024-12-16T19:42:08Z</time>
      </trkpt>
      <trkpt lat="46.67551" lon="-1.78947">
        <ele>38</ele>
        <time>2024-12-16T19:42:25Z</time>
      </trkpt>
      <trkpt lat="46.67544" lon="-1.78914">
        <ele>37</ele>
        <time>2024-12-16T19:42:30Z</time>
      </trkpt>
      <trkpt lat="46.67473" lon="-1.7863">
        <ele>36</ele>
        <time>2024-12-16T19:43:07Z</time>
      </trkpt>
      <trkpt lat="46.67456" lon="-1.78575">
        <ele>36</ele>
        <time>2024-12-16T19:43:14Z</time>
      </trkpt>
      <trkpt lat="46.67446" lon="-1.78554">
        <ele>36</ele>
        <time>2024-12-16T19:43:17Z</time>
      </trkpt>
      <trkpt lat="46.67432" lon="-1.78527">
        <ele>36</ele>
        <time>2024-12-16T19:43:21Z</time>
      </trkpt>
      <trkpt lat="46.67392" lon="-1.78436">
        <ele>37</ele>
        <time>2024-12-16T19:43:34Z</time>
      </trkpt>
      <trkpt lat="46.6737" lon="-1.78381">
        <ele>37</ele>
        <time>2024-12-16T19:43:42Z</time>
      </trkpt>
      <trkpt lat="46.67355" lon="-1.78332">
        <ele>37</ele>
        <time>2024-12-16T19:43:49Z</time>
      </trkpt>
      <trkpt lat="46.67343" lon="-1.78307">
        <ele>37</ele>
        <time>2024-12-16T19:43:52Z</time>
      </trkpt>
      <trkpt lat="46.67334" lon="-1.78296">
        <ele>36</ele>
        <time>2024-12-16T19:43:54Z</time>
      </trkpt>
      <trkpt lat="46.67322" lon="-1.78286">
        <ele>37</ele>
        <time>2024-12-16T19:43:57Z</time>
      </trkpt>
      <trkpt lat="46.67198" lon="-1.78225">
        <ele>38</ele>
        <time>2024-12-16T19:44:20Z</time>
      </trkpt>
      <trkpt lat="46.67186" lon="-1.78214">
        <ele>39</ele>
        <time>2024-12-16T19:44:23Z</time>
      </trkpt>
      <trkpt lat="46.67177" lon="-1.78199">
        <ele>39</ele>
        <time>2024-12-16T19:44:25Z</time>
      </trkpt>
      <trkpt lat="46.67172" lon="-1.78181">
        <ele>40</ele>
        <time>2024-12-16T19:44:28Z</time>
      </trkpt>
      <trkpt lat="46.67168" lon="-1.78156">
        <ele>40</ele>
        <time>2024-12-16T19:44:31Z</time>
      </trkpt>
      <trkpt lat="46.67162" lon="-1.78125">
        <ele>41</ele>
        <time>2024-12-16T19:44:35Z</time>
      </trkpt>
      <trkpt lat="46.67158" lon="-1.78083">
        <ele>41</ele>
        <time>2024-12-16T19:44:40Z</time>
      </trkpt>
      <trkpt lat="46.67153" lon="-1.77981">
        <ele>41</ele>
        <time>2024-12-16T19:44:52Z</time>
      </trkpt>
      <trkpt lat="46.67148" lon="-1.77955">
        <ele>42</ele>
        <time>2024-12-16T19:44:56Z</time>
      </trkpt>
      <trkpt lat="46.67141" lon="-1.77933">
        <ele>42</ele>
        <time>2024-12-16T19:44:59Z</time>
      </trkpt>
      <trkpt lat="46.67092" lon="-1.77828">
        <ele>43</ele>
        <time>2024-12-16T19:45:14Z</time>
      </trkpt>
      <trkpt lat="46.6707" lon="-1.77783">
        <ele>44</ele>
        <time>2024-12-16T19:45:21Z</time>
      </trkpt>
      <trkpt lat="46.67004" lon="-1.77647">
        <ele>45</ele>
        <time>2024-12-16T19:45:41Z</time>
      </trkpt>
      <trkpt lat="46.66978" lon="-1.77592">
        <ele>46</ele>
        <time>2024-12-16T19:45:49Z</time>
      </trkpt>
      <trkpt lat="46.66957" lon="-1.77549">
        <ele>46</ele>
        <time>2024-12-16T19:45:56Z</time>
      </trkpt>
      <trkpt lat="46.66955" lon="-1.77532">
        <ele>47</ele>
        <time>2024-12-16T19:45:58Z</time>
      </trkpt>
      <trkpt lat="46.66956" lon="-1.77512">
        <ele>47</ele>
        <time>2024-12-16T19:46:00Z</time>
      </trkpt>
      <trkpt lat="46.66988" lon="-1.77389">
        <ele>47</ele>
        <time>2024-12-16T19:46:16Z</time>
      </trkpt>
      <trkpt lat="46.67007" lon="-1.77313">
        <ele>48</ele>
        <time>2024-12-16T19:46:26Z</time>
      </trkpt>
      <trkpt lat="46.6704" lon="-1.77136">
        <ele>50</ele>
        <time>2024-12-16T19:46:49Z</time>
      </trkpt>
      <trkpt lat="46.67049" lon="-1.77071">
        <ele>51</ele>
        <time>2024-12-16T19:46:57Z</time>
      </trkpt>
      <trkpt lat="46.67049" lon="-1.77071">
        <ele>51</ele>
        <time>2024-12-16T19:46:57Z</time>
      </trkpt>
      <trkpt lat="46.67049" lon="-1.77071">
        <ele>51</ele>
        <time>2024-12-16T19:46:57Z</time>
      </trkpt>
      <trkpt lat="46.67066" lon="-1.76949">
        <ele>52</ele>
        <time>2024-12-16T19:47:12Z</time>
      </trkpt>
      <trkpt lat="46.67104" lon="-1.76765">
        <ele>52</ele>
        <time>2024-12-16T19:47:35Z</time>
      </trkpt>
      <trkpt lat="46.67108" lon="-1.76736">
        <ele>52</ele>
        <time>2024-12-16T19:47:39Z</time>
      </trkpt>
      <trkpt lat="46.6712" lon="-1.76614">
        <ele>50</ele>
        <time>2024-12-16T19:47:54Z</time>
      </trkpt>
      <trkpt lat="46.67124" lon="-1.76584">
        <ele>50</ele>
        <time>2024-12-16T19:47:58Z</time>
      </trkpt>
      <trkpt lat="46.67147" lon="-1.76497">
        <ele>50</ele>
        <time>2024-12-16T19:48:09Z</time>
      </trkpt>
      <trkpt lat="46.67171" lon="-1.76404">
        <ele>50</ele>
        <time>2024-12-16T19:48:21Z</time>
      </trkpt>
      <trkpt lat="46.67183" lon="-1.76373">
        <ele>51</ele>
        <time>2024-12-16T19:48:26Z</time>
      </trkpt>
      <trkpt lat="46.67227" lon="-1.76279">
        <ele>51</ele>
        <time>2024-12-16T19:48:39Z</time>
      </trkpt>
      <trkpt lat="46.67254" lon="-1.76216">
        <ele>51</ele>
        <time>2024-12-16T19:48:49Z</time>
      </trkpt>
      <trkpt lat="46.67266" lon="-1.76182">
        <ele>52</ele>
        <time>2024-12-16T19:48:53Z</time>
      </trkpt>
      <trkpt lat="46.67273" lon="-1.76149">
        <ele>52</ele>
        <time>2024-12-16T19:48:57Z</time>
      </trkpt>
      <trkpt lat="46.67288" lon="-1.76021">
        <ele>52</ele>
        <time>2024-12-16T19:49:13Z</time>
      </trkpt>
      <trkpt lat="46.67302" lon="-1.75864">
        <ele>52</ele>
        <time>2024-12-16T19:49:33Z</time>
      </trkpt>
      <trkpt lat="46.673" lon="-1.75865">
        <ele>52</ele>
        <time>2024-12-16T19:49:33Z</time>
      </trkpt>
      <trkpt lat="46.67302" lon="-1.75864">
        <ele>52</ele>
        <time>2024-12-16T19:49:33Z</time>
      </trkpt>
      <trkpt lat="46.67301" lon="-1.75842">
        <ele>52</ele>
        <time>2024-12-16T19:49:36Z</time>
      </trkpt>
      <trkpt lat="46.67299" lon="-1.75818">
        <ele>52</ele>
        <time>2024-12-16T19:49:39Z</time>
      </trkpt>
      <trkpt lat="46.67285" lon="-1.75755">
        <ele>52</ele>
        <time>2024-12-16T19:49:47Z</time>
      </trkpt>
      <trkpt lat="46.67249" lon="-1.75506">
        <ele>51</ele>
        <time>2024-12-16T19:50:18Z</time>
      </trkpt>
      <trkpt lat="46.67225" lon="-1.75398">
        <ele>51</ele>
        <time>2024-12-16T19:50:32Z</time>
      </trkpt>
      <trkpt lat="46.67223" lon="-1.75379">
        <ele>52</ele>
        <time>2024-12-16T19:50:34Z</time>
      </trkpt>
      <trkpt lat="46.67224" lon="-1.75328">
        <ele>53</ele>
        <time>2024-12-16T19:50:41Z</time>
      </trkpt>
      <trkpt lat="46.67225" lon="-1.7522">
        <ele>54</ele>
        <time>2024-12-16T19:50:54Z</time>
      </trkpt>
      <trkpt lat="46.67226" lon="-1.75207">
        <ele>54</ele>
        <time>2024-12-16T19:50:55Z</time>
      </trkpt>
      <trkpt lat="46.67233" lon="-1.75182">
        <ele>54</ele>
        <time>2024-12-16T19:50:59Z</time>
      </trkpt>
      <trkpt lat="46.67242" lon="-1.75165">
        <ele>54</ele>
        <time>2024-12-16T19:51:01Z</time>
      </trkpt>
      <trkpt lat="46.67281" lon="-1.75106">
        <ele>54</ele>
        <time>2024-12-16T19:51:11Z</time>
      </trkpt>
      <trkpt lat="46.67299" lon="-1.75079">
        <ele>55</ele>
        <time>2024-12-16T19:51:16Z</time>
      </trkpt>
      <trkpt lat="46.67305" lon="-1.75068">
        <ele>55</ele>
        <time>2024-12-16T19:51:18Z</time>
      </trkpt>
      <trkpt lat="46.67317" lon="-1.75013">
        <ele>55</ele>
        <time>2024-12-16T19:51:25Z</time>
      </trkpt>
      <trkpt lat="46.67321" lon="-1.75001">
        <ele>56</ele>
        <time>2024-12-16T19:51:26Z</time>
      </trkpt>
      <trkpt lat="46.6733" lon="-1.74979">
        <ele>56</ele>
        <time>2024-12-16T19:51:29Z</time>
      </trkpt>
      <trkpt lat="46.67342" lon="-1.74934">
        <ele>56</ele>
        <time>2024-12-16T19:51:35Z</time>
      </trkpt>
      <trkpt lat="46.67352" lon="-1.74896">
        <ele>56</ele>
        <time>2024-12-16T19:51:40Z</time>
      </trkpt>
      <trkpt lat="46.67377" lon="-1.74843">
        <ele>56</ele>
        <time>2024-12-16T19:51:48Z</time>
      </trkpt>
      <trkpt lat="46.67405" lon="-1.74787">
        <ele>56</ele>
        <time>2024-12-16T19:51:57Z</time>
      </trkpt>
      <trkpt lat="46.67443" lon="-1.74716">
        <ele>57</ele>
        <time>2024-12-16T19:52:08Z</time>
      </trkpt>
      <trkpt lat="46.67478" lon="-1.74649">
        <ele>58</ele>
        <time>2024-12-16T19:52:18Z</time>
      </trkpt>
      <trkpt lat="46.67498" lon="-1.74599">
        <ele>58</ele>
        <time>2024-12-16T19:52:25Z</time>
      </trkpt>
      <trkpt lat="46.6752" lon="-1.74527">
        <ele>56</ele>
        <time>2024-12-16T19:52:35Z</time>
      </trkpt>
      <trkpt lat="46.67532" lon="-1.74489">
        <ele>56</ele>
        <time>2024-12-16T19:52:40Z</time>
      </trkpt>
      <trkpt lat="46.67534" lon="-1.74477">
        <ele>56</ele>
        <time>2024-12-16T19:52:41Z</time>
      </trkpt>
      <trkpt lat="46.67542" lon="-1.74429">
        <ele>56</ele>
        <time>2024-12-16T19:52:47Z</time>
      </trkpt>
      <trkpt lat="46.67548" lon="-1.74378">
        <ele>56</ele>
        <time>2024-12-16T19:52:54Z</time>
      </trkpt>
      <trkpt lat="46.67551" lon="-1.7434">
        <ele>55</ele>
        <time>2024-12-16T19:52:58Z</time>
      </trkpt>
      <trkpt lat="46.67549" lon="-1.74215">
        <ele>56</ele>
        <time>2024-12-16T19:53:13Z</time>
      </trkpt>
      <trkpt lat="46.67552" lon="-1.74146">
        <ele>56</ele>
        <time>2024-12-16T19:53:22Z</time>
      </trkpt>
      <trkpt lat="46.67558" lon="-1.74068">
        <ele>56</ele>
        <time>2024-12-16T19:53:31Z</time>
      </trkpt>
      <trkpt lat="46.67569" lon="-1.73996">
        <ele>56</ele>
        <time>2024-12-16T19:53:40Z</time>
      </trkpt>
      <trkpt lat="46.67583" lon="-1.73938">
        <ele>57</ele>
        <time>2024-12-16T19:53:48Z</time>
      </trkpt>
      <trkpt lat="46.6763" lon="-1.73763">
        <ele>56</ele>
        <time>2024-12-16T19:54:11Z</time>
      </trkpt>
      <trkpt lat="46.67647" lon="-1.73721">
        <ele>55</ele>
        <time>2024-12-16T19:54:17Z</time>
      </trkpt>
      <trkpt lat="46.67665" lon="-1.73686">
        <ele>55</ele>
        <time>2024-12-16T19:54:22Z</time>
      </trkpt>
      <trkpt lat="46.67745" lon="-1.73559">
        <ele>56</ele>
        <time>2024-12-16T19:54:43Z</time>
      </trkpt>
      <trkpt lat="46.6778" lon="-1.7349">
        <ele>57</ele>
        <time>2024-12-16T19:54:54Z</time>
      </trkpt>
      <trkpt lat="46.67788" lon="-1.73476">
        <ele>56</ele>
        <time>2024-12-16T19:54:56Z</time>
      </trkpt>
      <trkpt lat="46.67819" lon="-1.73418">
        <ele>55</ele>
        <time>2024-12-16T19:55:05Z</time>
      </trkpt>
      <trkpt lat="46.67837" lon="-1.73391">
        <ele>54</ele>
        <time>2024-12-16T19:55:10Z</time>
      </trkpt>
      <trkpt lat="46.67979" lon="-1.7321">
        <ele>56</ele>
        <time>2024-12-16T19:55:43Z</time>
      </trkpt>
      <trkpt lat="46.68008" lon="-1.73169">
        <ele>57</ele>
        <time>2024-12-16T19:55:50Z</time>
      </trkpt>
      <trkpt lat="46.68026" lon="-1.73139">
        <ele>57</ele>
        <time>2024-12-16T19:55:55Z</time>
      </trkpt>
      <trkpt lat="46.68039" lon="-1.73113">
        <ele>57</ele>
        <time>2024-12-16T19:55:59Z</time>
      </trkpt>
      <trkpt lat="46.6804" lon="-1.7311">
        <ele>57</ele>
        <time>2024-12-16T19:55:59Z</time>
      </trkpt>
      <trkpt lat="46.68053" lon="-1.73082">
        <ele>57</ele>
        <time>2024-12-16T19:56:04Z</time>
      </trkpt>
      <trkpt lat="46.68251" lon="-1.72658">
        <ele>56</ele>
        <time>2024-12-16T19:57:06Z</time>
      </trkpt>
      <trkpt lat="46.68272" lon="-1.7261">
        <ele>56</ele>
        <time>2024-12-16T19:57:13Z</time>
      </trkpt>
      <trkpt lat="46.68277" lon="-1.72575">
        <ele>57</ele>
        <time>2024-12-16T19:57:18Z</time>
      </trkpt>
      <trkpt lat="46.68284" lon="-1.72551">
        <ele>57</ele>
        <time>2024-12-16T19:57:21Z</time>
      </trkpt>
      <trkpt lat="46.68289" lon="-1.72528">
        <ele>57</ele>
        <time>2024-12-16T19:57:24Z</time>
      </trkpt>
      <trkpt lat="46.68319" lon="-1.72376">
        <ele>56</ele>
        <time>2024-12-16T19:57:43Z</time>
      </trkpt>
      <trkpt lat="46.68328" lon="-1.72325">
        <ele>56</ele>
        <time>2024-12-16T19:57:49Z</time>
      </trkpt>
      <trkpt lat="46.68329" lon="-1.72305">
        <ele>56</ele>
        <time>2024-12-16T19:57:52Z</time>
      </trkpt>
      <trkpt lat="46.68332" lon="-1.72292">
        <ele>56</ele>
        <time>2024-12-16T19:57:54Z</time>
      </trkpt>
      <trkpt lat="46.68348" lon="-1.72248">
        <ele>57</ele>
        <time>2024-12-16T19:58:00Z</time>
      </trkpt>
      <trkpt lat="46.6836" lon="-1.72215">
        <ele>58</ele>
        <time>2024-12-16T19:58:04Z</time>
      </trkpt>
      <trkpt lat="46.68386" lon="-1.72145">
        <ele>59</ele>
        <time>2024-12-16T19:58:14Z</time>
      </trkpt>
      <trkpt lat="46.68409" lon="-1.72076">
        <ele>60</ele>
        <time>2024-12-16T19:58:23Z</time>
      </trkpt>
      <trkpt lat="46.68416" lon="-1.72047">
        <ele>61</ele>
        <time>2024-12-16T19:58:27Z</time>
      </trkpt>
      <trkpt lat="46.68418" lon="-1.72034">
        <ele>61</ele>
        <time>2024-12-16T19:58:29Z</time>
      </trkpt>
      <trkpt lat="46.6838" lon="-1.72028">
        <ele>60</ele>
        <time>2024-12-16T19:58:35Z</time>
      </trkpt>
      <trkpt lat="46.68298" lon="-1.72002">
        <ele>58</ele>
        <time>2024-12-16T19:58:50Z</time>
      </trkpt>
      <trkpt lat="46.68247" lon="-1.71983">
        <ele>55</ele>
        <time>2024-12-16T19:59:00Z</time>
      </trkpt>
      <trkpt lat="46.68258" lon="-1.71922">
        <ele>54</ele>
        <time>2024-12-16T19:59:07Z</time>
      </trkpt>
      <trkpt lat="46.68254" lon="-1.71919">
        <ele>54</ele>
        <time>2024-12-16T19:59:08Z</time>
      </trkpt>
      <trkpt lat="46.68259" lon="-1.71901">
        <ele>54</ele>
        <time>2024-12-16T19:59:11Z</time>
      </trkpt>
      <trkpt lat="46.68263" lon="-1.71878">
        <ele>53</ele>
        <time>2024-12-16T19:59:13Z</time>
      </trkpt>
      <trkpt lat="46.68359" lon="-1.71251">
        <ele>53</ele>
        <time>2024-12-16T20:00:32Z</time>
      </trkpt>
      <trkpt lat="46.68362" lon="-1.71232">
        <ele>53</ele>
        <time>2024-12-16T20:00:34Z</time>
      </trkpt>
      <trkpt lat="46.68378" lon="-1.71012">
        <ele>53</ele>
        <time>2024-12-16T20:01:01Z</time>
      </trkpt>
      <trkpt lat="46.68377" lon="-1.70926">
        <ele>52</ele>
        <time>2024-12-16T20:01:12Z</time>
      </trkpt>
      <trkpt lat="46.68372" lon="-1.70872">
        <ele>51</ele>
        <time>2024-12-16T20:01:18Z</time>
      </trkpt>
      <trkpt lat="46.68369" lon="-1.70858">
        <ele>51</ele>
        <time>2024-12-16T20:01:20Z</time>
      </trkpt>
      <trkpt lat="46.68363" lon="-1.70824">
        <ele>50</ele>
        <time>2024-12-16T20:01:25Z</time>
      </trkpt>
      <trkpt lat="46.68263" lon="-1.70416">
        <ele>44</ele>
        <time>2024-12-16T20:02:17Z</time>
      </trkpt>
      <trkpt lat="46.68256" lon="-1.70364">
        <ele>42</ele>
        <time>2024-12-16T20:02:24Z</time>
      </trkpt>
      <trkpt lat="46.68254" lon="-1.70319">
        <ele>41</ele>
        <time>2024-12-16T20:02:29Z</time>
      </trkpt>
      <trkpt lat="46.68253" lon="-1.70175">
        <ele>37</ele>
        <time>2024-12-16T20:02:47Z</time>
      </trkpt>
      <trkpt lat="46.68252" lon="-1.70147">
        <ele>36</ele>
        <time>2024-12-16T20:02:50Z</time>
      </trkpt>
      <trkpt lat="46.68244" lon="-1.70094">
        <ele>35</ele>
        <time>2024-12-16T20:02:57Z</time>
      </trkpt>
      <trkpt lat="46.68238" lon="-1.70078">
        <ele>35</ele>
        <time>2024-12-16T20:02:59Z</time>
      </trkpt>
      <trkpt lat="46.68218" lon="-1.70042">
        <ele>36</ele>
        <time>2024-12-16T20:03:05Z</time>
      </trkpt>
      <trkpt lat="46.68126" lon="-1.69933">
        <ele>35</ele>
        <time>2024-12-16T20:03:26Z</time>
      </trkpt>
      <trkpt lat="46.6812" lon="-1.69918">
        <ele>35</ele>
        <time>2024-12-16T20:03:28Z</time>
      </trkpt>
      <trkpt lat="46.68104" lon="-1.6988">
        <ele>34</ele>
        <time>2024-12-16T20:03:34Z</time>
      </trkpt>
      <trkpt lat="46.68095" lon="-1.69846">
        <ele>34</ele>
        <time>2024-12-16T20:03:38Z</time>
      </trkpt>
      <trkpt lat="46.68065" lon="-1.69701">
        <ele>28</ele>
        <time>2024-12-16T20:03:56Z</time>
      </trkpt>
      <trkpt lat="46.68058" lon="-1.69644">
        <ele>26</ele>
        <time>2024-12-16T20:04:04Z</time>
      </trkpt>
      <trkpt lat="46.68053" lon="-1.69576">
        <ele>24</ele>
        <time>2024-12-16T20:04:12Z</time>
      </trkpt>
      <trkpt lat="46.68044" lon="-1.69305">
        <ele>26</ele>
        <time>2024-12-16T20:04:45Z</time>
      </trkpt>
      <trkpt lat="46.6804" lon="-1.69131">
        <ele>25</ele>
        <time>2024-12-16T20:05:06Z</time>
      </trkpt>
      <trkpt lat="46.68042" lon="-1.69099">
        <ele>25</ele>
        <time>2024-12-16T20:05:10Z</time>
      </trkpt>
      <trkpt lat="46.68055" lon="-1.69002">
        <ele>27</ele>
        <time>2024-12-16T20:05:22Z</time>
      </trkpt>
      <trkpt lat="46.68062" lon="-1.68945">
        <ele>27</ele>
        <time>2024-12-16T20:05:29Z</time>
      </trkpt>
      <trkpt lat="46.68063" lon="-1.68904">
        <ele>26</ele>
        <time>2024-12-16T20:05:34Z</time>
      </trkpt>
      <trkpt lat="46.68061" lon="-1.6887">
        <ele>25</ele>
        <time>2024-12-16T20:05:38Z</time>
      </trkpt>
      <trkpt lat="46.68059" lon="-1.68843">
        <ele>24</ele>
        <time>2024-12-16T20:05:42Z</time>
      </trkpt>
      <trkpt lat="46.68051" lon="-1.68809">
        <ele>23</ele>
        <time>2024-12-16T20:05:46Z</time>
      </trkpt>
      <trkpt lat="46.68053" lon="-1.68806">
        <ele>23</ele>
        <time>2024-12-16T20:05:47Z</time>
      </trkpt>
      <trkpt lat="46.68051" lon="-1.68809">
        <ele>23</ele>
        <time>2024-12-16T20:05:47Z</time>
      </trkpt>
      <trkpt lat="46.68043" lon="-1.68799">
        <ele>23</ele>
        <time>2024-12-16T20:05:49Z</time>
      </trkpt>
      <trkpt lat="46.68015" lon="-1.68778">
        <ele>21</ele>
        <time>2024-12-16T20:05:55Z</time>
      </trkpt>
      <trkpt lat="46.67949" lon="-1.68745">
        <ele>22</ele>
        <time>2024-12-16T20:06:07Z</time>
      </trkpt>
      <trkpt lat="46.67921" lon="-1.68731">
        <ele>23</ele>
        <time>2024-12-16T20:06:12Z</time>
      </trkpt>
      <trkpt lat="46.67857" lon="-1.68698">
        <ele>25</ele>
        <time>2024-12-16T20:06:24Z</time>
      </trkpt>
      <trkpt lat="46.67852" lon="-1.68696">
        <ele>25</ele>
        <time>2024-12-16T20:06:25Z</time>
      </trkpt>
      <trkpt lat="46.6783" lon="-1.68681">
        <ele>25</ele>
        <time>2024-12-16T20:06:30Z</time>
      </trkpt>
      <trkpt lat="46.67813" lon="-1.68667">
        <ele>26</ele>
        <time>2024-12-16T20:06:33Z</time>
      </trkpt>
      <trkpt lat="46.678" lon="-1.68649">
        <ele>26</ele>
        <time>2024-12-16T20:06:36Z</time>
      </trkpt>
      <trkpt lat="46.67788" lon="-1.68623">
        <ele>26</ele>
        <time>2024-12-16T20:06:40Z</time>
      </trkpt>
      <trkpt lat="46.6778" lon="-1.68595">
        <ele>27</ele>
        <time>2024-12-16T20:06:44Z</time>
      </trkpt>
      <trkpt lat="46.67772" lon="-1.68554">
        <ele>26</ele>
        <time>2024-12-16T20:06:49Z</time>
      </trkpt>
      <trkpt lat="46.67761" lon="-1.68498">
        <ele>26</ele>
        <time>2024-12-16T20:06:56Z</time>
      </trkpt>
      <trkpt lat="46.6776" lon="-1.68491">
        <ele>26</ele>
        <time>2024-12-16T20:06:57Z</time>
      </trkpt>
      <trkpt lat="46.67759" lon="-1.68485">
        <ele>26</ele>
        <time>2024-12-16T20:06:58Z</time>
      </trkpt>
      <trkpt lat="46.67715" lon="-1.68244">
        <ele>25</ele>
        <time>2024-12-16T20:07:28Z</time>
      </trkpt>
      <trkpt lat="46.67709" lon="-1.68213">
        <ele>26</ele>
        <time>2024-12-16T20:07:32Z</time>
      </trkpt>
      <trkpt lat="46.67702" lon="-1.68175">
        <ele>27</ele>
        <time>2024-12-16T20:07:37Z</time>
      </trkpt>
      <trkpt lat="46.67701" lon="-1.68147">
        <ele>28</ele>
        <time>2024-12-16T20:07:40Z</time>
      </trkpt>
      <trkpt lat="46.67695" lon="-1.68125">
        <ele>29</ele>
        <time>2024-12-16T20:07:43Z</time>
      </trkpt>
      <trkpt lat="46.67668" lon="-1.68011">
        <ele>33</ele>
        <time>2024-12-16T20:07:58Z</time>
      </trkpt>
      <trkpt lat="46.67647" lon="-1.67913">
        <ele>35</ele>
        <time>2024-12-16T20:08:11Z</time>
      </trkpt>
      <trkpt lat="46.67636" lon="-1.67867">
        <ele>36</ele>
        <time>2024-12-16T20:08:17Z</time>
      </trkpt>
      <trkpt lat="46.67634" lon="-1.67852">
        <ele>36</ele>
        <time>2024-12-16T20:08:18Z</time>
      </trkpt>
      <trkpt lat="46.67633" lon="-1.67843">
        <ele>36</ele>
        <time>2024-12-16T20:08:20Z</time>
      </trkpt>
      <trkpt lat="46.67635" lon="-1.67829">
        <ele>36</ele>
        <time>2024-12-16T20:08:21Z</time>
      </trkpt>
      <trkpt lat="46.67625" lon="-1.67812">
        <ele>35</ele>
        <time>2024-12-16T20:08:24Z</time>
      </trkpt>
      <trkpt lat="46.67616" lon="-1.67802">
        <ele>34</ele>
        <time>2024-12-16T20:08:26Z</time>
      </trkpt>
      <trkpt lat="46.67607" lon="-1.67796">
        <ele>34</ele>
        <time>2024-12-16T20:08:28Z</time>
      </trkpt>
      <trkpt lat="46.67601" lon="-1.67795">
        <ele>34</ele>
        <time>2024-12-16T20:08:29Z</time>
      </trkpt>
      <trkpt lat="46.67571" lon="-1.67789">
        <ele>35</ele>
        <time>2024-12-16T20:08:34Z</time>
      </trkpt>
      <trkpt lat="46.6755" lon="-1.67783">
        <ele>34</ele>
        <time>2024-12-16T20:08:38Z</time>
      </trkpt>
      <trkpt lat="46.67518" lon="-1.67779">
        <ele>35</ele>
        <time>2024-12-16T20:08:44Z</time>
      </trkpt>
      <trkpt lat="46.67508" lon="-1.6777">
        <ele>34</ele>
        <time>2024-12-16T20:08:46Z</time>
      </trkpt>
      <trkpt lat="46.67503" lon="-1.67763">
        <ele>33</ele>
        <time>2024-12-16T20:08:47Z</time>
      </trkpt>
      <trkpt lat="46.675" lon="-1.67753">
        <ele>32</ele>
        <time>2024-12-16T20:08:48Z</time>
      </trkpt>
      <trkpt lat="46.67498" lon="-1.6773">
        <ele>31</ele>
        <time>2024-12-16T20:08:51Z</time>
      </trkpt>
      <trkpt lat="46.67498" lon="-1.67633">
        <ele>26</ele>
        <time>2024-12-16T20:09:03Z</time>
      </trkpt>
      <trkpt lat="46.67501" lon="-1.67588">
        <ele>27</ele>
        <time>2024-12-16T20:09:09Z</time>
      </trkpt>
      <trkpt lat="46.67506" lon="-1.67524">
        <ele>31</ele>
        <time>2024-12-16T20:09:16Z</time>
      </trkpt>
      <trkpt lat="46.67511" lon="-1.6748">
        <ele>34</ele>
        <time>2024-12-16T20:09:22Z</time>
      </trkpt>
      <trkpt lat="46.67532" lon="-1.67383">
        <ele>38</ele>
        <time>2024-12-16T20:09:34Z</time>
      </trkpt>
      <trkpt lat="46.67536" lon="-1.67363">
        <ele>39</ele>
        <time>2024-12-16T20:09:37Z</time>
      </trkpt>
      <trkpt lat="46.6754" lon="-1.6734">
        <ele>39</ele>
        <time>2024-12-16T20:09:40Z</time>
      </trkpt>
      <trkpt lat="46.67541" lon="-1.67336">
        <ele>39</ele>
        <time>2024-12-16T20:09:40Z</time>
      </trkpt>
      <trkpt lat="46.6758" lon="-1.67131">
        <ele>41</ele>
        <time>2024-12-16T20:10:06Z</time>
      </trkpt>
      <trkpt lat="46.6759" lon="-1.67065">
        <ele>42</ele>
        <time>2024-12-16T20:10:15Z</time>
      </trkpt>
      <trkpt lat="46.67606" lon="-1.66921">
        <ele>42</ele>
        <time>2024-12-16T20:10:32Z</time>
      </trkpt>
      <trkpt lat="46.67609" lon="-1.6688">
        <ele>42</ele>
        <time>2024-12-16T20:10:37Z</time>
      </trkpt>
      <trkpt lat="46.67587" lon="-1.66428">
        <ele>40</ele>
        <time>2024-12-16T20:11:33Z</time>
      </trkpt>
      <trkpt lat="46.6758" lon="-1.66251">
        <ele>42</ele>
        <time>2024-12-16T20:11:54Z</time>
      </trkpt>
      <trkpt lat="46.67569" lon="-1.65976">
        <ele>46</ele>
        <time>2024-12-16T20:12:28Z</time>
      </trkpt>
      <trkpt lat="46.67556" lon="-1.65754">
        <ele>47</ele>
        <time>2024-12-16T20:12:55Z</time>
      </trkpt>
      <trkpt lat="46.67556" lon="-1.65748">
        <ele>47</ele>
        <time>2024-12-16T20:12:56Z</time>
      </trkpt>
      <trkpt lat="46.67535" lon="-1.65414">
        <ele>45</ele>
        <time>2024-12-16T20:13:37Z</time>
      </trkpt>
      <trkpt lat="46.67517" lon="-1.65188">
        <ele>46</ele>
        <time>2024-12-16T20:14:05Z</time>
      </trkpt>
      <trkpt lat="46.67512" lon="-1.65137">
        <ele>46</ele>
        <time>2024-12-16T20:14:11Z</time>
      </trkpt>
      <trkpt lat="46.67501" lon="-1.65016">
        <ele>48</ele>
        <time>2024-12-16T20:14:26Z</time>
      </trkpt>
      <trkpt lat="46.67496" lon="-1.64981">
        <ele>48</ele>
        <time>2024-12-16T20:14:30Z</time>
      </trkpt>
      <trkpt lat="46.6749" lon="-1.64951">
        <ele>48</ele>
        <time>2024-12-16T20:14:34Z</time>
      </trkpt>
      <trkpt lat="46.67482" lon="-1.64924">
        <ele>48</ele>
        <time>2024-12-16T20:14:38Z</time>
      </trkpt>
      <trkpt lat="46.6747" lon="-1.64895">
        <ele>47</ele>
        <time>2024-12-16T20:14:42Z</time>
      </trkpt>
      <trkpt lat="46.67448" lon="-1.64856">
        <ele>46</ele>
        <time>2024-12-16T20:14:48Z</time>
      </trkpt>
      <trkpt lat="46.6738" lon="-1.6475">
        <ele>43</ele>
        <time>2024-12-16T20:15:06Z</time>
      </trkpt>
      <trkpt lat="46.67336" lon="-1.64678">
        <ele>41</ele>
        <time>2024-12-16T20:15:17Z</time>
      </trkpt>
      <trkpt lat="46.67317" lon="-1.64642">
        <ele>40</ele>
        <time>2024-12-16T20:15:23Z</time>
      </trkpt>
      <trkpt lat="46.67294" lon="-1.6459">
        <ele>39</ele>
        <time>2024-12-16T20:15:30Z</time>
      </trkpt>
      <trkpt lat="46.67277" lon="-1.64537">
        <ele>38</ele>
        <time>2024-12-16T20:15:38Z</time>
      </trkpt>
      <trkpt lat="46.67268" lon="-1.64503">
        <ele>38</ele>
        <time>2024-12-16T20:15:42Z</time>
      </trkpt>
      <trkpt lat="46.67257" lon="-1.64433">
        <ele>39</ele>
        <time>2024-12-16T20:15:51Z</time>
      </trkpt>
      <trkpt lat="46.67253" lon="-1.64368">
        <ele>40</ele>
        <time>2024-12-16T20:15:59Z</time>
      </trkpt>
      <trkpt lat="46.67252" lon="-1.64331">
        <ele>41</ele>
        <time>2024-12-16T20:16:03Z</time>
      </trkpt>
      <trkpt lat="46.67255" lon="-1.6429">
        <ele>42</ele>
        <time>2024-12-16T20:16:08Z</time>
      </trkpt>
      <trkpt lat="46.67261" lon="-1.64249">
        <ele>44</ele>
        <time>2024-12-16T20:16:13Z</time>
      </trkpt>
      <trkpt lat="46.67273" lon="-1.64187">
        <ele>45</ele>
        <time>2024-12-16T20:16:21Z</time>
      </trkpt>
      <trkpt lat="46.67289" lon="-1.6413">
        <ele>48</ele>
        <time>2024-12-16T20:16:29Z</time>
      </trkpt>
      <trkpt lat="46.67297" lon="-1.64112">
        <ele>49</ele>
        <time>2024-12-16T20:16:31Z</time>
      </trkpt>
      <trkpt lat="46.67301" lon="-1.64102">
        <ele>50</ele>
        <time>2024-12-16T20:16:33Z</time>
      </trkpt>
      <trkpt lat="46.67311" lon="-1.64077">
        <ele>52</ele>
        <time>2024-12-16T20:16:36Z</time>
      </trkpt>
      <trkpt lat="46.67325" lon="-1.64049">
        <ele>54</ele>
        <time>2024-12-16T20:16:41Z</time>
      </trkpt>
      <trkpt lat="46.67343" lon="-1.64019">
        <ele>56</ele>
        <time>2024-12-16T20:16:45Z</time>
      </trkpt>
      <trkpt lat="46.67355" lon="-1.63999">
        <ele>57</ele>
        <time>2024-12-16T20:16:49Z</time>
      </trkpt>
      <trkpt lat="46.67356" lon="-1.63996">
        <ele>57</ele>
        <time>2024-12-16T20:16:49Z</time>
      </trkpt>
      <trkpt lat="46.67381" lon="-1.63956">
        <ele>57</ele>
        <time>2024-12-16T20:16:56Z</time>
      </trkpt>
      <trkpt lat="46.67381" lon="-1.63955">
        <ele>57</ele>
        <time>2024-12-16T20:16:56Z</time>
      </trkpt>
      <trkpt lat="46.67386" lon="-1.63948">
        <ele>58</ele>
        <time>2024-12-16T20:16:57Z</time>
      </trkpt>
      <trkpt lat="46.67387" lon="-1.63945">
        <ele>58</ele>
        <time>2024-12-16T20:16:58Z</time>
      </trkpt>
      <trkpt lat="46.67394" lon="-1.63935">
        <ele>58</ele>
        <time>2024-12-16T20:16:59Z</time>
      </trkpt>
      <trkpt lat="46.67387" lon="-1.63945">
        <ele>58</ele>
        <time>2024-12-16T20:17:01Z</time>
      </trkpt>
      <trkpt lat="46.67388" lon="-1.63947">
        <ele>58</ele>
        <time>2024-12-16T20:17:01Z</time>
      </trkpt>
      <trkpt lat="46.67388" lon="-1.63948">
        <ele>58</ele>
        <time>2024-12-16T20:17:01Z</time>
      </trkpt>
      <trkpt lat="46.67389" lon="-1.63948">
        <ele>58</ele>
        <time>2024-12-16T20:17:02Z</time>
      </trkpt>
      <trkpt lat="46.67388" lon="-1.63948">
        <ele>58</ele>
        <time>2024-12-16T20:17:02Z</time>
      </trkpt>
      <trkpt lat="46.67388" lon="-1.63947">
        <ele>58</ele>
        <time>2024-12-16T20:17:02Z</time>
      </trkpt>
      <trkpt lat="46.67387" lon="-1.63945">
        <ele>58</ele>
        <time>2024-12-16T20:17:02Z</time>
      </trkpt>
      <trkpt lat="46.67386" lon="-1.63948">
        <ele>58</ele>
        <time>2024-12-16T20:17:03Z</time>
      </trkpt>
      <trkpt lat="46.67381" lon="-1.63955">
        <ele>57</ele>
        <time>2024-12-16T20:17:04Z</time>
      </trkpt>
      <trkpt lat="46.67381" lon="-1.63956">
        <ele>57</ele>
        <time>2024-12-16T20:17:04Z</time>
      </trkpt>
      <trkpt lat="46.67381" lon="-1.63955">
        <ele>57</ele>
        <time>2024-12-16T20:17:04Z</time>
      </trkpt>
      <trkpt lat="46.67386" lon="-1.63948">
        <ele>58</ele>
        <time>2024-12-16T20:17:05Z</time>
      </trkpt>
      <trkpt lat="46.67387" lon="-1.63945">
        <ele>58</ele>
        <time>2024-12-16T20:17:06Z</time>
      </trkpt>
      <trkpt lat="46.67388" lon="-1.63947">
        <ele>58</ele>
        <time>2024-12-16T20:17:06Z</time>
      </trkpt>
      <trkpt lat="46.67388" lon="-1.63948">
        <ele>58</ele>
        <time>2024-12-16T20:17:06Z</time>
      </trkpt>
      <trkpt lat="46.67388" lon="-1.63947">
        <ele>58</ele>
        <time>2024-12-16T20:17:06Z</time>
      </trkpt>
      <trkpt lat="46.67387" lon="-1.63945">
        <ele>58</ele>
        <time>2024-12-16T20:17:07Z</time>
      </trkpt>
      <trkpt lat="46.67394" lon="-1.63935">
        <ele>58</ele>
        <time>2024-12-16T20:17:08Z</time>
      </trkpt>
      <trkpt lat="46.67402" lon="-1.63921">
        <ele>58</ele>
        <time>2024-12-16T20:17:11Z</time>
      </trkpt>
      <trkpt lat="46.67394" lon="-1.63935">
        <ele>58</ele>
        <time>2024-12-16T20:17:13Z</time>
      </trkpt>
      <trkpt lat="46.67387" lon="-1.63945">
        <ele>58</ele>
        <time>2024-12-16T20:17:15Z</time>
      </trkpt>
      <trkpt lat="46.67386" lon="-1.63948">
        <ele>58</ele>
        <time>2024-12-16T20:17:15Z</time>
      </trkpt>
      <trkpt lat="46.67381" lon="-1.63955">
        <ele>57</ele>
        <time>2024-12-16T20:17:16Z</time>
      </trkpt>
      <trkpt lat="46.67381" lon="-1.63956">
        <ele>57</ele>
        <time>2024-12-16T20:17:16Z</time>
      </trkpt>
      <trkpt lat="46.67356" lon="-1.63996">
        <ele>57</ele>
        <time>2024-12-16T20:17:23Z</time>
      </trkpt>
      <trkpt lat="46.67355" lon="-1.63999">
        <ele>57</ele>
        <time>2024-12-16T20:17:23Z</time>
      </trkpt>
      <trkpt lat="46.67343" lon="-1.64019">
        <ele>56</ele>
        <time>2024-12-16T20:17:27Z</time>
      </trkpt>
      <trkpt lat="46.67325" lon="-1.64049">
        <ele>54</ele>
        <time>2024-12-16T20:17:31Z</time>
      </trkpt>
      <trkpt lat="46.67311" lon="-1.64077">
        <ele>52</ele>
        <time>2024-12-16T20:17:36Z</time>
      </trkpt>
      <trkpt lat="46.67301" lon="-1.64102">
        <ele>50</ele>
        <time>2024-12-16T20:17:39Z</time>
      </trkpt>
      <trkpt lat="46.67311" lon="-1.64077">
        <ele>52</ele>
        <time>2024-12-16T20:17:43Z</time>
      </trkpt>
      <trkpt lat="46.67325" lon="-1.64049">
        <ele>54</ele>
        <time>2024-12-16T20:17:47Z</time>
      </trkpt>
      <trkpt lat="46.67343" lon="-1.64019">
        <ele>56</ele>
        <time>2024-12-16T20:17:52Z</time>
      </trkpt>
      <trkpt lat="46.67355" lon="-1.63999">
        <ele>57</ele>
        <time>2024-12-16T20:17:55Z</time>
      </trkpt>
      <trkpt lat="46.67356" lon="-1.63996">
        <ele>57</ele>
        <time>2024-12-16T20:17:55Z</time>
      </trkpt>
      <trkpt lat="46.67381" lon="-1.63956">
        <ele>57</ele>
        <time>2024-12-16T20:18:02Z</time>
      </trkpt>
      <trkpt lat="46.67381" lon="-1.63955">
        <ele>57</ele>
        <time>2024-12-16T20:18:02Z</time>
      </trkpt>
      <trkpt lat="46.67386" lon="-1.63948">
        <ele>58</ele>
        <time>2024-12-16T20:18:03Z</time>
      </trkpt>
      <trkpt lat="46.67387" lon="-1.63945">
        <ele>58</ele>
        <time>2024-12-16T20:18:04Z</time>
      </trkpt>
      <trkpt lat="46.67388" lon="-1.63947">
        <ele>58</ele>
        <time>2024-12-16T20:18:04Z</time>
      </trkpt>
      <trkpt lat="46.67387" lon="-1.63945">
        <ele>58</ele>
        <time>2024-12-16T20:18:04Z</time>
      </trkpt>
      <trkpt lat="46.67394" lon="-1.63935">
        <ele>58</ele>
        <time>2024-12-16T20:18:06Z</time>
      </trkpt>
      <trkpt lat="46.67402" lon="-1.63921">
        <ele>58</ele>
        <time>2024-12-16T20:18:08Z</time>
      </trkpt>
      <trkpt lat="46.6762" lon="-1.63563">
        <ele>43</ele>
        <time>2024-12-16T20:19:07Z</time>
      </trkpt>
      <trkpt lat="46.67636" lon="-1.63531">
        <ele>42</ele>
        <time>2024-12-16T20:19:12Z</time>
      </trkpt>
      <trkpt lat="46.67655" lon="-1.63488">
        <ele>41</ele>
        <time>2024-12-16T20:19:18Z</time>
      </trkpt>
      <trkpt lat="46.67666" lon="-1.63456">
        <ele>41</ele>
        <time>2024-12-16T20:19:22Z</time>
      </trkpt>
      <trkpt lat="46.67676" lon="-1.63415">
        <ele>41</ele>
        <time>2024-12-16T20:19:28Z</time>
      </trkpt>
      <trkpt lat="46.67706" lon="-1.63273">
        <ele>45</ele>
        <time>2024-12-16T20:19:46Z</time>
      </trkpt>
      <trkpt lat="46.67712" lon="-1.63244">
        <ele>45</ele>
        <time>2024-12-16T20:19:49Z</time>
      </trkpt>
      <trkpt lat="46.67714" lon="-1.63228">
        <ele>44</ele>
        <time>2024-12-16T20:19:51Z</time>
      </trkpt>
      <trkpt lat="46.67713" lon="-1.63212">
        <ele>44</ele>
        <time>2024-12-16T20:19:53Z</time>
      </trkpt>
      <trkpt lat="46.67701" lon="-1.63143">
        <ele>44</ele>
        <time>2024-12-16T20:20:02Z</time>
      </trkpt>
      <trkpt lat="46.67694" lon="-1.63117">
        <ele>44</ele>
        <time>2024-12-16T20:20:05Z</time>
      </trkpt>
      <trkpt lat="46.67683" lon="-1.63091">
        <ele>45</ele>
        <time>2024-12-16T20:20:09Z</time>
      </trkpt>
      <trkpt lat="46.67674" lon="-1.63068">
        <ele>46</ele>
        <time>2024-12-16T20:20:12Z</time>
      </trkpt>
      <trkpt lat="46.67634" lon="-1.62991">
        <ele>45</ele>
        <time>2024-12-16T20:20:24Z</time>
      </trkpt>
      <trkpt lat="46.67618" lon="-1.62953">
        <ele>44</ele>
        <time>2024-12-16T20:20:30Z</time>
      </trkpt>
      <trkpt lat="46.67609" lon="-1.62923">
        <ele>43</ele>
        <time>2024-12-16T20:20:34Z</time>
      </trkpt>
      <trkpt lat="46.67607" lon="-1.62898">
        <ele>42</ele>
        <time>2024-12-16T20:20:37Z</time>
      </trkpt>
      <trkpt lat="46.67608" lon="-1.62876">
        <ele>40</ele>
        <time>2024-12-16T20:20:39Z</time>
      </trkpt>
      <trkpt lat="46.6761" lon="-1.62853">
        <ele>39</ele>
        <time>2024-12-16T20:20:42Z</time>
      </trkpt>
      <trkpt lat="46.67611" lon="-1.62842">
        <ele>38</ele>
        <time>2024-12-16T20:20:44Z</time>
      </trkpt>
      <trkpt lat="46.67612" lon="-1.62833">
        <ele>37</ele>
        <time>2024-12-16T20:20:45Z</time>
      </trkpt>
      <trkpt lat="46.67612" lon="-1.62833">
        <ele>37</ele>
        <time>2024-12-16T20:20:45Z</time>
      </trkpt>
      <trkpt lat="46.67612" lon="-1.62828">
        <ele>37</ele>
        <time>2024-12-16T20:20:45Z</time>
      </trkpt>
      <trkpt lat="46.67616" lon="-1.62769">
        <ele>35</ele>
        <time>2024-12-16T20:20:53Z</time>
      </trkpt>
      <trkpt lat="46.67619" lon="-1.62719">
        <ele>35</ele>
        <time>2024-12-16T20:20:59Z</time>
      </trkpt>
      <trkpt lat="46.67625" lon="-1.62658">
        <ele>36</ele>
        <time>2024-12-16T20:21:06Z</time>
      </trkpt>
      <trkpt lat="46.67628" lon="-1.62644">
        <ele>37</ele>
        <time>2024-12-16T20:21:08Z</time>
      </trkpt>
      <trkpt lat="46.67646" lon="-1.62562">
        <ele>39</ele>
        <time>2024-12-16T20:21:19Z</time>
      </trkpt>
      <trkpt lat="46.6765" lon="-1.62546">
        <ele>39</ele>
        <time>2024-12-16T20:21:21Z</time>
      </trkpt>
      <trkpt lat="46.6766" lon="-1.6251">
        <ele>38</ele>
        <time>2024-12-16T20:21:25Z</time>
      </trkpt>
      <trkpt lat="46.67679" lon="-1.62448">
        <ele>39</ele>
        <time>2024-12-16T20:21:34Z</time>
      </trkpt>
      <trkpt lat="46.67681" lon="-1.62441">
        <ele>40</ele>
        <time>2024-12-16T20:21:35Z</time>
      </trkpt>
      <trkpt lat="46.67679" lon="-1.62448">
        <ele>39</ele>
        <time>2024-12-16T20:21:35Z</time>
      </trkpt>
      <trkpt lat="46.6766" lon="-1.6251">
        <ele>38</ele>
        <time>2024-12-16T20:21:44Z</time>
      </trkpt>
      <trkpt lat="46.6765" lon="-1.62546">
        <ele>39</ele>
        <time>2024-12-16T20:21:49Z</time>
      </trkpt>
      <trkpt lat="46.67646" lon="-1.62562">
        <ele>39</ele>
        <time>2024-12-16T20:21:51Z</time>
      </trkpt>
      <trkpt lat="46.67628" lon="-1.62644">
        <ele>37</ele>
        <time>2024-12-16T20:22:01Z</time>
      </trkpt>
      <trkpt lat="46.67625" lon="-1.62658">
        <ele>36</ele>
        <time>2024-12-16T20:22:03Z</time>
      </trkpt>
      <trkpt lat="46.67619" lon="-1.62719">
        <ele>35</ele>
        <time>2024-12-16T20:22:10Z</time>
      </trkpt>
      <trkpt lat="46.67625" lon="-1.62658">
        <ele>36</ele>
        <time>2024-12-16T20:22:18Z</time>
      </trkpt>
      <trkpt lat="46.67628" lon="-1.62644">
        <ele>37</ele>
        <time>2024-12-16T20:22:20Z</time>
      </trkpt>
      <trkpt lat="46.67646" lon="-1.62562">
        <ele>39</ele>
        <time>2024-12-16T20:22:30Z</time>
      </trkpt>
      <trkpt lat="46.6765" lon="-1.62546">
        <ele>39</ele>
        <time>2024-12-16T20:22:32Z</time>
      </trkpt>
      <trkpt lat="46.6766" lon="-1.6251">
        <ele>38</ele>
        <time>2024-12-16T20:22:37Z</time>
      </trkpt>
      <trkpt lat="46.67679" lon="-1.62448">
        <ele>39</ele>
        <time>2024-12-16T20:22:45Z</time>
      </trkpt>
      <trkpt lat="46.67681" lon="-1.62441">
        <ele>40</ele>
        <time>2024-12-16T20:22:46Z</time>
      </trkpt>
      <trkpt lat="46.67681" lon="-1.6244">
        <ele>40</ele>
        <time>2024-12-16T20:22:46Z</time>
      </trkpt>
      <trkpt lat="46.67686" lon="-1.62425">
        <ele>40</ele>
        <time>2024-12-16T20:22:48Z</time>
      </trkpt>
      <trkpt lat="46.67681" lon="-1.6244">
        <ele>40</ele>
        <time>2024-12-16T20:22:50Z</time>
      </trkpt>
      <trkpt lat="46.67681" lon="-1.62441">
        <ele>40</ele>
        <time>2024-12-16T20:22:51Z</time>
      </trkpt>
      <trkpt lat="46.67679" lon="-1.62448">
        <ele>39</ele>
        <time>2024-12-16T20:22:52Z</time>
      </trkpt>
      <trkpt lat="46.6766" lon="-1.6251">
        <ele>38</ele>
        <time>2024-12-16T20:23:00Z</time>
      </trkpt>
      <trkpt lat="46.6765" lon="-1.62546">
        <ele>39</ele>
        <time>2024-12-16T20:23:05Z</time>
      </trkpt>
      <trkpt lat="46.67646" lon="-1.62562">
        <ele>39</ele>
        <time>2024-12-16T20:23:07Z</time>
      </trkpt>
      <trkpt lat="46.67628" lon="-1.62644">
        <ele>37</ele>
        <time>2024-12-16T20:23:17Z</time>
      </trkpt>
      <trkpt lat="46.67625" lon="-1.62658">
        <ele>36</ele>
        <time>2024-12-16T20:23:19Z</time>
      </trkpt>
      <trkpt lat="46.67619" lon="-1.62719">
        <ele>35</ele>
        <time>2024-12-16T20:23:26Z</time>
      </trkpt>
      <trkpt lat="46.67616" lon="-1.62769">
        <ele>35</ele>
        <time>2024-12-16T20:23:33Z</time>
      </trkpt>
      <trkpt lat="46.67612" lon="-1.62828">
        <ele>37</ele>
        <time>2024-12-16T20:23:40Z</time>
      </trkpt>
      <trkpt lat="46.67616" lon="-1.62769">
        <ele>35</ele>
        <time>2024-12-16T20:23:47Z</time>
      </trkpt>
      <trkpt lat="46.67619" lon="-1.62719">
        <ele>35</ele>
        <time>2024-12-16T20:23:53Z</time>
      </trkpt>
      <trkpt lat="46.67625" lon="-1.62658">
        <ele>36</ele>
        <time>2024-12-16T20:24:01Z</time>
      </trkpt>
      <trkpt lat="46.67628" lon="-1.62644">
        <ele>37</ele>
        <time>2024-12-16T20:24:02Z</time>
      </trkpt>
      <trkpt lat="46.67646" lon="-1.62562">
        <ele>39</ele>
        <time>2024-12-16T20:24:13Z</time>
      </trkpt>
      <trkpt lat="46.67628" lon="-1.62644">
        <ele>37</ele>
        <time>2024-12-16T20:24:24Z</time>
      </trkpt>
      <trkpt lat="46.67625" lon="-1.62658">
        <ele>36</ele>
        <time>2024-12-16T20:24:25Z</time>
      </trkpt>
      <trkpt lat="46.67619" lon="-1.62719">
        <ele>35</ele>
        <time>2024-12-16T20:24:33Z</time>
      </trkpt>
      <trkpt lat="46.67616" lon="-1.62769">
        <ele>35</ele>
        <time>2024-12-16T20:24:39Z</time>
      </trkpt>
      <trkpt lat="46.67612" lon="-1.62828">
        <ele>37</ele>
        <time>2024-12-16T20:24:46Z</time>
      </trkpt>
      <trkpt lat="46.67612" lon="-1.62833">
        <ele>37</ele>
        <time>2024-12-16T20:24:47Z</time>
      </trkpt>
      <trkpt lat="46.67612" lon="-1.62832">
        <ele>37</ele>
        <time>2024-12-16T20:24:47Z</time>
      </trkpt>
      <trkpt lat="46.67612" lon="-1.62833">
        <ele>37</ele>
        <time>2024-12-16T20:24:47Z</time>
      </trkpt>
      <trkpt lat="46.67612" lon="-1.62833">
        <ele>37</ele>
        <time>2024-12-16T20:24:47Z</time>
      </trkpt>
      <trkpt lat="46.67612" lon="-1.62833">
        <ele>37</ele>
        <time>2024-12-16T20:24:47Z</time>
      </trkpt>
      <trkpt lat="46.67612" lon="-1.62828">
        <ele>37</ele>
        <time>2024-12-16T20:24:48Z</time>
      </trkpt>
      <trkpt lat="46.67616" lon="-1.62769">
        <ele>35</ele>
        <time>2024-12-16T20:24:55Z</time>
      </trkpt>
      <trkpt lat="46.67619" lon="-1.62719">
        <ele>35</ele>
        <time>2024-12-16T20:25:01Z</time>
      </trkpt>
      <trkpt lat="46.67625" lon="-1.62658">
        <ele>36</ele>
        <time>2024-12-16T20:25:09Z</time>
      </trkpt>
      <trkpt lat="46.67628" lon="-1.62644">
        <ele>37</ele>
        <time>2024-12-16T20:25:10Z</time>
      </trkpt>
      <trkpt lat="46.67646" lon="-1.62562">
        <ele>39</ele>
        <time>2024-12-16T20:25:21Z</time>
      </trkpt>
      <trkpt lat="46.6765" lon="-1.62546">
        <ele>39</ele>
        <time>2024-12-16T20:25:23Z</time>
      </trkpt>
      <trkpt lat="46.6766" lon="-1.6251">
        <ele>38</ele>
        <time>2024-12-16T20:25:28Z</time>
      </trkpt>
      <trkpt lat="46.6765" lon="-1.62546">
        <ele>39</ele>
        <time>2024-12-16T20:25:32Z</time>
      </trkpt>
      <trkpt lat="46.67646" lon="-1.62562">
        <ele>39</ele>
        <time>2024-12-16T20:25:34Z</time>
      </trkpt>
      <trkpt lat="46.67628" lon="-1.62644">
        <ele>37</ele>
        <time>2024-12-16T20:25:45Z</time>
      </trkpt>
      <trkpt lat="46.67625" lon="-1.62658">
        <ele>36</ele>
        <time>2024-12-16T20:25:47Z</time>
      </trkpt>
      <trkpt lat="46.67619" lon="-1.62719">
        <ele>35</ele>
        <time>2024-12-16T20:25:54Z</time>
      </trkpt>
      <trkpt lat="46.67616" lon="-1.62769">
        <ele>35</ele>
        <time>2024-12-16T20:26:00Z</time>
      </trkpt>
      <trkpt lat="46.67612" lon="-1.62828">
        <ele>37</ele>
        <time>2024-12-16T20:26:08Z</time>
      </trkpt>
      <trkpt lat="46.67612" lon="-1.62833">
        <ele>37</ele>
        <time>2024-12-16T20:26:08Z</time>
      </trkpt>
      <trkpt lat="46.67612" lon="-1.62832">
        <ele>37</ele>
        <time>2024-12-16T20:26:08Z</time>
      </trkpt>
      <trkpt lat="46.67611" lon="-1.6283">
        <ele>37</ele>
        <time>2024-12-16T20:26:09Z</time>
      </trkpt>
      <trkpt lat="46.67612" lon="-1.62832">
        <ele>37</ele>
        <time>2024-12-16T20:26:09Z</time>
      </trkpt>
      <trkpt lat="46.67612" lon="-1.62833">
        <ele>37</ele>
        <time>2024-12-16T20:26:09Z</time>
      </trkpt>
      <trkpt lat="46.67612" lon="-1.62828">
        <ele>37</ele>
        <time>2024-12-16T20:26:10Z</time>
      </trkpt>
      <trkpt lat="46.67616" lon="-1.62769">
        <ele>35</ele>
        <time>2024-12-16T20:26:17Z</time>
      </trkpt>
      <trkpt lat="46.67619" lon="-1.62719">
        <ele>35</ele>
        <time>2024-12-16T20:26:23Z</time>
      </trkpt>
      <trkpt lat="46.67625" lon="-1.62658">
        <ele>36</ele>
        <time>2024-12-16T20:26:31Z</time>
      </trkpt>
      <trkpt lat="46.67628" lon="-1.62644">
        <ele>37</ele>
        <time>2024-12-16T20:26:32Z</time>
      </trkpt>
      <trkpt lat="46.67646" lon="-1.62562">
        <ele>39</ele>
        <time>2024-12-16T20:26:43Z</time>
      </trkpt>
      <trkpt lat="46.6765" lon="-1.62546">
        <ele>39</ele>
        <time>2024-12-16T20:26:45Z</time>
      </trkpt>
      <trkpt lat="46.6766" lon="-1.6251">
        <ele>38</ele>
        <time>2024-12-16T20:26:50Z</time>
      </trkpt>
      <trkpt lat="46.67679" lon="-1.62448">
        <ele>39</ele>
        <time>2024-12-16T20:26:58Z</time>
      </trkpt>
      <trkpt lat="46.67681" lon="-1.62441">
        <ele>40</ele>
        <time>2024-12-16T20:26:59Z</time>
      </trkpt>
      <trkpt lat="46.67681" lon="-1.6244">
        <ele>40</ele>
        <time>2024-12-16T20:26:59Z</time>
      </trkpt>
      <trkpt lat="46.67686" lon="-1.62425">
        <ele>40</ele>
        <time>2024-12-16T20:27:01Z</time>
      </trkpt>
      <trkpt lat="46.67697" lon="-1.6236">
        <ele>41</ele>
        <time>2024-12-16T20:27:09Z</time>
      </trkpt>
      <trkpt lat="46.677" lon="-1.62325">
        <ele>40</ele>
        <time>2024-12-16T20:27:14Z</time>
      </trkpt>
      <trkpt lat="46.677" lon="-1.62297">
        <ele>39</ele>
        <time>2024-12-16T20:27:17Z</time>
      </trkpt>
      <trkpt lat="46.677" lon="-1.62276">
        <ele>39</ele>
        <time>2024-12-16T20:27:20Z</time>
      </trkpt>
      <trkpt lat="46.67698" lon="-1.6224">
        <ele>38</ele>
        <time>2024-12-16T20:27:24Z</time>
      </trkpt>
      <trkpt lat="46.67692" lon="-1.62204">
        <ele>38</ele>
        <time>2024-12-16T20:27:29Z</time>
      </trkpt>
      <trkpt lat="46.67643" lon="-1.62067">
        <ele>35</ele>
        <time>2024-12-16T20:27:47Z</time>
      </trkpt>
      <trkpt lat="46.67632" lon="-1.62051">
        <ele>35</ele>
        <time>2024-12-16T20:27:50Z</time>
      </trkpt>
      <trkpt lat="46.67619" lon="-1.6204">
        <ele>34</ele>
        <time>2024-12-16T20:27:53Z</time>
      </trkpt>
      <trkpt lat="46.67584" lon="-1.62025">
        <ele>34</ele>
        <time>2024-12-16T20:27:59Z</time>
      </trkpt>
      <trkpt lat="46.67576" lon="-1.62019">
        <ele>35</ele>
        <time>2024-12-16T20:28:01Z</time>
      </trkpt>
      <trkpt lat="46.6757" lon="-1.62006">
        <ele>36</ele>
        <time>2024-12-16T20:28:03Z</time>
      </trkpt>
      <trkpt lat="46.67563" lon="-1.61979">
        <ele>36</ele>
        <time>2024-12-16T20:28:06Z</time>
      </trkpt>
      <trkpt lat="46.67557" lon="-1.61952">
        <ele>37</ele>
        <time>2024-12-16T20:28:10Z</time>
      </trkpt>
      <trkpt lat="46.67554" lon="-1.61917">
        <ele>37</ele>
        <time>2024-12-16T20:28:14Z</time>
      </trkpt>
      <trkpt lat="46.67555" lon="-1.61905">
        <ele>37</ele>
        <time>2024-12-16T20:28:16Z</time>
      </trkpt>
      <trkpt lat="46.67556" lon="-1.61896">
        <ele>38</ele>
        <time>2024-12-16T20:28:17Z</time>
      </trkpt>
      <trkpt lat="46.67567" lon="-1.61862">
        <ele>38</ele>
        <time>2024-12-16T20:28:21Z</time>
      </trkpt>
      <trkpt lat="46.67582" lon="-1.61835">
        <ele>38</ele>
        <time>2024-12-16T20:28:26Z</time>
      </trkpt>
      <trkpt lat="46.6759" lon="-1.61815">
        <ele>38</ele>
        <time>2024-12-16T20:28:28Z</time>
      </trkpt>
      <trkpt lat="46.67592" lon="-1.61805">
        <ele>38</ele>
        <time>2024-12-16T20:28:30Z</time>
      </trkpt>
      <trkpt lat="46.67595" lon="-1.61792">
        <ele>38</ele>
        <time>2024-12-16T20:28:31Z</time>
      </trkpt>
      <trkpt lat="46.67606" lon="-1.61624">
        <ele>36</ele>
        <time>2024-12-16T20:28:52Z</time>
      </trkpt>
      <trkpt lat="46.67614" lon="-1.61536">
        <ele>36</ele>
        <time>2024-12-16T20:29:03Z</time>
      </trkpt>
      <trkpt lat="46.67614" lon="-1.61535">
        <ele>36</ele>
        <time>2024-12-16T20:29:03Z</time>
      </trkpt>
      <trkpt lat="46.67616" lon="-1.61484">
        <ele>37</ele>
        <time>2024-12-16T20:29:09Z</time>
      </trkpt>
      <trkpt lat="46.67614" lon="-1.61457">
        <ele>37</ele>
        <time>2024-12-16T20:29:12Z</time>
      </trkpt>
      <trkpt lat="46.67611" lon="-1.6143">
        <ele>37</ele>
        <time>2024-12-16T20:29:16Z</time>
      </trkpt>
      <trkpt lat="46.67605" lon="-1.61411">
        <ele>36</ele>
        <time>2024-12-16T20:29:18Z</time>
      </trkpt>
      <trkpt lat="46.67602" lon="-1.61399">
        <ele>36</ele>
        <time>2024-12-16T20:29:20Z</time>
      </trkpt>
      <trkpt lat="46.67601" lon="-1.61394">
        <ele>36</ele>
        <time>2024-12-16T20:29:21Z</time>
      </trkpt>
      <trkpt lat="46.67599" lon="-1.61387">
        <ele>36</ele>
        <time>2024-12-16T20:29:21Z</time>
      </trkpt>
      <trkpt lat="46.67599" lon="-1.61372">
        <ele>36</ele>
        <time>2024-12-16T20:29:23Z</time>
      </trkpt>
      <trkpt lat="46.676" lon="-1.61369">
        <ele>36</ele>
        <time>2024-12-16T20:29:24Z</time>
      </trkpt>
      <trkpt lat="46.67602" lon="-1.61367">
        <ele>36</ele>
        <time>2024-12-16T20:29:24Z</time>
      </trkpt>
      <trkpt lat="46.67614" lon="-1.61342">
        <ele>38</ele>
        <time>2024-12-16T20:29:28Z</time>
      </trkpt>
      <trkpt lat="46.67615" lon="-1.61339">
        <ele>38</ele>
        <time>2024-12-16T20:29:28Z</time>
      </trkpt>
      <trkpt lat="46.67614" lon="-1.61342">
        <ele>38</ele>
        <time>2024-12-16T20:29:29Z</time>
      </trkpt>
      <trkpt lat="46.67602" lon="-1.61367">
        <ele>36</ele>
        <time>2024-12-16T20:29:32Z</time>
      </trkpt>
      <trkpt lat="46.676" lon="-1.61369">
        <ele>36</ele>
        <time>2024-12-16T20:29:33Z</time>
      </trkpt>
      <trkpt lat="46.67599" lon="-1.61372">
        <ele>36</ele>
        <time>2024-12-16T20:29:33Z</time>
      </trkpt>
      <trkpt lat="46.67599" lon="-1.61387">
        <ele>36</ele>
        <time>2024-12-16T20:29:35Z</time>
      </trkpt>
      <trkpt lat="46.67601" lon="-1.61394">
        <ele>36</ele>
        <time>2024-12-16T20:29:36Z</time>
      </trkpt>
      <trkpt lat="46.67602" lon="-1.61399">
        <ele>36</ele>
        <time>2024-12-16T20:29:37Z</time>
      </trkpt>
      <trkpt lat="46.67605" lon="-1.61411">
        <ele>36</ele>
        <time>2024-12-16T20:29:38Z</time>
      </trkpt>
      <trkpt lat="46.67602" lon="-1.61399">
        <ele>36</ele>
        <time>2024-12-16T20:29:40Z</time>
      </trkpt>
      <trkpt lat="46.67601" lon="-1.61394">
        <ele>36</ele>
        <time>2024-12-16T20:29:40Z</time>
      </trkpt>
      <trkpt lat="46.67599" lon="-1.61387">
        <ele>36</ele>
        <time>2024-12-16T20:29:41Z</time>
      </trkpt>
      <trkpt lat="46.67599" lon="-1.61372">
        <ele>36</ele>
        <time>2024-12-16T20:29:43Z</time>
      </trkpt>
      <trkpt lat="46.676" lon="-1.61369">
        <ele>36</ele>
        <time>2024-12-16T20:29:44Z</time>
      </trkpt>
      <trkpt lat="46.67602" lon="-1.61367">
        <ele>36</ele>
        <time>2024-12-16T20:29:44Z</time>
      </trkpt>
      <trkpt lat="46.67614" lon="-1.61342">
        <ele>38</ele>
        <time>2024-12-16T20:29:48Z</time>
      </trkpt>
      <trkpt lat="46.67615" lon="-1.61339">
        <ele>38</ele>
        <time>2024-12-16T20:29:48Z</time>
      </trkpt>
      <trkpt lat="46.67616" lon="-1.61337">
        <ele>38</ele>
        <time>2024-12-16T20:29:48Z</time>
      </trkpt>
      <trkpt lat="46.67617" lon="-1.61336">
        <ele>38</ele>
        <time>2024-12-16T20:29:49Z</time>
      </trkpt>
      <trkpt lat="46.67618" lon="-1.61338">
        <ele>38</ele>
        <time>2024-12-16T20:29:49Z</time>
      </trkpt>
      <trkpt lat="46.67617" lon="-1.61336">
        <ele>38</ele>
        <time>2024-12-16T20:29:49Z</time>
      </trkpt>
      <trkpt lat="46.67616" lon="-1.61337">
        <ele>38</ele>
        <time>2024-12-16T20:29:49Z</time>
      </trkpt>
      <trkpt lat="46.67615" lon="-1.61339">
        <ele>38</ele>
        <time>2024-12-16T20:29:50Z</time>
      </trkpt>
      <trkpt lat="46.67614" lon="-1.61342">
        <ele>38</ele>
        <time>2024-12-16T20:29:50Z</time>
      </trkpt>
      <trkpt lat="46.67602" lon="-1.61367">
        <ele>36</ele>
        <time>2024-12-16T20:29:54Z</time>
      </trkpt>
      <trkpt lat="46.67614" lon="-1.61342">
        <ele>38</ele>
        <time>2024-12-16T20:29:58Z</time>
      </trkpt>
      <trkpt lat="46.67615" lon="-1.61339">
        <ele>38</ele>
        <time>2024-12-16T20:29:58Z</time>
      </trkpt>
      <trkpt lat="46.67616" lon="-1.61337">
        <ele>38</ele>
        <time>2024-12-16T20:29:58Z</time>
      </trkpt>
      <trkpt lat="46.67623" lon="-1.61399">
        <ele>38</ele>
        <time>2024-12-16T20:30:06Z</time>
      </trkpt>
      <trkpt lat="46.67617" lon="-1.61388">
        <ele>37</ele>
        <time>2024-12-16T20:30:08Z</time>
      </trkpt>
      <trkpt lat="46.67612" lon="-1.61372">
        <ele>37</ele>
        <time>2024-12-16T20:30:10Z</time>
      </trkpt>
      <trkpt lat="46.67613" lon="-1.61361">
        <ele>37</ele>
        <time>2024-12-16T20:30:11Z</time>
      </trkpt>
      <trkpt lat="46.67618" lon="-1.61341">
        <ele>38</ele>
        <time>2024-12-16T20:30:14Z</time>
      </trkpt>
      <trkpt lat="46.67617" lon="-1.61336">
        <ele>38</ele>
        <time>2024-12-16T20:30:14Z</time>
      </trkpt>
      <trkpt lat="46.67604" lon="-1.61363">
        <ele>36</ele>
        <time>2024-12-16T20:30:18Z</time>
      </trkpt>
      <trkpt lat="46.67617" lon="-1.61336">
        <ele>38</ele>
        <time>2024-12-16T20:30:22Z</time>
      </trkpt>
      <trkpt lat="46.67618" lon="-1.61341">
        <ele>38</ele>
        <time>2024-12-16T20:30:23Z</time>
      </trkpt>
      <trkpt lat="46.67617" lon="-1.61336">
        <ele>38</ele>
        <time>2024-12-16T20:30:24Z</time>
      </trkpt>
      <trkpt lat="46.67604" lon="-1.61363">
        <ele>36</ele>
        <time>2024-12-16T20:30:28Z</time>
      </trkpt>
      <trkpt lat="46.67599" lon="-1.61372">
        <ele>36</ele>
        <time>2024-12-16T20:30:29Z</time>
      </trkpt>
      <trkpt lat="46.67599" lon="-1.61375">
        <ele>36</ele>
        <time>2024-12-16T20:30:30Z</time>
      </trkpt>
      <trkpt lat="46.67599" lon="-1.61377">
        <ele>36</ele>
        <time>2024-12-16T20:30:30Z</time>
      </trkpt>
      <trkpt lat="46.676" lon="-1.61389">
        <ele>36</ele>
        <time>2024-12-16T20:30:31Z</time>
      </trkpt>
      <trkpt lat="46.67601" lon="-1.61395">
        <ele>36</ele>
        <time>2024-12-16T20:30:32Z</time>
      </trkpt>
      <trkpt lat="46.676" lon="-1.61389">
        <ele>36</ele>
        <time>2024-12-16T20:30:33Z</time>
      </trkpt>
      <trkpt lat="46.67599" lon="-1.61377">
        <ele>36</ele>
        <time>2024-12-16T20:30:34Z</time>
      </trkpt>
      <trkpt lat="46.67599" lon="-1.61375">
        <ele>36</ele>
        <time>2024-12-16T20:30:34Z</time>
      </trkpt>
      <trkpt lat="46.67599" lon="-1.61372">
        <ele>36</ele>
        <time>2024-12-16T20:30:35Z</time>
      </trkpt>
      <trkpt lat="46.67604" lon="-1.61363">
        <ele>36</ele>
        <time>2024-12-16T20:30:36Z</time>
      </trkpt>
      <trkpt lat="46.67617" lon="-1.61336">
        <ele>38</ele>
        <time>2024-12-16T20:30:40Z</time>
      </trkpt>
      <trkpt lat="46.6762" lon="-1.61324">
        <ele>38</ele>
        <time>2024-12-16T20:30:42Z</time>
      </trkpt>
      <trkpt lat="46.67621" lon="-1.61305">
        <ele>39</ele>
        <time>2024-12-16T20:30:44Z</time>
      </trkpt>
      <trkpt lat="46.6762" lon="-1.6129">
        <ele>39</ele>
        <time>2024-12-16T20:30:46Z</time>
      </trkpt>
      <trkpt lat="46.67608" lon="-1.61267">
        <ele>39</ele>
        <time>2024-12-16T20:30:50Z</time>
      </trkpt>
      <trkpt lat="46.67605" lon="-1.61257">
        <ele>39</ele>
        <time>2024-12-16T20:30:51Z</time>
      </trkpt>
      <trkpt lat="46.67603" lon="-1.61235">
        <ele>39</ele>
        <time>2024-12-16T20:30:54Z</time>
      </trkpt>
      <trkpt lat="46.67607" lon="-1.61206">
        <ele>41</ele>
        <time>2024-12-16T20:30:57Z</time>
      </trkpt>
      <trkpt lat="46.67618" lon="-1.61161">
        <ele>44</ele>
        <time>2024-12-16T20:31:03Z</time>
      </trkpt>
      <trkpt lat="46.67619" lon="-1.6115">
        <ele>45</ele>
        <time>2024-12-16T20:31:04Z</time>
      </trkpt>
      <trkpt lat="46.67625" lon="-1.6115">
        <ele>45</ele>
        <time>2024-12-16T20:31:05Z</time>
      </trkpt>
      <trkpt lat="46.67644" lon="-1.61138">
        <ele>47</ele>
        <time>2024-12-16T20:31:09Z</time>
      </trkpt>
      <trkpt lat="46.67638" lon="-1.6112">
        <ele>47</ele>
        <time>2024-12-16T20:31:12Z</time>
      </trkpt>
      <trkpt lat="46.67648" lon="-1.611">
        <ele>48</ele>
        <time>2024-12-16T20:31:15Z</time>
      </trkpt>
      <trkpt lat="46.67648" lon="-1.61096">
        <ele>48</ele>
        <time>2024-12-16T20:31:15Z</time>
      </trkpt>
      <trkpt lat="46.67654" lon="-1.61083">
        <ele>49</ele>
        <time>2024-12-16T20:31:17Z</time>
      </trkpt>
      <trkpt lat="46.67649" lon="-1.61076">
        <ele>48</ele>
        <time>2024-12-16T20:31:18Z</time>
      </trkpt>
      <trkpt lat="46.67656" lon="-1.61067">
        <ele>48</ele>
        <time>2024-12-16T20:31:20Z</time>
      </trkpt>
      <trkpt lat="46.67666" lon="-1.61041">
        <ele>48</ele>
        <time>2024-12-16T20:31:24Z</time>
      </trkpt>
      <trkpt lat="46.6767" lon="-1.61027">
        <ele>48</ele>
        <time>2024-12-16T20:31:25Z</time>
      </trkpt>
      <trkpt lat="46.67669" lon="-1.61016">
        <ele>48</ele>
        <time>2024-12-16T20:31:27Z</time>
      </trkpt>
      <trkpt lat="46.67668" lon="-1.61003">
        <ele>48</ele>
        <time>2024-12-16T20:31:28Z</time>
      </trkpt>
      <trkpt lat="46.67681" lon="-1.61003">
        <ele>49</ele>
        <time>2024-12-16T20:31:31Z</time>
      </trkpt>
      <trkpt lat="46.67684" lon="-1.60958">
        <ele>47</ele>
        <time>2024-12-16T20:31:36Z</time>
      </trkpt>
      <trkpt lat="46.67685" lon="-1.6093">
        <ele>46</ele>
        <time>2024-12-16T20:31:40Z</time>
      </trkpt>
      <trkpt lat="46.6769" lon="-1.60913">
        <ele>46</ele>
        <time>2024-12-16T20:31:42Z</time>
      </trkpt>
      <trkpt lat="46.67701" lon="-1.60892">
        <ele>46</ele>
        <time>2024-12-16T20:31:45Z</time>
      </trkpt>
      <trkpt lat="46.67706" lon="-1.6088">
        <ele>46</ele>
        <time>2024-12-16T20:31:47Z</time>
      </trkpt>
      <trkpt lat="46.6773" lon="-1.60803">
        <ele>46</ele>
        <time>2024-12-16T20:31:57Z</time>
      </trkpt>
      <trkpt lat="46.6774" lon="-1.60765">
        <ele>46</ele>
        <time>2024-12-16T20:32:02Z</time>
      </trkpt>
      <trkpt lat="46.67751" lon="-1.60712">
        <ele>45</ele>
        <time>2024-12-16T20:32:09Z</time>
      </trkpt>
      <trkpt lat="46.67757" lon="-1.60643">
        <ele>44</ele>
        <time>2024-12-16T20:32:17Z</time>
      </trkpt>
      <trkpt lat="46.67758" lon="-1.60629">
        <ele>44</ele>
        <time>2024-12-16T20:32:19Z</time>
      </trkpt>
      <trkpt lat="46.6776" lon="-1.60616">
        <ele>44</ele>
        <time>2024-12-16T20:32:21Z</time>
      </trkpt>
      <trkpt lat="46.67772" lon="-1.60529">
        <ele>43</ele>
        <time>2024-12-16T20:32:32Z</time>
      </trkpt>
      <trkpt lat="46.67784" lon="-1.60428">
        <ele>40</ele>
        <time>2024-12-16T20:32:44Z</time>
      </trkpt>
      <trkpt lat="46.67792" lon="-1.60348">
        <ele>39</ele>
        <time>2024-12-16T20:32:54Z</time>
      </trkpt>
      <trkpt lat="46.67801" lon="-1.60286">
        <ele>39</ele>
        <time>2024-12-16T20:33:02Z</time>
      </trkpt>
      <trkpt lat="46.67803" lon="-1.60274">
        <ele>39</ele>
        <time>2024-12-16T20:33:03Z</time>
      </trkpt>
      <trkpt lat="46.6781" lon="-1.60241">
        <ele>39</ele>
        <time>2024-12-16T20:33:07Z</time>
      </trkpt>
      <trkpt lat="46.67813" lon="-1.60228">
        <ele>39</ele>
        <time>2024-12-16T20:33:09Z</time>
      </trkpt>
      <trkpt lat="46.67834" lon="-1.60158">
        <ele>39</ele>
        <time>2024-12-16T20:33:18Z</time>
      </trkpt>
      <trkpt lat="46.67847" lon="-1.60127">
        <ele>40</ele>
        <time>2024-12-16T20:33:23Z</time>
      </trkpt>
      <trkpt lat="46.6785" lon="-1.6012">
        <ele>40</ele>
        <time>2024-12-16T20:33:24Z</time>
      </trkpt>
      <trkpt lat="46.67863" lon="-1.60095">
        <ele>40</ele>
        <time>2024-12-16T20:33:28Z</time>
      </trkpt>
      <trkpt lat="46.67884" lon="-1.60064">
        <ele>42</ele>
        <time>2024-12-16T20:33:33Z</time>
      </trkpt>
      <trkpt lat="46.67941" lon="-1.59999">
        <ele>46</ele>
        <time>2024-12-16T20:33:46Z</time>
      </trkpt>
      <trkpt lat="46.67944" lon="-1.59994">
        <ele>46</ele>
        <time>2024-12-16T20:33:47Z</time>
      </trkpt>
      <trkpt lat="46.67958" lon="-1.59968">
        <ele>47</ele>
        <time>2024-12-16T20:33:51Z</time>
      </trkpt>
      <trkpt lat="46.67976" lon="-1.59929">
        <ele>49</ele>
        <time>2024-12-16T20:33:56Z</time>
      </trkpt>
      <trkpt lat="46.67995" lon="-1.59889">
        <ele>49</ele>
        <time>2024-12-16T20:34:02Z</time>
      </trkpt>
      <trkpt lat="46.68071" lon="-1.59738">
        <ele>49</ele>
        <time>2024-12-16T20:34:25Z</time>
      </trkpt>
      <trkpt lat="46.68074" lon="-1.59733">
        <ele>48</ele>
        <time>2024-12-16T20:34:26Z</time>
      </trkpt>
      <trkpt lat="46.68101" lon="-1.59677">
        <ele>48</ele>
        <time>2024-12-16T20:34:34Z</time>
      </trkpt>
      <trkpt lat="46.68112" lon="-1.59649">
        <ele>48</ele>
        <time>2024-12-16T20:34:38Z</time>
      </trkpt>
      <trkpt lat="46.68116" lon="-1.59628">
        <ele>48</ele>
        <time>2024-12-16T20:34:41Z</time>
      </trkpt>
      <trkpt lat="46.68116" lon="-1.59612">
        <ele>48</ele>
        <time>2024-12-16T20:34:43Z</time>
      </trkpt>
      <trkpt lat="46.68112" lon="-1.59583">
        <ele>47</ele>
        <time>2024-12-16T20:34:47Z</time>
      </trkpt>
      <trkpt lat="46.68104" lon="-1.59539">
        <ele>48</ele>
        <time>2024-12-16T20:34:52Z</time>
      </trkpt>
      <trkpt lat="46.68101" lon="-1.59507">
        <ele>48</ele>
        <time>2024-12-16T20:34:56Z</time>
      </trkpt>
      <trkpt lat="46.68103" lon="-1.59476">
        <ele>51</ele>
        <time>2024-12-16T20:35:00Z</time>
      </trkpt>
      <trkpt lat="46.68109" lon="-1.59449">
        <ele>52</ele>
        <time>2024-12-16T20:35:03Z</time>
      </trkpt>
      <trkpt lat="46.68122" lon="-1.59403">
        <ele>54</ele>
        <time>2024-12-16T20:35:09Z</time>
      </trkpt>
      <trkpt lat="46.68148" lon="-1.59277">
        <ele>55</ele>
        <time>2024-12-16T20:35:25Z</time>
      </trkpt>
      <trkpt lat="46.68165" lon="-1.59216">
        <ele>55</ele>
        <time>2024-12-16T20:35:33Z</time>
      </trkpt>
      <trkpt lat="46.68206" lon="-1.59101">
        <ele>55</ele>
        <time>2024-12-16T20:35:49Z</time>
      </trkpt>
      <trkpt lat="46.68207" lon="-1.59093">
        <ele>56</ele>
        <time>2024-12-16T20:35:50Z</time>
      </trkpt>
      <trkpt lat="46.68209" lon="-1.5908">
        <ele>56</ele>
        <time>2024-12-16T20:35:52Z</time>
      </trkpt>
      <trkpt lat="46.68207" lon="-1.59041">
        <ele>57</ele>
        <time>2024-12-16T20:35:57Z</time>
      </trkpt>
      <trkpt lat="46.68204" lon="-1.59025">
        <ele>57</ele>
        <time>2024-12-16T20:35:59Z</time>
      </trkpt>
      <trkpt lat="46.68178" lon="-1.58939">
        <ele>59</ele>
        <time>2024-12-16T20:36:10Z</time>
      </trkpt>
      <trkpt lat="46.6817" lon="-1.58908">
        <ele>60</ele>
        <time>2024-12-16T20:36:14Z</time>
      </trkpt>
      <trkpt lat="46.6816" lon="-1.58855">
        <ele>59</ele>
        <time>2024-12-16T20:36:21Z</time>
      </trkpt>
      <trkpt lat="46.68157" lon="-1.58834">
        <ele>59</ele>
        <time>2024-12-16T20:36:24Z</time>
      </trkpt>
      <trkpt lat="46.68154" lon="-1.58792">
        <ele>58</ele>
        <time>2024-12-16T20:36:29Z</time>
      </trkpt>
      <trkpt lat="46.68157" lon="-1.58759">
        <ele>58</ele>
        <time>2024-12-16T20:36:33Z</time>
      </trkpt>
      <trkpt lat="46.68165" lon="-1.58717">
        <ele>58</ele>
        <time>2024-12-16T20:36:38Z</time>
      </trkpt>
      <trkpt lat="46.68174" lon="-1.58683">
        <ele>58</ele>
        <time>2024-12-16T20:36:43Z</time>
      </trkpt>
      <trkpt lat="46.68198" lon="-1.58629">
        <ele>58</ele>
        <time>2024-12-16T20:36:50Z</time>
      </trkpt>
      <trkpt lat="46.68279" lon="-1.58483">
        <ele>58</ele>
        <time>2024-12-16T20:37:13Z</time>
      </trkpt>
      <trkpt lat="46.68282" lon="-1.58476">
        <ele>58</ele>
        <time>2024-12-16T20:37:14Z</time>
      </trkpt>
      <trkpt lat="46.68295" lon="-1.58449">
        <ele>57</ele>
        <time>2024-12-16T20:37:18Z</time>
      </trkpt>
      <trkpt lat="46.68303" lon="-1.58422">
        <ele>57</ele>
        <time>2024-12-16T20:37:22Z</time>
      </trkpt>
      <trkpt lat="46.68309" lon="-1.58391">
        <ele>58</ele>
        <time>2024-12-16T20:37:26Z</time>
      </trkpt>
      <trkpt lat="46.6832" lon="-1.58145">
        <ele>60</ele>
        <time>2024-12-16T20:37:56Z</time>
      </trkpt>
      <trkpt lat="46.68325" lon="-1.58068">
        <ele>59</ele>
        <time>2024-12-16T20:38:05Z</time>
      </trkpt>
      <trkpt lat="46.68337" lon="-1.58006">
        <ele>58</ele>
        <time>2024-12-16T20:38:13Z</time>
      </trkpt>
      <trkpt lat="46.6835" lon="-1.57964">
        <ele>57</ele>
        <time>2024-12-16T20:38:19Z</time>
      </trkpt>
      <trkpt lat="46.68376" lon="-1.57912">
        <ele>56</ele>
        <time>2024-12-16T20:38:27Z</time>
      </trkpt>
      <trkpt lat="46.68406" lon="-1.57837">
        <ele>56</ele>
        <time>2024-12-16T20:38:37Z</time>
      </trkpt>
      <trkpt lat="46.68433" lon="-1.57763">
        <ele>54</ele>
        <time>2024-12-16T20:38:48Z</time>
      </trkpt>
      <trkpt lat="46.68456" lon="-1.57713">
        <ele>53</ele>
        <time>2024-12-16T20:38:55Z</time>
      </trkpt>
      <trkpt lat="46.68467" lon="-1.57686">
        <ele>52</ele>
        <time>2024-12-16T20:38:59Z</time>
      </trkpt>
      <trkpt lat="46.68484" lon="-1.57618">
        <ele>51</ele>
        <time>2024-12-16T20:39:08Z</time>
      </trkpt>
      <trkpt lat="46.68505" lon="-1.57584">
        <ele>51</ele>
        <time>2024-12-16T20:39:13Z</time>
      </trkpt>
      <trkpt lat="46.68562" lon="-1.57513">
        <ele>50</ele>
        <time>2024-12-16T20:39:27Z</time>
      </trkpt>
      <trkpt lat="46.68722" lon="-1.57329">
        <ele>46</ele>
        <time>2024-12-16T20:40:03Z</time>
      </trkpt>
      <trkpt lat="46.68753" lon="-1.57308">
        <ele>45</ele>
        <time>2024-12-16T20:40:09Z</time>
      </trkpt>
      <trkpt lat="46.68765" lon="-1.57299">
        <ele>45</ele>
        <time>2024-12-16T20:40:11Z</time>
      </trkpt>
      <trkpt lat="46.68791" lon="-1.57286">
        <ele>45</ele>
        <time>2024-12-16T20:40:16Z</time>
      </trkpt>
      <trkpt lat="46.68919" lon="-1.57246">
        <ele>45</ele>
        <time>2024-12-16T20:40:39Z</time>
      </trkpt>
      <trkpt lat="46.68943" lon="-1.57235">
        <ele>45</ele>
        <time>2024-12-16T20:40:44Z</time>
      </trkpt>
      <trkpt lat="46.68958" lon="-1.57226">
        <ele>45</ele>
        <time>2024-12-16T20:40:47Z</time>
      </trkpt>
      <trkpt lat="46.6897" lon="-1.57216">
        <ele>45</ele>
        <time>2024-12-16T20:40:49Z</time>
      </trkpt>
      <trkpt lat="46.68981" lon="-1.57203">
        <ele>45</ele>
        <time>2024-12-16T20:40:52Z</time>
      </trkpt>
      <trkpt lat="46.68987" lon="-1.5719">
        <ele>44</ele>
        <time>2024-12-16T20:40:54Z</time>
      </trkpt>
      <trkpt lat="46.6899" lon="-1.57174">
        <ele>44</ele>
        <time>2024-12-16T20:40:56Z</time>
      </trkpt>
      <trkpt lat="46.6899" lon="-1.57155">
        <ele>44</ele>
        <time>2024-12-16T20:40:58Z</time>
      </trkpt>
      <trkpt lat="46.6899" lon="-1.57139">
        <ele>44</ele>
        <time>2024-12-16T20:41:00Z</time>
      </trkpt>
      <trkpt lat="46.6898" lon="-1.57029">
        <ele>45</ele>
        <time>2024-12-16T20:41:14Z</time>
      </trkpt>
      <trkpt lat="46.68978" lon="-1.56997">
        <ele>46</ele>
        <time>2024-12-16T20:41:17Z</time>
      </trkpt>
      <trkpt lat="46.6898" lon="-1.56971">
        <ele>46</ele>
        <time>2024-12-16T20:41:21Z</time>
      </trkpt>
      <trkpt lat="46.69011" lon="-1.56853">
        <ele>46</ele>
        <time>2024-12-16T20:41:36Z</time>
      </trkpt>
      <trkpt lat="46.69016" lon="-1.5681">
        <ele>46</ele>
        <time>2024-12-16T20:41:41Z</time>
      </trkpt>
      <trkpt lat="46.69013" lon="-1.5678">
        <ele>45</ele>
        <time>2024-12-16T20:41:45Z</time>
      </trkpt>
      <trkpt lat="46.68987" lon="-1.56665">
        <ele>46</ele>
        <time>2024-12-16T20:42:00Z</time>
      </trkpt>
      <trkpt lat="46.68985" lon="-1.56635">
        <ele>47</ele>
        <time>2024-12-16T20:42:04Z</time>
      </trkpt>
      <trkpt lat="46.68985" lon="-1.56588">
        <ele>48</ele>
        <time>2024-12-16T20:42:09Z</time>
      </trkpt>
      <trkpt lat="46.69015" lon="-1.55959">
        <ele>55</ele>
        <time>2024-12-16T20:43:26Z</time>
      </trkpt>
      <trkpt lat="46.69013" lon="-1.55933">
        <ele>55</ele>
        <time>2024-12-16T20:43:29Z</time>
      </trkpt>
      <trkpt lat="46.69008" lon="-1.55898">
        <ele>54</ele>
        <time>2024-12-16T20:43:34Z</time>
      </trkpt>
      <trkpt lat="46.68996" lon="-1.55829">
        <ele>53</ele>
        <time>2024-12-16T20:43:42Z</time>
      </trkpt>
      <trkpt lat="46.68991" lon="-1.55785">
        <ele>53</ele>
        <time>2024-12-16T20:43:48Z</time>
      </trkpt>
      <trkpt lat="46.68987" lon="-1.5566">
        <ele>50</ele>
        <time>2024-12-16T20:44:03Z</time>
      </trkpt>
      <trkpt lat="46.68986" lon="-1.55628">
        <ele>49</ele>
        <time>2024-12-16T20:44:07Z</time>
      </trkpt>
      <trkpt lat="46.68983" lon="-1.55602">
        <ele>49</ele>
        <time>2024-12-16T20:44:10Z</time>
      </trkpt>
      <trkpt lat="46.68974" lon="-1.55569">
        <ele>48</ele>
        <time>2024-12-16T20:44:15Z</time>
      </trkpt>
      <trkpt lat="46.68963" lon="-1.55532">
        <ele>48</ele>
        <time>2024-12-16T20:44:20Z</time>
      </trkpt>
      <trkpt lat="46.68957" lon="-1.55497">
        <ele>48</ele>
        <time>2024-12-16T20:44:24Z</time>
      </trkpt>
      <trkpt lat="46.68959" lon="-1.55471">
        <ele>48</ele>
        <time>2024-12-16T20:44:27Z</time>
      </trkpt>
      <trkpt lat="46.68971" lon="-1.55406">
        <ele>48</ele>
        <time>2024-12-16T20:44:35Z</time>
      </trkpt>
      <trkpt lat="46.68981" lon="-1.55344">
        <ele>48</ele>
        <time>2024-12-16T20:44:43Z</time>
      </trkpt>
      <trkpt lat="46.68984" lon="-1.55324">
        <ele>48</ele>
        <time>2024-12-16T20:44:46Z</time>
      </trkpt>
      <trkpt lat="46.68988" lon="-1.5529">
        <ele>49</ele>
        <time>2024-12-16T20:44:50Z</time>
      </trkpt>
      <trkpt lat="46.68987" lon="-1.5526">
        <ele>50</ele>
        <time>2024-12-16T20:44:54Z</time>
      </trkpt>
      <trkpt lat="46.68979" lon="-1.55214">
        <ele>50</ele>
        <time>2024-12-16T20:44:59Z</time>
      </trkpt>
      <trkpt lat="46.68971" lon="-1.55179">
        <ele>50</ele>
        <time>2024-12-16T20:45:04Z</time>
      </trkpt>
      <trkpt lat="46.6896" lon="-1.55151">
        <ele>50</ele>
        <time>2024-12-16T20:45:08Z</time>
      </trkpt>
      <trkpt lat="46.6892" lon="-1.55076">
        <ele>49</ele>
        <time>2024-12-16T20:45:19Z</time>
      </trkpt>
      <trkpt lat="46.68909" lon="-1.55048">
        <ele>49</ele>
        <time>2024-12-16T20:45:23Z</time>
      </trkpt>
      <trkpt lat="46.68887" lon="-1.54974">
        <ele>50</ele>
        <time>2024-12-16T20:45:33Z</time>
      </trkpt>
      <trkpt lat="46.68884" lon="-1.54947">
        <ele>51</ele>
        <time>2024-12-16T20:45:36Z</time>
      </trkpt>
      <trkpt lat="46.68884" lon="-1.54916">
        <ele>52</ele>
        <time>2024-12-16T20:45:40Z</time>
      </trkpt>
      <trkpt lat="46.68893" lon="-1.54853">
        <ele>53</ele>
        <time>2024-12-16T20:45:48Z</time>
      </trkpt>
      <trkpt lat="46.68893" lon="-1.5483">
        <ele>54</ele>
        <time>2024-12-16T20:45:51Z</time>
      </trkpt>
      <trkpt lat="46.68883" lon="-1.54734">
        <ele>55</ele>
        <time>2024-12-16T20:46:03Z</time>
      </trkpt>
      <trkpt lat="46.6888" lon="-1.54685">
        <ele>56</ele>
        <time>2024-12-16T20:46:09Z</time>
      </trkpt>
      <trkpt lat="46.68882" lon="-1.54646">
        <ele>56</ele>
        <time>2024-12-16T20:46:14Z</time>
      </trkpt>
      <trkpt lat="46.68905" lon="-1.54485">
        <ele>55</ele>
        <time>2024-12-16T20:46:34Z</time>
      </trkpt>
      <trkpt lat="46.6892" lon="-1.54311">
        <ele>52</ele>
        <time>2024-12-16T20:46:55Z</time>
      </trkpt>
      <trkpt lat="46.68923" lon="-1.54224">
        <ele>52</ele>
        <time>2024-12-16T20:47:06Z</time>
      </trkpt>
      <trkpt lat="46.68922" lon="-1.54218">
        <ele>52</ele>
        <time>2024-12-16T20:47:06Z</time>
      </trkpt>
      <trkpt lat="46.68921" lon="-1.54177">
        <ele>52</ele>
        <time>2024-12-16T20:47:11Z</time>
      </trkpt>
      <trkpt lat="46.68915" lon="-1.54142">
        <ele>52</ele>
        <time>2024-12-16T20:47:16Z</time>
      </trkpt>
      <trkpt lat="46.68895" lon="-1.54083">
        <ele>51</ele>
        <time>2024-12-16T20:47:24Z</time>
      </trkpt>
      <trkpt lat="46.6886" lon="-1.53994">
        <ele>52</ele>
        <time>2024-12-16T20:47:36Z</time>
      </trkpt>
      <trkpt lat="46.68851" lon="-1.5396">
        <ele>53</ele>
        <time>2024-12-16T20:47:41Z</time>
      </trkpt>
      <trkpt lat="46.68844" lon="-1.53918">
        <ele>54</ele>
        <time>2024-12-16T20:47:46Z</time>
      </trkpt>
      <trkpt lat="46.68831" lon="-1.53858">
        <ele>57</ele>
        <time>2024-12-16T20:47:54Z</time>
      </trkpt>
      <trkpt lat="46.68821" lon="-1.53826">
        <ele>58</ele>
        <time>2024-12-16T20:47:58Z</time>
      </trkpt>
      <trkpt lat="46.68812" lon="-1.53805">
        <ele>57</ele>
        <time>2024-12-16T20:48:01Z</time>
      </trkpt>
      <trkpt lat="46.6878" lon="-1.53748">
        <ele>57</ele>
        <time>2024-12-16T20:48:10Z</time>
      </trkpt>
      <trkpt lat="46.68767" lon="-1.53711">
        <ele>57</ele>
        <time>2024-12-16T20:48:15Z</time>
      </trkpt>
      <trkpt lat="46.68756" lon="-1.53659">
        <ele>57</ele>
        <time>2024-12-16T20:48:22Z</time>
      </trkpt>
      <trkpt lat="46.68728" lon="-1.53476">
        <ele>57</ele>
        <time>2024-12-16T20:48:45Z</time>
      </trkpt>
      <trkpt lat="46.68703" lon="-1.53307">
        <ele>55</ele>
        <time>2024-12-16T20:49:06Z</time>
      </trkpt>
      <trkpt lat="46.68693" lon="-1.5327">
        <ele>55</ele>
        <time>2024-12-16T20:49:11Z</time>
      </trkpt>
      <trkpt lat="46.6864" lon="-1.53148">
        <ele>56</ele>
        <time>2024-12-16T20:49:28Z</time>
      </trkpt>
      <trkpt lat="46.68625" lon="-1.53098">
        <ele>56</ele>
        <time>2024-12-16T20:49:35Z</time>
      </trkpt>
      <trkpt lat="46.68615" lon="-1.53049">
        <ele>56</ele>
        <time>2024-12-16T20:49:41Z</time>
      </trkpt>
      <trkpt lat="46.68609" lon="-1.53">
        <ele>56</ele>
        <time>2024-12-16T20:49:47Z</time>
      </trkpt>
      <trkpt lat="46.68608" lon="-1.52966">
        <ele>56</ele>
        <time>2024-12-16T20:49:51Z</time>
      </trkpt>
      <trkpt lat="46.68607" lon="-1.52894">
        <ele>57</ele>
        <time>2024-12-16T20:50:00Z</time>
      </trkpt>
      <trkpt lat="46.68602" lon="-1.52819">
        <ele>56</ele>
        <time>2024-12-16T20:50:09Z</time>
      </trkpt>
      <trkpt lat="46.686" lon="-1.52804">
        <ele>56</ele>
        <time>2024-12-16T20:50:11Z</time>
      </trkpt>
      <trkpt lat="46.68591" lon="-1.52765">
        <ele>56</ele>
        <time>2024-12-16T20:50:16Z</time>
      </trkpt>
      <trkpt lat="46.68563" lon="-1.52677">
        <ele>57</ele>
        <time>2024-12-16T20:50:28Z</time>
      </trkpt>
      <trkpt lat="46.68558" lon="-1.52658">
        <ele>57</ele>
        <time>2024-12-16T20:50:31Z</time>
      </trkpt>
      <trkpt lat="46.68545" lon="-1.52583">
        <ele>57</ele>
        <time>2024-12-16T20:50:40Z</time>
      </trkpt>
      <trkpt lat="46.68551" lon="-1.52575">
        <ele>57</ele>
        <time>2024-12-16T20:50:41Z</time>
      </trkpt>
      <trkpt lat="46.6855" lon="-1.52563">
        <ele>57</ele>
        <time>2024-12-16T20:50:43Z</time>
      </trkpt>
      <trkpt lat="46.68546" lon="-1.52558">
        <ele>57</ele>
        <time>2024-12-16T20:50:44Z</time>
      </trkpt>
      <trkpt lat="46.68541" lon="-1.52558">
        <ele>57</ele>
        <time>2024-12-16T20:50:45Z</time>
      </trkpt>
      <trkpt lat="46.68539" lon="-1.52545">
        <ele>57</ele>
        <time>2024-12-16T20:50:46Z</time>
      </trkpt>
      <trkpt lat="46.68533" lon="-1.52527">
        <ele>57</ele>
        <time>2024-12-16T20:50:49Z</time>
      </trkpt>
      <trkpt lat="46.68506" lon="-1.52478">
        <ele>58</ele>
        <time>2024-12-16T20:50:57Z</time>
      </trkpt>
      <trkpt lat="46.68499" lon="-1.52456">
        <ele>58</ele>
        <time>2024-12-16T20:51:00Z</time>
      </trkpt>
      <trkpt lat="46.68496" lon="-1.5243">
        <ele>59</ele>
        <time>2024-12-16T20:51:03Z</time>
      </trkpt>
      <trkpt lat="46.68497" lon="-1.524">
        <ele>59</ele>
        <time>2024-12-16T20:51:06Z</time>
      </trkpt>
      <trkpt lat="46.685" lon="-1.52379">
        <ele>59</ele>
        <time>2024-12-16T20:51:09Z</time>
      </trkpt>
      <trkpt lat="46.68501" lon="-1.52367">
        <ele>60</ele>
        <time>2024-12-16T20:51:10Z</time>
      </trkpt>
      <trkpt lat="46.68508" lon="-1.52326">
        <ele>60</ele>
        <time>2024-12-16T20:51:16Z</time>
      </trkpt>
      <trkpt lat="46.68514" lon="-1.5229">
        <ele>60</ele>
        <time>2024-12-16T20:51:20Z</time>
      </trkpt>
      <trkpt lat="46.68516" lon="-1.5228">
        <ele>60</ele>
        <time>2024-12-16T20:51:21Z</time>
      </trkpt>
      <trkpt lat="46.6851" lon="-1.52278">
        <ele>61</ele>
        <time>2024-12-16T20:51:23Z</time>
      </trkpt>
      <trkpt lat="46.6852" lon="-1.52233">
        <ele>61</ele>
        <time>2024-12-16T20:51:28Z</time>
      </trkpt>
      <trkpt lat="46.68533" lon="-1.52171">
        <ele>61</ele>
        <time>2024-12-16T20:51:36Z</time>
      </trkpt>
      <trkpt lat="46.68545" lon="-1.52119">
        <ele>61</ele>
        <time>2024-12-16T20:51:43Z</time>
      </trkpt>
      <trkpt lat="46.68558" lon="-1.52054">
        <ele>61</ele>
        <time>2024-12-16T20:51:51Z</time>
      </trkpt>
      <trkpt lat="46.68559" lon="-1.5205">
        <ele>60</ele>
        <time>2024-12-16T20:51:52Z</time>
      </trkpt>
      <trkpt lat="46.68586" lon="-1.5194">
        <ele>60</ele>
        <time>2024-12-16T20:52:06Z</time>
      </trkpt>
      <trkpt lat="46.68596" lon="-1.51907">
        <ele>60</ele>
        <time>2024-12-16T20:52:10Z</time>
      </trkpt>
      <trkpt lat="46.68603" lon="-1.51901">
        <ele>61</ele>
        <time>2024-12-16T20:52:12Z</time>
      </trkpt>
      <trkpt lat="46.68614" lon="-1.51854">
        <ele>61</ele>
        <time>2024-12-16T20:52:18Z</time>
      </trkpt>
      <trkpt lat="46.68615" lon="-1.51849">
        <ele>61</ele>
        <time>2024-12-16T20:52:18Z</time>
      </trkpt>
      <trkpt lat="46.68617" lon="-1.51765">
        <ele>61</ele>
        <time>2024-12-16T20:52:29Z</time>
      </trkpt>
      <trkpt lat="46.68617" lon="-1.51754">
        <ele>61</ele>
        <time>2024-12-16T20:52:30Z</time>
      </trkpt>
      <trkpt lat="46.68617" lon="-1.51748">
        <ele>61</ele>
        <time>2024-12-16T20:52:31Z</time>
      </trkpt>
      <trkpt lat="46.68617" lon="-1.51736">
        <ele>61</ele>
        <time>2024-12-16T20:52:32Z</time>
      </trkpt>
      <trkpt lat="46.68617" lon="-1.5172">
        <ele>60</ele>
        <time>2024-12-16T20:52:34Z</time>
      </trkpt>
      <trkpt lat="46.68614" lon="-1.51683">
        <ele>60</ele>
        <time>2024-12-16T20:52:39Z</time>
      </trkpt>
      <trkpt lat="46.68607" lon="-1.51634">
        <ele>59</ele>
        <time>2024-12-16T20:52:45Z</time>
      </trkpt>
      <trkpt lat="46.68603" lon="-1.51608">
        <ele>58</ele>
        <time>2024-12-16T20:52:48Z</time>
      </trkpt>
      <trkpt lat="46.686" lon="-1.51553">
        <ele>58</ele>
        <time>2024-12-16T20:52:55Z</time>
      </trkpt>
      <trkpt lat="46.68598" lon="-1.51432">
        <ele>58</ele>
        <time>2024-12-16T20:53:10Z</time>
      </trkpt>
      <trkpt lat="46.68599" lon="-1.51405">
        <ele>58</ele>
        <time>2024-12-16T20:53:13Z</time>
      </trkpt>
      <trkpt lat="46.686" lon="-1.51392">
        <ele>58</ele>
        <time>2024-12-16T20:53:15Z</time>
      </trkpt>
      <trkpt lat="46.68602" lon="-1.51387">
        <ele>58</ele>
        <time>2024-12-16T20:53:15Z</time>
      </trkpt>
      <trkpt lat="46.68633" lon="-1.51382">
        <ele>60</ele>
        <time>2024-12-16T20:53:21Z</time>
      </trkpt>
      <trkpt lat="46.68637" lon="-1.51386">
        <ele>60</ele>
        <time>2024-12-16T20:53:22Z</time>
      </trkpt>
      <trkpt lat="46.68644" lon="-1.51383">
        <ele>60</ele>
        <time>2024-12-16T20:53:23Z</time>
      </trkpt>
      <trkpt lat="46.68646" lon="-1.51376">
        <ele>60</ele>
        <time>2024-12-16T20:53:24Z</time>
      </trkpt>
      <trkpt lat="46.68654" lon="-1.51371">
        <ele>61</ele>
        <time>2024-12-16T20:53:25Z</time>
      </trkpt>
      <trkpt lat="46.68686" lon="-1.51342">
        <ele>63</ele>
        <time>2024-12-16T20:53:32Z</time>
      </trkpt>
      <trkpt lat="46.68729" lon="-1.51411">
        <ele>64</ele>
        <time>2024-12-16T20:53:44Z</time>
      </trkpt>
      <trkpt lat="46.68746" lon="-1.51429">
        <ele>65</ele>
        <time>2024-12-16T20:53:47Z</time>
      </trkpt>
      <trkpt lat="46.6876" lon="-1.51437">
        <ele>65</ele>
        <time>2024-12-16T20:53:50Z</time>
      </trkpt>
      <trkpt lat="46.68778" lon="-1.51438">
        <ele>65</ele>
        <time>2024-12-16T20:53:53Z</time>
      </trkpt>
      <trkpt lat="46.68799" lon="-1.51436">
        <ele>66</ele>
        <time>2024-12-16T20:53:57Z</time>
      </trkpt>
      <trkpt lat="46.68828" lon="-1.51433">
        <ele>66</ele>
        <time>2024-12-16T20:54:02Z</time>
      </trkpt>
      <trkpt lat="46.68858" lon="-1.51439">
        <ele>66</ele>
        <time>2024-12-16T20:54:07Z</time>
      </trkpt>
      <trkpt lat="46.68869" lon="-1.51443">
        <ele>66</ele>
        <time>2024-12-16T20:54:09Z</time>
      </trkpt>
      <trkpt lat="46.68911" lon="-1.51463">
        <ele>66</ele>
        <time>2024-12-16T20:54:17Z</time>
      </trkpt>
      <trkpt lat="46.69037" lon="-1.51522">
        <ele>65</ele>
        <time>2024-12-16T20:54:41Z</time>
      </trkpt>
      <trkpt lat="46.69041" lon="-1.51523">
        <ele>65</ele>
        <time>2024-12-16T20:54:42Z</time>
      </trkpt>
      <trkpt lat="46.69052" lon="-1.51529">
        <ele>65</ele>
        <time>2024-12-16T20:54:44Z</time>
      </trkpt>
      <trkpt lat="46.69056" lon="-1.51519">
        <ele>65</ele>
        <time>2024-12-16T20:54:45Z</time>
      </trkpt>
      <trkpt lat="46.69063" lon="-1.51515">
        <ele>65</ele>
        <time>2024-12-16T20:54:46Z</time>
      </trkpt>
      <trkpt lat="46.69066" lon="-1.51515">
        <ele>65</ele>
        <time>2024-12-16T20:54:47Z</time>
      </trkpt>
      <trkpt lat="46.69072" lon="-1.5152">
        <ele>65</ele>
        <time>2024-12-16T20:54:48Z</time>
      </trkpt>
      <trkpt lat="46.69075" lon="-1.51529">
        <ele>65</ele>
        <time>2024-12-16T20:54:49Z</time>
      </trkpt>
      <trkpt lat="46.69075" lon="-1.51534">
        <ele>65</ele>
        <time>2024-12-16T20:54:50Z</time>
      </trkpt>
      <trkpt lat="46.69106" lon="-1.51539">
        <ele>66</ele>
        <time>2024-12-16T20:54:56Z</time>
      </trkpt>
      <trkpt lat="46.69166" lon="-1.51548">
        <ele>67</ele>
        <time>2024-12-16T20:55:06Z</time>
      </trkpt>
      <trkpt lat="46.69272" lon="-1.51567">
        <ele>66</ele>
        <time>2024-12-16T20:55:25Z</time>
      </trkpt>
      <trkpt lat="46.6936" lon="-1.51583">
        <ele>66</ele>
        <time>2024-12-16T20:55:41Z</time>
      </trkpt>
      <trkpt lat="46.69397" lon="-1.51586">
        <ele>67</ele>
        <time>2024-12-16T20:55:48Z</time>
      </trkpt>
      <trkpt lat="46.69567" lon="-1.51583">
        <ele>65</ele>
        <time>2024-12-16T20:56:18Z</time>
      </trkpt>
      <trkpt lat="46.69597" lon="-1.51587">
        <ele>65</ele>
        <time>2024-12-16T20:56:23Z</time>
      </trkpt>
      <trkpt lat="46.69632" lon="-1.51599">
        <ele>64</ele>
        <time>2024-12-16T20:56:30Z</time>
      </trkpt>
      <trkpt lat="46.69644" lon="-1.51606">
        <ele>63</ele>
        <time>2024-12-16T20:56:32Z</time>
      </trkpt>
      <trkpt lat="46.69662" lon="-1.5162">
        <ele>63</ele>
        <time>2024-12-16T20:56:36Z</time>
      </trkpt>
      <trkpt lat="46.69677" lon="-1.51636">
        <ele>62</ele>
        <time>2024-12-16T20:56:39Z</time>
      </trkpt>
      <trkpt lat="46.69707" lon="-1.51676">
        <ele>61</ele>
        <time>2024-12-16T20:56:46Z</time>
      </trkpt>
      <trkpt lat="46.69732" lon="-1.51715">
        <ele>61</ele>
        <time>2024-12-16T20:56:53Z</time>
      </trkpt>
      <trkpt lat="46.698" lon="-1.51829">
        <ele>62</ele>
        <time>2024-12-16T20:57:11Z</time>
      </trkpt>
      <trkpt lat="46.69815" lon="-1.51858">
        <ele>62</ele>
        <time>2024-12-16T20:57:16Z</time>
      </trkpt>
      <trkpt lat="46.69841" lon="-1.51912">
        <ele>63</ele>
        <time>2024-12-16T20:57:24Z</time>
      </trkpt>
      <trkpt lat="46.69882" lon="-1.52011">
        <ele>65</ele>
        <time>2024-12-16T20:57:38Z</time>
      </trkpt>
      <trkpt lat="46.69899" lon="-1.52046">
        <ele>66</ele>
        <time>2024-12-16T20:57:43Z</time>
      </trkpt>
      <trkpt lat="46.69909" lon="-1.52062">
        <ele>66</ele>
        <time>2024-12-16T20:57:46Z</time>
      </trkpt>
      <trkpt lat="46.6993" lon="-1.52084">
        <ele>66</ele>
        <time>2024-12-16T20:57:50Z</time>
      </trkpt>
      <trkpt lat="46.69943" lon="-1.52094">
        <ele>66</ele>
        <time>2024-12-16T20:57:53Z</time>
      </trkpt>
      <trkpt lat="46.69957" lon="-1.52102">
        <ele>65</ele>
        <time>2024-12-16T20:57:55Z</time>
      </trkpt>
      <trkpt lat="46.6998" lon="-1.5211">
        <ele>64</ele>
        <time>2024-12-16T20:58:00Z</time>
      </trkpt>
      <trkpt lat="46.69999" lon="-1.52111">
        <ele>63</ele>
        <time>2024-12-16T20:58:03Z</time>
      </trkpt>
      <trkpt lat="46.70012" lon="-1.52108">
        <ele>63</ele>
        <time>2024-12-16T20:58:05Z</time>
      </trkpt>
      <trkpt lat="46.70146" lon="-1.52057">
        <ele>61</ele>
        <time>2024-12-16T20:58:30Z</time>
      </trkpt>
      <trkpt lat="46.70225" lon="-1.52025">
        <ele>63</ele>
        <time>2024-12-16T20:58:45Z</time>
      </trkpt>
      <trkpt lat="46.70306" lon="-1.51987">
        <ele>65</ele>
        <time>2024-12-16T20:59:00Z</time>
      </trkpt>
      <trkpt lat="46.70504" lon="-1.51876">
        <ele>68</ele>
        <time>2024-12-16T20:59:38Z</time>
      </trkpt>
      <trkpt lat="46.70531" lon="-1.51864">
        <ele>68</ele>
        <time>2024-12-16T20:59:43Z</time>
      </trkpt>
      <trkpt lat="46.70567" lon="-1.51851">
        <ele>68</ele>
        <time>2024-12-16T20:59:49Z</time>
      </trkpt>
      <trkpt lat="46.70606" lon="-1.5184">
        <ele>69</ele>
        <time>2024-12-16T20:59:56Z</time>
      </trkpt>
      <trkpt lat="46.70647" lon="-1.51833">
        <ele>70</ele>
        <time>2024-12-16T21:00:04Z</time>
      </trkpt>
      <trkpt lat="46.70669" lon="-1.51832">
        <ele>71</ele>
        <time>2024-12-16T21:00:07Z</time>
      </trkpt>
      <trkpt lat="46.70679" lon="-1.51832">
        <ele>71</ele>
        <time>2024-12-16T21:00:09Z</time>
      </trkpt>
      <trkpt lat="46.70691" lon="-1.51885">
        <ele>71</ele>
        <time>2024-12-16T21:00:16Z</time>
      </trkpt>
      <trkpt lat="46.70696" lon="-1.51892">
        <ele>71</ele>
        <time>2024-12-16T21:00:17Z</time>
      </trkpt>
      <trkpt lat="46.70701" lon="-1.51893">
        <ele>71</ele>
        <time>2024-12-16T21:00:18Z</time>
      </trkpt>
      <trkpt lat="46.70696" lon="-1.51892">
        <ele>71</ele>
        <time>2024-12-16T21:00:19Z</time>
      </trkpt>
      <trkpt lat="46.70691" lon="-1.51885">
        <ele>71</ele>
        <time>2024-12-16T21:00:20Z</time>
      </trkpt>
      <trkpt lat="46.70679" lon="-1.51832">
        <ele>71</ele>
        <time>2024-12-16T21:00:27Z</time>
      </trkpt>
      <trkpt lat="46.70752" lon="-1.51842">
        <ele>71</ele>
        <time>2024-12-16T21:00:40Z</time>
      </trkpt>
      <trkpt lat="46.70799" lon="-1.51843">
        <ele>71</ele>
        <time>2024-12-16T21:00:49Z</time>
      </trkpt>
      <trkpt lat="46.70834" lon="-1.51837">
        <ele>71</ele>
        <time>2024-12-16T21:00:55Z</time>
      </trkpt>
      <trkpt lat="46.70846" lon="-1.51833">
        <ele>71</ele>
        <time>2024-12-16T21:00:57Z</time>
      </trkpt>
      <trkpt lat="46.70862" lon="-1.51824">
        <ele>71</ele>
        <time>2024-12-16T21:01:00Z</time>
      </trkpt>
      <trkpt lat="46.70904" lon="-1.51802">
        <ele>70</ele>
        <time>2024-12-16T21:01:08Z</time>
      </trkpt>
      <trkpt lat="46.70926" lon="-1.51789">
        <ele>70</ele>
        <time>2024-12-16T21:01:12Z</time>
      </trkpt>
      <trkpt lat="46.70963" lon="-1.51768">
        <ele>72</ele>
        <time>2024-12-16T21:01:19Z</time>
      </trkpt>
      <trkpt lat="46.71006" lon="-1.51743">
        <ele>73</ele>
        <time>2024-12-16T21:01:28Z</time>
      </trkpt>
      <trkpt lat="46.7104" lon="-1.51723">
        <ele>73</ele>
        <time>2024-12-16T21:01:34Z</time>
      </trkpt>
      <trkpt lat="46.71056" lon="-1.51712">
        <ele>73</ele>
        <time>2024-12-16T21:01:37Z</time>
      </trkpt>
      <trkpt lat="46.71066" lon="-1.51701">
        <ele>73</ele>
        <time>2024-12-16T21:01:39Z</time>
      </trkpt>
      <trkpt lat="46.71167" lon="-1.51569">
        <ele>72</ele>
        <time>2024-12-16T21:02:04Z</time>
      </trkpt>
      <trkpt lat="46.71182" lon="-1.51553">
        <ele>72</ele>
        <time>2024-12-16T21:02:07Z</time>
      </trkpt>
      <trkpt lat="46.71196" lon="-1.51542">
        <ele>72</ele>
        <time>2024-12-16T21:02:10Z</time>
      </trkpt>
      <trkpt lat="46.71226" lon="-1.5152">
        <ele>72</ele>
        <time>2024-12-16T21:02:16Z</time>
      </trkpt>
      <trkpt lat="46.7139" lon="-1.51411">
        <ele>72</ele>
        <time>2024-12-16T21:02:48Z</time>
      </trkpt>
      <trkpt lat="46.71423" lon="-1.51395">
        <ele>72</ele>
        <time>2024-12-16T21:02:54Z</time>
      </trkpt>
      <trkpt lat="46.71467" lon="-1.51385">
        <ele>73</ele>
        <time>2024-12-16T21:03:02Z</time>
      </trkpt>
      <trkpt lat="46.71528" lon="-1.51378">
        <ele>73</ele>
        <time>2024-12-16T21:03:13Z</time>
      </trkpt>
      <trkpt lat="46.71565" lon="-1.51368">
        <ele>74</ele>
        <time>2024-12-16T21:03:19Z</time>
      </trkpt>
      <trkpt lat="46.71606" lon="-1.51348">
        <ele>75</ele>
        <time>2024-12-16T21:03:27Z</time>
      </trkpt>
      <trkpt lat="46.71644" lon="-1.51335">
        <ele>76</ele>
        <time>2024-12-16T21:03:34Z</time>
      </trkpt>
      <trkpt lat="46.71719" lon="-1.51325">
        <ele>77</ele>
        <time>2024-12-16T21:03:47Z</time>
      </trkpt>
      <trkpt lat="46.71819" lon="-1.51317">
        <ele>75</ele>
        <time>2024-12-16T21:04:05Z</time>
      </trkpt>
      <trkpt lat="46.71834" lon="-1.51316">
        <ele>75</ele>
        <time>2024-12-16T21:04:08Z</time>
      </trkpt>
      <trkpt lat="46.71843" lon="-1.51315">
        <ele>75</ele>
        <time>2024-12-16T21:04:10Z</time>
      </trkpt>
      <trkpt lat="46.71921" lon="-1.51309">
        <ele>75</ele>
        <time>2024-12-16T21:04:23Z</time>
      </trkpt>
      <trkpt lat="46.71946" lon="-1.51305">
        <ele>75</ele>
        <time>2024-12-16T21:04:28Z</time>
      </trkpt>
      <trkpt lat="46.72093" lon="-1.5127">
        <ele>74</ele>
        <time>2024-12-16T21:04:54Z</time>
      </trkpt>
      <trkpt lat="46.72121" lon="-1.51254">
        <ele>74</ele>
        <time>2024-12-16T21:05:00Z</time>
      </trkpt>
      <trkpt lat="46.72138" lon="-1.51244">
        <ele>74</ele>
        <time>2024-12-16T21:05:03Z</time>
      </trkpt>
      <trkpt lat="46.72166" lon="-1.51226">
        <ele>74</ele>
        <time>2024-12-16T21:05:09Z</time>
      </trkpt>
      <trkpt lat="46.72187" lon="-1.51212">
        <ele>74</ele>
        <time>2024-12-16T21:05:13Z</time>
      </trkpt>
      <trkpt lat="46.72207" lon="-1.51203">
        <ele>75</ele>
        <time>2024-12-16T21:05:16Z</time>
      </trkpt>
      <trkpt lat="46.72218" lon="-1.512">
        <ele>75</ele>
        <time>2024-12-16T21:05:18Z</time>
      </trkpt>
      <trkpt lat="46.72329" lon="-1.51177">
        <ele>76</ele>
        <time>2024-12-16T21:05:38Z</time>
      </trkpt>
      <trkpt lat="46.72358" lon="-1.51177">
        <ele>75</ele>
        <time>2024-12-16T21:05:43Z</time>
      </trkpt>
      <trkpt lat="46.72393" lon="-1.51181">
        <ele>75</ele>
        <time>2024-12-16T21:05:50Z</time>
      </trkpt>
      <trkpt lat="46.72394" lon="-1.51185">
        <ele>75</ele>
        <time>2024-12-16T21:05:50Z</time>
      </trkpt>
      <trkpt lat="46.72397" lon="-1.51187">
        <ele>75</ele>
        <time>2024-12-16T21:05:51Z</time>
      </trkpt>
      <trkpt lat="46.724" lon="-1.51185">
        <ele>74</ele>
        <time>2024-12-16T21:05:51Z</time>
      </trkpt>
      <trkpt lat="46.72402" lon="-1.51182">
        <ele>74</ele>
        <time>2024-12-16T21:05:52Z</time>
      </trkpt>
      <trkpt lat="46.72456" lon="-1.51181">
        <ele>72</ele>
        <time>2024-12-16T21:06:01Z</time>
      </trkpt>
      <trkpt lat="46.72459" lon="-1.51181">
        <ele>72</ele>
        <time>2024-12-16T21:06:02Z</time>
      </trkpt>
      <trkpt lat="46.72475" lon="-1.5118">
        <ele>71</ele>
        <time>2024-12-16T21:06:05Z</time>
      </trkpt>
      <trkpt lat="46.72477" lon="-1.5118">
        <ele>71</ele>
        <time>2024-12-16T21:06:05Z</time>
      </trkpt>
      <trkpt lat="46.72505" lon="-1.51181">
        <ele>70</ele>
        <time>2024-12-16T21:06:10Z</time>
      </trkpt>
      <trkpt lat="46.72509" lon="-1.51183">
        <ele>70</ele>
        <time>2024-12-16T21:06:11Z</time>
      </trkpt>
      <trkpt lat="46.72518" lon="-1.51187">
        <ele>70</ele>
        <time>2024-12-16T21:06:13Z</time>
      </trkpt>
      <trkpt lat="46.7253" lon="-1.51198">
        <ele>70</ele>
        <time>2024-12-16T21:06:15Z</time>
      </trkpt>
      <trkpt lat="46.72566" lon="-1.51241">
        <ele>69</ele>
        <time>2024-12-16T21:06:23Z</time>
      </trkpt>
      <trkpt lat="46.7258" lon="-1.51258">
        <ele>69</ele>
        <time>2024-12-16T21:06:27Z</time>
      </trkpt>
      <trkpt lat="46.7258" lon="-1.51258">
        <ele>69</ele>
        <time>2024-12-16T21:06:27Z</time>
      </trkpt>
      <trkpt lat="46.72587" lon="-1.51267">
        <ele>69</ele>
        <time>2024-12-16T21:06:28Z</time>
      </trkpt>
      <trkpt lat="46.7259" lon="-1.5127">
        <ele>69</ele>
        <time>2024-12-16T21:06:29Z</time>
      </trkpt>
      <trkpt lat="46.72632" lon="-1.5119">
        <ele>67</ele>
        <time>2024-12-16T21:06:41Z</time>
      </trkpt>
      <trkpt lat="46.72645" lon="-1.51173">
        <ele>67</ele>
        <time>2024-12-16T21:06:44Z</time>
      </trkpt>
      <trkpt lat="46.72652" lon="-1.51168">
        <ele>66</ele>
        <time>2024-12-16T21:06:46Z</time>
      </trkpt>
      <trkpt lat="46.72668" lon="-1.51162">
        <ele>66</ele>
        <time>2024-12-16T21:06:49Z</time>
      </trkpt>
      <trkpt lat="46.72705" lon="-1.51166">
        <ele>66</ele>
        <time>2024-12-16T21:06:55Z</time>
      </trkpt>
      <trkpt lat="46.72711" lon="-1.51169">
        <ele>66</ele>
        <time>2024-12-16T21:06:56Z</time>
      </trkpt>
      <trkpt lat="46.72723" lon="-1.51179">
        <ele>66</ele>
        <time>2024-12-16T21:06:59Z</time>
      </trkpt>
      <trkpt lat="46.72725" lon="-1.51181">
        <ele>66</ele>
        <time>2024-12-16T21:06:59Z</time>
      </trkpt>
      <trkpt lat="46.72732" lon="-1.51194">
        <ele>67</ele>
        <time>2024-12-16T21:07:01Z</time>
      </trkpt>
      <trkpt lat="46.72765" lon="-1.51257">
        <ele>69</ele>
        <time>2024-12-16T21:07:11Z</time>
      </trkpt>
      <trkpt lat="46.72769" lon="-1.51257">
        <ele>68</ele>
        <time>2024-12-16T21:07:12Z</time>
      </trkpt>
      <trkpt lat="46.72769" lon="-1.51258">
        <ele>68</ele>
        <time>2024-12-16T21:07:12Z</time>
      </trkpt>
      <trkpt lat="46.72806" lon="-1.51216">
        <ele>66</ele>
        <time>2024-12-16T21:07:20Z</time>
      </trkpt>
      <trkpt lat="46.72837" lon="-1.51181">
        <ele>65</ele>
        <time>2024-12-16T21:07:27Z</time>
      </trkpt>
      <trkpt lat="46.72855" lon="-1.5116">
        <ele>65</ele>
        <time>2024-12-16T21:07:31Z</time>
      </trkpt>
      <trkpt lat="46.72861" lon="-1.51151">
        <ele>65</ele>
        <time>2024-12-16T21:07:33Z</time>
      </trkpt>
      <trkpt lat="46.72866" lon="-1.51141">
        <ele>65</ele>
        <time>2024-12-16T21:07:34Z</time>
      </trkpt>
      <trkpt lat="46.72873" lon="-1.51121">
        <ele>65</ele>
        <time>2024-12-16T21:07:37Z</time>
      </trkpt>
      <trkpt lat="46.7288" lon="-1.51122">
        <ele>65</ele>
        <time>2024-12-16T21:07:38Z</time>
      </trkpt>
      <trkpt lat="46.72884" lon="-1.51113">
        <ele>65</ele>
        <time>2024-12-16T21:07:40Z</time>
      </trkpt>
      <trkpt lat="46.72899" lon="-1.51114">
        <ele>65</ele>
        <time>2024-12-16T21:07:42Z</time>
      </trkpt>
      <trkpt lat="46.72915" lon="-1.51104">
        <ele>65</ele>
        <time>2024-12-16T21:07:45Z</time>
      </trkpt>
      <trkpt lat="46.73034" lon="-1.51017">
        <ele>68</ele>
        <time>2024-12-16T21:08:09Z</time>
      </trkpt>
      <trkpt lat="46.73063" lon="-1.50989">
        <ele>68</ele>
        <time>2024-12-16T21:08:15Z</time>
      </trkpt>
      <trkpt lat="46.73109" lon="-1.50941">
        <ele>69</ele>
        <time>2024-12-16T21:08:25Z</time>
      </trkpt>
      <trkpt lat="46.73198" lon="-1.50865">
        <ele>69</ele>
        <time>2024-12-16T21:08:44Z</time>
      </trkpt>
      <trkpt lat="46.73231" lon="-1.5084">
        <ele>68</ele>
        <time>2024-12-16T21:08:50Z</time>
      </trkpt>
      <trkpt lat="46.73315" lon="-1.50779">
        <ele>66</ele>
        <time>2024-12-16T21:09:07Z</time>
      </trkpt>
      <trkpt lat="46.73321" lon="-1.50775">
        <ele>66</ele>
        <time>2024-12-16T21:09:08Z</time>
      </trkpt>
      <trkpt lat="46.73404" lon="-1.50717">
        <ele>64</ele>
        <time>2024-12-16T21:09:25Z</time>
      </trkpt>
      <trkpt lat="46.73445" lon="-1.50696">
        <ele>63</ele>
        <time>2024-12-16T21:09:32Z</time>
      </trkpt>
      <trkpt lat="46.73472" lon="-1.50687">
        <ele>62</ele>
        <time>2024-12-16T21:09:37Z</time>
      </trkpt>
      <trkpt lat="46.73744" lon="-1.50619">
        <ele>63</ele>
        <time>2024-12-16T21:10:26Z</time>
      </trkpt>
      <trkpt lat="46.73795" lon="-1.50611">
        <ele>62</ele>
        <time>2024-12-16T21:10:35Z</time>
      </trkpt>
      <trkpt lat="46.7382" lon="-1.5061">
        <ele>62</ele>
        <time>2024-12-16T21:10:40Z</time>
      </trkpt>
      <trkpt lat="46.73938" lon="-1.50609">
        <ele>62</ele>
        <time>2024-12-16T21:11:01Z</time>
      </trkpt>
      <trkpt lat="46.74111" lon="-1.50611">
        <ele>60</ele>
        <time>2024-12-16T21:11:32Z</time>
      </trkpt>
      <trkpt lat="46.7413" lon="-1.50614">
        <ele>59</ele>
        <time>2024-12-16T21:11:35Z</time>
      </trkpt>
      <trkpt lat="46.74149" lon="-1.50619">
        <ele>58</ele>
        <time>2024-12-16T21:11:38Z</time>
      </trkpt>
      <trkpt lat="46.74162" lon="-1.50625">
        <ele>58</ele>
        <time>2024-12-16T21:11:41Z</time>
      </trkpt>
      <trkpt lat="46.74201" lon="-1.50652">
        <ele>57</ele>
        <time>2024-12-16T21:11:49Z</time>
      </trkpt>
      <trkpt lat="46.74213" lon="-1.5066">
        <ele>56</ele>
        <time>2024-12-16T21:11:51Z</time>
      </trkpt>
      <trkpt lat="46.74248" lon="-1.50685">
        <ele>56</ele>
        <time>2024-12-16T21:11:58Z</time>
      </trkpt>
      <trkpt lat="46.74263" lon="-1.50689">
        <ele>56</ele>
        <time>2024-12-16T21:12:01Z</time>
      </trkpt>
      <trkpt lat="46.74281" lon="-1.50689">
        <ele>57</ele>
        <time>2024-12-16T21:12:04Z</time>
      </trkpt>
      <trkpt lat="46.74304" lon="-1.50679">
        <ele>58</ele>
        <time>2024-12-16T21:12:08Z</time>
      </trkpt>
      <trkpt lat="46.74407" lon="-1.50602">
        <ele>60</ele>
        <time>2024-12-16T21:12:29Z</time>
      </trkpt>
      <trkpt lat="46.74439" lon="-1.50585">
        <ele>61</ele>
        <time>2024-12-16T21:12:35Z</time>
      </trkpt>
      <trkpt lat="46.74451" lon="-1.50581">
        <ele>61</ele>
        <time>2024-12-16T21:12:37Z</time>
      </trkpt>
      <trkpt lat="46.74474" lon="-1.50581">
        <ele>61</ele>
        <time>2024-12-16T21:12:41Z</time>
      </trkpt>
      <trkpt lat="46.74501" lon="-1.50584">
        <ele>62</ele>
        <time>2024-12-16T21:12:46Z</time>
      </trkpt>
      <trkpt lat="46.74579" lon="-1.506">
        <ele>61</ele>
        <time>2024-12-16T21:13:00Z</time>
      </trkpt>
      <trkpt lat="46.7469" lon="-1.50623">
        <ele>64</ele>
        <time>2024-12-16T21:13:20Z</time>
      </trkpt>
      <trkpt lat="46.7482" lon="-1.5065">
        <ele>69</ele>
        <time>2024-12-16T21:13:43Z</time>
      </trkpt>
      <trkpt lat="46.74907" lon="-1.50669">
        <ele>71</ele>
        <time>2024-12-16T21:13:59Z</time>
      </trkpt>
      <trkpt lat="46.75158" lon="-1.5072">
        <ele>68</ele>
        <time>2024-12-16T21:14:44Z</time>
      </trkpt>
      <trkpt lat="46.75227" lon="-1.50739">
        <ele>64</ele>
        <time>2024-12-16T21:14:56Z</time>
      </trkpt>
      <trkpt lat="46.75274" lon="-1.50764">
        <ele>62</ele>
        <time>2024-12-16T21:15:05Z</time>
      </trkpt>
      <trkpt lat="46.75533" lon="-1.50914">
        <ele>52</ele>
        <time>2024-12-16T21:15:55Z</time>
      </trkpt>
      <trkpt lat="46.7555" lon="-1.50923">
        <ele>52</ele>
        <time>2024-12-16T21:15:58Z</time>
      </trkpt>
      <trkpt lat="46.75647" lon="-1.50977">
        <ele>53</ele>
        <time>2024-12-16T21:16:17Z</time>
      </trkpt>
      <trkpt lat="46.75684" lon="-1.5099">
        <ele>54</ele>
        <time>2024-12-16T21:16:23Z</time>
      </trkpt>
      <trkpt lat="46.75865" lon="-1.51046">
        <ele>53</ele>
        <time>2024-12-16T21:16:56Z</time>
      </trkpt>
      <trkpt lat="46.75912" lon="-1.51053">
        <ele>54</ele>
        <time>2024-12-16T21:17:05Z</time>
      </trkpt>
      <trkpt lat="46.75912" lon="-1.51068">
        <ele>54</ele>
        <time>2024-12-16T21:17:06Z</time>
      </trkpt>
      <trkpt lat="46.75913" lon="-1.51078">
        <ele>55</ele>
        <time>2024-12-16T21:17:08Z</time>
      </trkpt>
      <trkpt lat="46.75913" lon="-1.51078">
        <ele>55</ele>
        <time>2024-12-16T21:17:08Z</time>
      </trkpt>
      <trkpt lat="46.75915" lon="-1.51088">
        <ele>55</ele>
        <time>2024-12-16T21:17:09Z</time>
      </trkpt>
      <trkpt lat="46.75921" lon="-1.51094">
        <ele>55</ele>
        <time>2024-12-16T21:17:10Z</time>
      </trkpt>
      <trkpt lat="46.75926" lon="-1.51095">
        <ele>56</ele>
        <time>2024-12-16T21:17:11Z</time>
      </trkpt>
      <trkpt lat="46.75944" lon="-1.51091">
        <ele>56</ele>
        <time>2024-12-16T21:17:14Z</time>
      </trkpt>
      <trkpt lat="46.75953" lon="-1.51094">
        <ele>56</ele>
        <time>2024-12-16T21:17:16Z</time>
      </trkpt>
      <trkpt lat="46.75958" lon="-1.51099">
        <ele>56</ele>
        <time>2024-12-16T21:17:17Z</time>
      </trkpt>
      <trkpt lat="46.75966" lon="-1.51126">
        <ele>57</ele>
        <time>2024-12-16T21:17:21Z</time>
      </trkpt>
      <trkpt lat="46.75968" lon="-1.5113">
        <ele>57</ele>
        <time>2024-12-16T21:17:21Z</time>
      </trkpt>
      <trkpt lat="46.75973" lon="-1.51132">
        <ele>57</ele>
        <time>2024-12-16T21:17:22Z</time>
      </trkpt>
      <trkpt lat="46.75985" lon="-1.5112">
        <ele>57</ele>
        <time>2024-12-16T21:17:25Z</time>
      </trkpt>
      <trkpt lat="46.75985" lon="-1.5112">
        <ele>57</ele>
        <time>2024-12-16T21:17:25Z</time>
      </trkpt>
      <trkpt lat="46.75994" lon="-1.51105">
        <ele>57</ele>
        <time>2024-12-16T21:17:27Z</time>
      </trkpt>
      <trkpt lat="46.75999" lon="-1.51116">
        <ele>57</ele>
        <time>2024-12-16T21:17:29Z</time>
      </trkpt>
      <trkpt lat="46.76007" lon="-1.51122">
        <ele>57</ele>
        <time>2024-12-16T21:17:30Z</time>
      </trkpt>
      <trkpt lat="46.76018" lon="-1.51123">
        <ele>57</ele>
        <time>2024-12-16T21:17:32Z</time>
      </trkpt>
      <trkpt lat="46.76027" lon="-1.51115">
        <ele>56</ele>
        <time>2024-12-16T21:17:34Z</time>
      </trkpt>
      <trkpt lat="46.76032" lon="-1.51103">
        <ele>56</ele>
        <time>2024-12-16T21:17:36Z</time>
      </trkpt>
      <trkpt lat="46.76033" lon="-1.5109">
        <ele>56</ele>
        <time>2024-12-16T21:17:38Z</time>
      </trkpt>
      <trkpt lat="46.76042" lon="-1.51086">
        <ele>55</ele>
        <time>2024-12-16T21:17:39Z</time>
      </trkpt>
      <trkpt lat="46.7604" lon="-1.51049">
        <ele>53</ele>
        <time>2024-12-16T21:17:44Z</time>
      </trkpt>
      <trkpt lat="46.76041" lon="-1.51044">
        <ele>53</ele>
        <time>2024-12-16T21:17:44Z</time>
      </trkpt>
      <trkpt lat="46.76044" lon="-1.51038">
        <ele>52</ele>
        <time>2024-12-16T21:17:45Z</time>
      </trkpt>
      <trkpt lat="46.76089" lon="-1.51025">
        <ele>50</ele>
        <time>2024-12-16T21:17:53Z</time>
      </trkpt>
      <trkpt lat="46.76111" lon="-1.51006">
        <ele>48</ele>
        <time>2024-12-16T21:17:58Z</time>
      </trkpt>
      <trkpt lat="46.76132" lon="-1.50996">
        <ele>46</ele>
        <time>2024-12-16T21:18:02Z</time>
      </trkpt>
      <trkpt lat="46.76142" lon="-1.50988">
        <ele>45</ele>
        <time>2024-12-16T21:18:04Z</time>
      </trkpt>
      <trkpt lat="46.76158" lon="-1.50993">
        <ele>44</ele>
        <time>2024-12-16T21:18:07Z</time>
      </trkpt>
      <trkpt lat="46.76172" lon="-1.50985">
        <ele>44</ele>
        <time>2024-12-16T21:18:10Z</time>
      </trkpt>
      <trkpt lat="46.762" lon="-1.50987">
        <ele>44</ele>
        <time>2024-12-16T21:18:15Z</time>
      </trkpt>
      <trkpt lat="46.76214" lon="-1.50982">
        <ele>44</ele>
        <time>2024-12-16T21:18:17Z</time>
      </trkpt>
      <trkpt lat="46.76228" lon="-1.50983">
        <ele>44</ele>
        <time>2024-12-16T21:18:20Z</time>
      </trkpt>
      <trkpt lat="46.76238" lon="-1.50977">
        <ele>44</ele>
        <time>2024-12-16T21:18:22Z</time>
      </trkpt>
      <trkpt lat="46.76249" lon="-1.50977">
        <ele>44</ele>
        <time>2024-12-16T21:18:24Z</time>
      </trkpt>
      <trkpt lat="46.7625" lon="-1.50986">
        <ele>44</ele>
        <time>2024-12-16T21:18:25Z</time>
      </trkpt>
      <trkpt lat="46.76383" lon="-1.50957">
        <ele>44</ele>
        <time>2024-12-16T21:18:49Z</time>
      </trkpt>
      <trkpt lat="46.76395" lon="-1.50956">
        <ele>43</ele>
        <time>2024-12-16T21:18:51Z</time>
      </trkpt>
      <trkpt lat="46.7642" lon="-1.50959">
        <ele>43</ele>
        <time>2024-12-16T21:18:55Z</time>
      </trkpt>
      <trkpt lat="46.7644" lon="-1.50966">
        <ele>44</ele>
        <time>2024-12-16T21:18:59Z</time>
      </trkpt>
      <trkpt lat="46.76454" lon="-1.50972">
        <ele>44</ele>
        <time>2024-12-16T21:19:01Z</time>
      </trkpt>
      <trkpt lat="46.76468" lon="-1.50984">
        <ele>44</ele>
        <time>2024-12-16T21:19:04Z</time>
      </trkpt>
      <trkpt lat="46.76483" lon="-1.50998">
        <ele>43</ele>
        <time>2024-12-16T21:19:07Z</time>
      </trkpt>
      <trkpt lat="46.76535" lon="-1.51057">
        <ele>45</ele>
        <time>2024-12-16T21:19:19Z</time>
      </trkpt>
      <trkpt lat="46.76548" lon="-1.51065">
        <ele>45</ele>
        <time>2024-12-16T21:19:22Z</time>
      </trkpt>
      <trkpt lat="46.76552" lon="-1.51067">
        <ele>45</ele>
        <time>2024-12-16T21:19:22Z</time>
      </trkpt>
      <trkpt lat="46.76558" lon="-1.51068">
        <ele>44</ele>
        <time>2024-12-16T21:19:24Z</time>
      </trkpt>
      <trkpt lat="46.76572" lon="-1.5107">
        <ele>44</ele>
        <time>2024-12-16T21:19:26Z</time>
      </trkpt>
      <trkpt lat="46.76574" lon="-1.5107">
        <ele>44</ele>
        <time>2024-12-16T21:19:26Z</time>
      </trkpt>
      <trkpt lat="46.76607" lon="-1.51074">
        <ele>42</ele>
        <time>2024-12-16T21:19:32Z</time>
      </trkpt>
      <trkpt lat="46.76622" lon="-1.51071">
        <ele>42</ele>
        <time>2024-12-16T21:19:35Z</time>
      </trkpt>
      <trkpt lat="46.76642" lon="-1.51063">
        <ele>42</ele>
        <time>2024-12-16T21:19:39Z</time>
      </trkpt>
      <trkpt lat="46.76709" lon="-1.51036">
        <ele>45</ele>
        <time>2024-12-16T21:19:51Z</time>
      </trkpt>
      <trkpt lat="46.76712" lon="-1.51043">
        <ele>45</ele>
        <time>2024-12-16T21:19:52Z</time>
      </trkpt>
      <trkpt lat="46.76732" lon="-1.51051">
        <ele>45</ele>
        <time>2024-12-16T21:19:56Z</time>
      </trkpt>
      <trkpt lat="46.7674" lon="-1.5106">
        <ele>45</ele>
        <time>2024-12-16T21:19:58Z</time>
      </trkpt>
      <trkpt lat="46.76756" lon="-1.51078">
        <ele>45</ele>
        <time>2024-12-16T21:20:01Z</time>
      </trkpt>
      <trkpt lat="46.7676" lon="-1.51062">
        <ele>46</ele>
        <time>2024-12-16T21:20:03Z</time>
      </trkpt>
      <trkpt lat="46.76769" lon="-1.51035">
        <ele>49</ele>
        <time>2024-12-16T21:20:07Z</time>
      </trkpt>
      <trkpt lat="46.76777" lon="-1.51017">
        <ele>51</ele>
        <time>2024-12-16T21:20:09Z</time>
      </trkpt>
      <trkpt lat="46.76789" lon="-1.51003">
        <ele>52</ele>
        <time>2024-12-16T21:20:12Z</time>
      </trkpt>
      <trkpt lat="46.76811" lon="-1.50975">
        <ele>54</ele>
        <time>2024-12-16T21:20:17Z</time>
      </trkpt>
      <trkpt lat="46.76814" lon="-1.50961">
        <ele>54</ele>
        <time>2024-12-16T21:20:19Z</time>
      </trkpt>
      <trkpt lat="46.76814" lon="-1.50955">
        <ele>54</ele>
        <time>2024-12-16T21:20:20Z</time>
      </trkpt>
      <trkpt lat="46.76815" lon="-1.50942">
        <ele>55</ele>
        <time>2024-12-16T21:20:22Z</time>
      </trkpt>
      <trkpt lat="46.7682" lon="-1.50916">
        <ele>55</ele>
        <time>2024-12-16T21:20:25Z</time>
      </trkpt>
      <trkpt lat="46.76822" lon="-1.50911">
        <ele>55</ele>
        <time>2024-12-16T21:20:25Z</time>
      </trkpt>
      <trkpt lat="46.76824" lon="-1.50908">
        <ele>55</ele>
        <time>2024-12-16T21:20:26Z</time>
      </trkpt>
      <trkpt lat="46.76829" lon="-1.509">
        <ele>56</ele>
        <time>2024-12-16T21:20:27Z</time>
      </trkpt>
      <trkpt lat="46.76833" lon="-1.50894">
        <ele>56</ele>
        <time>2024-12-16T21:20:28Z</time>
      </trkpt>
      <trkpt lat="46.76839" lon="-1.50883">
        <ele>56</ele>
        <time>2024-12-16T21:20:30Z</time>
      </trkpt>
      <trkpt lat="46.76841" lon="-1.50869">
        <ele>57</ele>
        <time>2024-12-16T21:20:32Z</time>
      </trkpt>
      <trkpt lat="46.76839" lon="-1.50883">
        <ele>56</ele>
        <time>2024-12-16T21:20:34Z</time>
      </trkpt>
      <trkpt lat="46.76863" lon="-1.50919">
        <ele>56</ele>
        <time>2024-12-16T21:20:40Z</time>
      </trkpt>
      <trkpt lat="46.76875" lon="-1.50956">
        <ele>56</ele>
        <time>2024-12-16T21:20:45Z</time>
      </trkpt>
      <trkpt lat="46.76877" lon="-1.50961">
        <ele>57</ele>
        <time>2024-12-16T21:20:45Z</time>
      </trkpt>
      <trkpt lat="46.76884" lon="-1.50989">
        <ele>57</ele>
        <time>2024-12-16T21:20:49Z</time>
      </trkpt>
      <trkpt lat="46.76897" lon="-1.50992">
        <ele>57</ele>
        <time>2024-12-16T21:20:51Z</time>
      </trkpt>
      <trkpt lat="46.76914" lon="-1.50997">
        <ele>58</ele>
        <time>2024-12-16T21:20:54Z</time>
      </trkpt>
      <trkpt lat="46.76937" lon="-1.51004">
        <ele>58</ele>
        <time>2024-12-16T21:20:59Z</time>
      </trkpt>
      <trkpt lat="46.76955" lon="-1.51018">
        <ele>58</ele>
        <time>2024-12-16T21:21:02Z</time>
      </trkpt>
      <trkpt lat="46.76966" lon="-1.51027">
        <ele>58</ele>
        <time>2024-12-16T21:21:04Z</time>
      </trkpt>
      <trkpt lat="46.76999" lon="-1.51049">
        <ele>57</ele>
        <time>2024-12-16T21:21:11Z</time>
      </trkpt>
      <trkpt lat="46.77002" lon="-1.51045">
        <ele>57</ele>
        <time>2024-12-16T21:21:12Z</time>
      </trkpt>
      <trkpt lat="46.77005" lon="-1.51045">
        <ele>58</ele>
        <time>2024-12-16T21:21:12Z</time>
      </trkpt>
      <trkpt lat="46.77007" lon="-1.51053">
        <ele>58</ele>
        <time>2024-12-16T21:21:13Z</time>
      </trkpt>
      <trkpt lat="46.77078" lon="-1.51094">
        <ele>59</ele>
        <time>2024-12-16T21:21:27Z</time>
      </trkpt>
      <trkpt lat="46.7711" lon="-1.51113">
        <ele>60</ele>
        <time>2024-12-16T21:21:33Z</time>
      </trkpt>
      <trkpt lat="46.77165" lon="-1.51146">
        <ele>62</ele>
        <time>2024-12-16T21:21:44Z</time>
      </trkpt>
      <trkpt lat="46.77171" lon="-1.51149">
        <ele>62</ele>
        <time>2024-12-16T21:21:45Z</time>
      </trkpt>
      <trkpt lat="46.77197" lon="-1.51166">
        <ele>64</ele>
        <time>2024-12-16T21:21:50Z</time>
      </trkpt>
      <trkpt lat="46.77221" lon="-1.5118">
        <ele>64</ele>
        <time>2024-12-16T21:21:54Z</time>
      </trkpt>
      <trkpt lat="46.7724" lon="-1.5119">
        <ele>65</ele>
        <time>2024-12-16T21:21:58Z</time>
      </trkpt>
      <trkpt lat="46.77331" lon="-1.51244">
        <ele>66</ele>
        <time>2024-12-16T21:22:15Z</time>
      </trkpt>
      <trkpt lat="46.77348" lon="-1.51254">
        <ele>66</ele>
        <time>2024-12-16T21:22:19Z</time>
      </trkpt>
      <trkpt lat="46.77377" lon="-1.51275">
        <ele>66</ele>
        <time>2024-12-16T21:22:24Z</time>
      </trkpt>
      <trkpt lat="46.77397" lon="-1.51292">
        <ele>66</ele>
        <time>2024-12-16T21:22:29Z</time>
      </trkpt>
      <trkpt lat="46.77433" lon="-1.51328">
        <ele>65</ele>
        <time>2024-12-16T21:22:36Z</time>
      </trkpt>
      <trkpt lat="46.77467" lon="-1.5137">
        <ele>64</ele>
        <time>2024-12-16T21:22:44Z</time>
      </trkpt>
      <trkpt lat="46.7748" lon="-1.5138">
        <ele>63</ele>
        <time>2024-12-16T21:22:47Z</time>
      </trkpt>
      <trkpt lat="46.77488" lon="-1.51377">
        <ele>63</ele>
        <time>2024-12-16T21:22:48Z</time>
      </trkpt>
      <trkpt lat="46.77508" lon="-1.51435">
        <ele>62</ele>
        <time>2024-12-16T21:22:56Z</time>
      </trkpt>
      <trkpt lat="46.77512" lon="-1.51444">
        <ele>62</ele>
        <time>2024-12-16T21:22:58Z</time>
      </trkpt>
      <trkpt lat="46.7756" lon="-1.51523">
        <ele>62</ele>
        <time>2024-12-16T21:23:10Z</time>
      </trkpt>
      <trkpt lat="46.77563" lon="-1.51529">
        <ele>62</ele>
        <time>2024-12-16T21:23:11Z</time>
      </trkpt>
      <trkpt lat="46.77574" lon="-1.51547">
        <ele>62</ele>
        <time>2024-12-16T21:23:14Z</time>
      </trkpt>
      <trkpt lat="46.77611" lon="-1.51609">
        <ele>62</ele>
        <time>2024-12-16T21:23:24Z</time>
      </trkpt>
      <trkpt lat="46.77613" lon="-1.51602">
        <ele>62</ele>
        <time>2024-12-16T21:23:25Z</time>
      </trkpt>
      <trkpt lat="46.77621" lon="-1.51595">
        <ele>62</ele>
        <time>2024-12-16T21:23:27Z</time>
      </trkpt>
      <trkpt lat="46.77613" lon="-1.51602">
        <ele>62</ele>
        <time>2024-12-16T21:23:29Z</time>
      </trkpt>
      <trkpt lat="46.77611" lon="-1.51609">
        <ele>62</ele>
        <time>2024-12-16T21:23:29Z</time>
      </trkpt>
      <trkpt lat="46.77745" lon="-1.51829">
        <ele>58</ele>
        <time>2024-12-16T21:24:05Z</time>
      </trkpt>
      <trkpt lat="46.77746" lon="-1.51832">
        <ele>58</ele>
        <time>2024-12-16T21:24:06Z</time>
      </trkpt>
      <trkpt lat="46.77754" lon="-1.51855">
        <ele>57</ele>
        <time>2024-12-16T21:24:09Z</time>
      </trkpt>
      <trkpt lat="46.7778" lon="-1.51898">
        <ele>56</ele>
        <time>2024-12-16T21:24:16Z</time>
      </trkpt>
      <trkpt lat="46.77784" lon="-1.51904">
        <ele>56</ele>
        <time>2024-12-16T21:24:17Z</time>
      </trkpt>
      <trkpt lat="46.7779" lon="-1.51915">
        <ele>56</ele>
        <time>2024-12-16T21:24:19Z</time>
      </trkpt>
      <trkpt lat="46.77796" lon="-1.51926">
        <ele>55</ele>
        <time>2024-12-16T21:24:20Z</time>
      </trkpt>
      <trkpt lat="46.77829" lon="-1.51969">
        <ele>55</ele>
        <time>2024-12-16T21:24:28Z</time>
      </trkpt>
      <trkpt lat="46.77862" lon="-1.52023">
        <ele>53</ele>
        <time>2024-12-16T21:24:37Z</time>
      </trkpt>
      <trkpt lat="46.77938" lon="-1.52151">
        <ele>49</ele>
        <time>2024-12-16T21:24:58Z</time>
      </trkpt>
      <trkpt lat="46.7799" lon="-1.52235">
        <ele>48</ele>
        <time>2024-12-16T21:25:11Z</time>
      </trkpt>
      <trkpt lat="46.78046" lon="-1.52329">
        <ele>48</ele>
        <time>2024-12-16T21:25:27Z</time>
      </trkpt>
      <trkpt lat="46.78085" lon="-1.52392">
        <ele>49</ele>
        <time>2024-12-16T21:25:37Z</time>
      </trkpt>
      <trkpt lat="46.78114" lon="-1.52438">
        <ele>50</ele>
        <time>2024-12-16T21:25:45Z</time>
      </trkpt>
      <trkpt lat="46.78161" lon="-1.52519">
        <ele>49</ele>
        <time>2024-12-16T21:25:58Z</time>
      </trkpt>
      <trkpt lat="46.78181" lon="-1.52561">
        <ele>48</ele>
        <time>2024-12-16T21:26:04Z</time>
      </trkpt>
      <trkpt lat="46.78192" lon="-1.52585">
        <ele>47</ele>
        <time>2024-12-16T21:26:07Z</time>
      </trkpt>
      <trkpt lat="46.78213" lon="-1.52656">
        <ele>45</ele>
        <time>2024-12-16T21:26:17Z</time>
      </trkpt>
      <trkpt lat="46.7822" lon="-1.52689">
        <ele>44</ele>
        <time>2024-12-16T21:26:21Z</time>
      </trkpt>
      <trkpt lat="46.78225" lon="-1.52723">
        <ele>42</ele>
        <time>2024-12-16T21:26:25Z</time>
      </trkpt>
      <trkpt lat="46.78227" lon="-1.52756">
        <ele>41</ele>
        <time>2024-12-16T21:26:29Z</time>
      </trkpt>
      <trkpt lat="46.78251" lon="-1.53068">
        <ele>31</ele>
        <time>2024-12-16T21:27:07Z</time>
      </trkpt>
      <trkpt lat="46.78255" lon="-1.53118">
        <ele>31</ele>
        <time>2024-12-16T21:27:14Z</time>
      </trkpt>
      <trkpt lat="46.78263" lon="-1.53217">
        <ele>30</ele>
        <time>2024-12-16T21:27:26Z</time>
      </trkpt>
      <trkpt lat="46.78274" lon="-1.53368">
        <ele>33</ele>
        <time>2024-12-16T21:27:44Z</time>
      </trkpt>
      <trkpt lat="46.78274" lon="-1.53436">
        <ele>34</ele>
        <time>2024-12-16T21:27:52Z</time>
      </trkpt>
      <trkpt lat="46.78319" lon="-1.53647">
        <ele>38</ele>
        <time>2024-12-16T21:28:19Z</time>
      </trkpt>
      <trkpt lat="46.7832" lon="-1.53662">
        <ele>39</ele>
        <time>2024-12-16T21:28:21Z</time>
      </trkpt>
      <trkpt lat="46.78319" lon="-1.53669">
        <ele>39</ele>
        <time>2024-12-16T21:28:22Z</time>
      </trkpt>
      <trkpt lat="46.78307" lon="-1.53679">
        <ele>39</ele>
        <time>2024-12-16T21:28:25Z</time>
      </trkpt>
      <trkpt lat="46.7834" lon="-1.53839">
        <ele>46</ele>
        <time>2024-12-16T21:28:45Z</time>
      </trkpt>
      <trkpt lat="46.78371" lon="-1.53983">
        <ele>49</ele>
        <time>2024-12-16T21:29:03Z</time>
      </trkpt>
      <trkpt lat="46.78381" lon="-1.5404">
        <ele>51</ele>
        <time>2024-12-16T21:29:11Z</time>
      </trkpt>
      <trkpt lat="46.78385" lon="-1.54088">
        <ele>53</ele>
        <time>2024-12-16T21:29:16Z</time>
      </trkpt>
      <trkpt lat="46.78385" lon="-1.5411">
        <ele>55</ele>
        <time>2024-12-16T21:29:19Z</time>
      </trkpt>
      <trkpt lat="46.78383" lon="-1.54205">
        <ele>58</ele>
        <time>2024-12-16T21:29:31Z</time>
      </trkpt>
      <trkpt lat="46.78378" lon="-1.54402">
        <ele>55</ele>
        <time>2024-12-16T21:29:55Z</time>
      </trkpt>
      <trkpt lat="46.78378" lon="-1.54451">
        <ele>54</ele>
        <time>2024-12-16T21:30:01Z</time>
      </trkpt>
      <trkpt lat="46.78383" lon="-1.54504">
        <ele>54</ele>
        <time>2024-12-16T21:30:07Z</time>
      </trkpt>
      <trkpt lat="46.78389" lon="-1.54548">
        <ele>54</ele>
        <time>2024-12-16T21:30:13Z</time>
      </trkpt>
      <trkpt lat="46.784" lon="-1.54604">
        <ele>55</ele>
        <time>2024-12-16T21:30:20Z</time>
      </trkpt>
      <trkpt lat="46.78407" lon="-1.54631">
        <ele>56</ele>
        <time>2024-12-16T21:30:23Z</time>
      </trkpt>
      <trkpt lat="46.78484" lon="-1.54872">
        <ele>62</ele>
        <time>2024-12-16T21:30:56Z</time>
      </trkpt>
      <trkpt lat="46.78586" lon="-1.55185">
        <ele>67</ele>
        <time>2024-12-16T21:31:38Z</time>
      </trkpt>
      <trkpt lat="46.78612" lon="-1.55251">
        <ele>68</ele>
        <time>2024-12-16T21:31:47Z</time>
      </trkpt>
      <trkpt lat="46.78647" lon="-1.55321">
        <ele>69</ele>
        <time>2024-12-16T21:31:58Z</time>
      </trkpt>
      <trkpt lat="46.78665" lon="-1.55349">
        <ele>69</ele>
        <time>2024-12-16T21:32:02Z</time>
      </trkpt>
      <trkpt lat="46.78701" lon="-1.55401">
        <ele>68</ele>
        <time>2024-12-16T21:32:11Z</time>
      </trkpt>
      <trkpt lat="46.7882" lon="-1.55559">
        <ele>70</ele>
        <time>2024-12-16T21:32:40Z</time>
      </trkpt>
      <trkpt lat="46.78839" lon="-1.55591">
        <ele>70</ele>
        <time>2024-12-16T21:32:45Z</time>
      </trkpt>
      <trkpt lat="46.78848" lon="-1.55611">
        <ele>69</ele>
        <time>2024-12-16T21:32:48Z</time>
      </trkpt>
      <trkpt lat="46.78862" lon="-1.55653">
        <ele>69</ele>
        <time>2024-12-16T21:32:54Z</time>
      </trkpt>
      <trkpt lat="46.78872" lon="-1.55709">
        <ele>69</ele>
        <time>2024-12-16T21:33:01Z</time>
      </trkpt>
      <trkpt lat="46.78885" lon="-1.55917">
        <ele>68</ele>
        <time>2024-12-16T21:33:26Z</time>
      </trkpt>
      <trkpt lat="46.78907" lon="-1.56303">
        <ele>67</ele>
        <time>2024-12-16T21:34:13Z</time>
      </trkpt>
      <trkpt lat="46.78921" lon="-1.56455">
        <ele>66</ele>
        <time>2024-12-16T21:34:32Z</time>
      </trkpt>
      <trkpt lat="46.78933" lon="-1.56527">
        <ele>67</ele>
        <time>2024-12-16T21:34:41Z</time>
      </trkpt>
      <trkpt lat="46.78948" lon="-1.56582">
        <ele>68</ele>
        <time>2024-12-16T21:34:48Z</time>
      </trkpt>
      <trkpt lat="46.79138" lon="-1.57325">
        <ele>63</ele>
        <time>2024-12-16T21:36:25Z</time>
      </trkpt>
      <trkpt lat="46.79149" lon="-1.57369">
        <ele>63</ele>
        <time>2024-12-16T21:36:31Z</time>
      </trkpt>
      <trkpt lat="46.7916" lon="-1.57404">
        <ele>63</ele>
        <time>2024-12-16T21:36:35Z</time>
      </trkpt>
      <trkpt lat="46.7917" lon="-1.57437">
        <ele>63</ele>
        <time>2024-12-16T21:36:40Z</time>
      </trkpt>
      <trkpt lat="46.79196" lon="-1.57507">
        <ele>63</ele>
        <time>2024-12-16T21:36:50Z</time>
      </trkpt>
      <trkpt lat="46.79234" lon="-1.57582">
        <ele>61</ele>
        <time>2024-12-16T21:37:01Z</time>
      </trkpt>
      <trkpt lat="46.79323" lon="-1.57705">
        <ele>61</ele>
        <time>2024-12-16T21:37:23Z</time>
      </trkpt>
      <trkpt lat="46.79328" lon="-1.57712">
        <ele>61</ele>
        <time>2024-12-16T21:37:24Z</time>
      </trkpt>
      <trkpt lat="46.79355" lon="-1.57751">
        <ele>61</ele>
        <time>2024-12-16T21:37:31Z</time>
      </trkpt>
      <trkpt lat="46.79533" lon="-1.57981">
        <ele>57</ele>
        <time>2024-12-16T21:38:13Z</time>
      </trkpt>
      <trkpt lat="46.79574" lon="-1.58028">
        <ele>58</ele>
        <time>2024-12-16T21:38:22Z</time>
      </trkpt>
      <trkpt lat="46.7964" lon="-1.58118">
        <ele>59</ele>
        <time>2024-12-16T21:38:38Z</time>
      </trkpt>
      <trkpt lat="46.79678" lon="-1.58169">
        <ele>59</ele>
        <time>2024-12-16T21:38:47Z</time>
      </trkpt>
      <trkpt lat="46.7978" lon="-1.58307">
        <ele>59</ele>
        <time>2024-12-16T21:39:12Z</time>
      </trkpt>
      <trkpt lat="46.79802" lon="-1.58345">
        <ele>60</ele>
        <time>2024-12-16T21:39:18Z</time>
      </trkpt>
      <trkpt lat="46.79815" lon="-1.58389">
        <ele>61</ele>
        <time>2024-12-16T21:39:24Z</time>
      </trkpt>
      <trkpt lat="46.7982" lon="-1.58408">
        <ele>62</ele>
        <time>2024-12-16T21:39:27Z</time>
      </trkpt>
      <trkpt lat="46.79827" lon="-1.58464">
        <ele>62</ele>
        <time>2024-12-16T21:39:34Z</time>
      </trkpt>
      <trkpt lat="46.79828" lon="-1.58481">
        <ele>63</ele>
        <time>2024-12-16T21:39:36Z</time>
      </trkpt>
      <trkpt lat="46.79826" lon="-1.58537">
        <ele>63</ele>
        <time>2024-12-16T21:39:42Z</time>
      </trkpt>
      <trkpt lat="46.79824" lon="-1.58608">
        <ele>63</ele>
        <time>2024-12-16T21:39:51Z</time>
      </trkpt>
      <trkpt lat="46.79821" lon="-1.58798">
        <ele>63</ele>
        <time>2024-12-16T21:40:14Z</time>
      </trkpt>
      <trkpt lat="46.79822" lon="-1.58854">
        <ele>63</ele>
        <time>2024-12-16T21:40:21Z</time>
      </trkpt>
      <trkpt lat="46.79825" lon="-1.58908">
        <ele>62</ele>
        <time>2024-12-16T21:40:28Z</time>
      </trkpt>
      <trkpt lat="46.79834" lon="-1.58977">
        <ele>62</ele>
        <time>2024-12-16T21:40:36Z</time>
      </trkpt>
      <trkpt lat="46.79858" lon="-1.59096">
        <ele>61</ele>
        <time>2024-12-16T21:40:51Z</time>
      </trkpt>
      <trkpt lat="46.79869" lon="-1.59139">
        <ele>60</ele>
        <time>2024-12-16T21:40:57Z</time>
      </trkpt>
      <trkpt lat="46.79941" lon="-1.59362">
        <ele>60</ele>
        <time>2024-12-16T21:41:27Z</time>
      </trkpt>
      <trkpt lat="46.79973" lon="-1.5944">
        <ele>60</ele>
        <time>2024-12-16T21:41:38Z</time>
      </trkpt>
      <trkpt lat="46.80073" lon="-1.5965">
        <ele>56</ele>
        <time>2024-12-16T21:42:09Z</time>
      </trkpt>
      <trkpt lat="46.80173" lon="-1.59849">
        <ele>51</ele>
        <time>2024-12-16T21:42:39Z</time>
      </trkpt>
      <trkpt lat="46.80237" lon="-1.6">
        <ele>48</ele>
        <time>2024-12-16T21:43:01Z</time>
      </trkpt>
      <trkpt lat="46.80243" lon="-1.60015">
        <ele>48</ele>
        <time>2024-12-16T21:43:03Z</time>
      </trkpt>
      <trkpt lat="46.80378" lon="-1.60334">
        <ele>38</ele>
        <time>2024-12-16T21:43:49Z</time>
      </trkpt>
      <trkpt lat="46.80393" lon="-1.60379">
        <ele>37</ele>
        <time>2024-12-16T21:43:55Z</time>
      </trkpt>
      <trkpt lat="46.80401" lon="-1.60408">
        <ele>37</ele>
        <time>2024-12-16T21:43:59Z</time>
      </trkpt>
      <trkpt lat="46.80413" lon="-1.60471">
        <ele>36</ele>
        <time>2024-12-16T21:44:07Z</time>
      </trkpt>
      <trkpt lat="46.80416" lon="-1.60504">
        <ele>36</ele>
        <time>2024-12-16T21:44:11Z</time>
      </trkpt>
      <trkpt lat="46.80427" lon="-1.60756">
        <ele>34</ele>
        <time>2024-12-16T21:44:41Z</time>
      </trkpt>
      <trkpt lat="46.80428" lon="-1.60785">
        <ele>33</ele>
        <time>2024-12-16T21:44:45Z</time>
      </trkpt>
      <trkpt lat="46.80431" lon="-1.60785">
        <ele>33</ele>
        <time>2024-12-16T21:44:45Z</time>
      </trkpt>
      <trkpt lat="46.8044" lon="-1.60776">
        <ele>34</ele>
        <time>2024-12-16T21:44:47Z</time>
      </trkpt>
      <trkpt lat="46.80431" lon="-1.60785">
        <ele>33</ele>
        <time>2024-12-16T21:44:49Z</time>
      </trkpt>
      <trkpt lat="46.80428" lon="-1.60785">
        <ele>33</ele>
        <time>2024-12-16T21:44:50Z</time>
      </trkpt>
      <trkpt lat="46.80434" lon="-1.60915">
        <ele>32</ele>
        <time>2024-12-16T21:45:06Z</time>
      </trkpt>
      <trkpt lat="46.80439" lon="-1.60982">
        <ele>31</ele>
        <time>2024-12-16T21:45:14Z</time>
      </trkpt>
      <trkpt lat="46.80443" lon="-1.61017">
        <ele>30</ele>
        <time>2024-12-16T21:45:18Z</time>
      </trkpt>
      <trkpt lat="46.80452" lon="-1.61072">
        <ele>30</ele>
        <time>2024-12-16T21:45:25Z</time>
      </trkpt>
      <trkpt lat="46.8046" lon="-1.61123">
        <ele>30</ele>
        <time>2024-12-16T21:45:31Z</time>
      </trkpt>
      <trkpt lat="46.8047" lon="-1.61184">
        <ele>30</ele>
        <time>2024-12-16T21:45:39Z</time>
      </trkpt>
      <trkpt lat="46.80472" lon="-1.61212">
        <ele>30</ele>
        <time>2024-12-16T21:45:43Z</time>
      </trkpt>
      <trkpt lat="46.80474" lon="-1.61273">
        <ele>30</ele>
        <time>2024-12-16T21:45:50Z</time>
      </trkpt>
      <trkpt lat="46.80469" lon="-1.61417">
        <ele>28</ele>
        <time>2024-12-16T21:46:08Z</time>
      </trkpt>
      <trkpt lat="46.80468" lon="-1.61444">
        <ele>28</ele>
        <time>2024-12-16T21:46:11Z</time>
      </trkpt>
      <trkpt lat="46.80463" lon="-1.616">
        <ele>28</ele>
        <time>2024-12-16T21:46:30Z</time>
      </trkpt>
      <trkpt lat="46.80461" lon="-1.61654">
        <ele>27</ele>
        <time>2024-12-16T21:46:36Z</time>
      </trkpt>
      <trkpt lat="46.8046" lon="-1.61674">
        <ele>27</ele>
        <time>2024-12-16T21:46:39Z</time>
      </trkpt>
      <trkpt lat="46.8046" lon="-1.6169">
        <ele>27</ele>
        <time>2024-12-16T21:46:41Z</time>
      </trkpt>
      <trkpt lat="46.80458" lon="-1.61733">
        <ele>26</ele>
        <time>2024-12-16T21:46:46Z</time>
      </trkpt>
      <trkpt lat="46.80461" lon="-1.61772">
        <ele>26</ele>
        <time>2024-12-16T21:46:51Z</time>
      </trkpt>
      <trkpt lat="46.80462" lon="-1.61788">
        <ele>26</ele>
        <time>2024-12-16T21:46:53Z</time>
      </trkpt>
      <trkpt lat="46.80462" lon="-1.61811">
        <ele>26</ele>
        <time>2024-12-16T21:46:56Z</time>
      </trkpt>
      <trkpt lat="46.80461" lon="-1.6183">
        <ele>26</ele>
        <time>2024-12-16T21:46:58Z</time>
      </trkpt>
      <trkpt lat="46.80459" lon="-1.61841">
        <ele>26</ele>
        <time>2024-12-16T21:46:59Z</time>
      </trkpt>
      <trkpt lat="46.80454" lon="-1.61875">
        <ele>26</ele>
        <time>2024-12-16T21:47:04Z</time>
      </trkpt>
      <trkpt lat="46.80451" lon="-1.61894">
        <ele>26</ele>
        <time>2024-12-16T21:47:06Z</time>
      </trkpt>
      <trkpt lat="46.80442" lon="-1.61946">
        <ele>27</ele>
        <time>2024-12-16T21:47:12Z</time>
      </trkpt>
      <trkpt lat="46.80439" lon="-1.61954">
        <ele>27</ele>
        <time>2024-12-16T21:47:14Z</time>
      </trkpt>
      <trkpt lat="46.80446" lon="-1.61975">
        <ele>27</ele>
        <time>2024-12-16T21:47:16Z</time>
      </trkpt>
      <trkpt lat="46.80439" lon="-1.6198">
        <ele>27</ele>
        <time>2024-12-16T21:47:18Z</time>
      </trkpt>
      <trkpt lat="46.80438" lon="-1.61985">
        <ele>27</ele>
        <time>2024-12-16T21:47:18Z</time>
      </trkpt>
      <trkpt lat="46.80441" lon="-1.61999">
        <ele>27</ele>
        <time>2024-12-16T21:47:20Z</time>
      </trkpt>
      <trkpt lat="46.80443" lon="-1.62034">
        <ele>27</ele>
        <time>2024-12-16T21:47:25Z</time>
      </trkpt>
      <trkpt lat="46.80441" lon="-1.62082">
        <ele>27</ele>
        <time>2024-12-16T21:47:30Z</time>
      </trkpt>
      <trkpt lat="46.80438" lon="-1.62081">
        <ele>27</ele>
        <time>2024-12-16T21:47:31Z</time>
      </trkpt>
      <trkpt lat="46.80432" lon="-1.62111">
        <ele>27</ele>
        <time>2024-12-16T21:47:35Z</time>
      </trkpt>
      <trkpt lat="46.80448" lon="-1.62117">
        <ele>27</ele>
        <time>2024-12-16T21:47:38Z</time>
      </trkpt>
      <trkpt lat="46.80447" lon="-1.6212">
        <ele>27</ele>
        <time>2024-12-16T21:47:38Z</time>
      </trkpt>
      <trkpt lat="46.80436" lon="-1.62179">
        <ele>25</ele>
        <time>2024-12-16T21:47:46Z</time>
      </trkpt>
      <trkpt lat="46.80419" lon="-1.62277">
        <ele>23</ele>
        <time>2024-12-16T21:47:58Z</time>
      </trkpt>
      <trkpt lat="46.80413" lon="-1.62301">
        <ele>23</ele>
        <time>2024-12-16T21:48:01Z</time>
      </trkpt>
      <trkpt lat="46.80409" lon="-1.62314">
        <ele>23</ele>
        <time>2024-12-16T21:48:03Z</time>
      </trkpt>
      <trkpt lat="46.80399" lon="-1.62336">
        <ele>23</ele>
        <time>2024-12-16T21:48:06Z</time>
      </trkpt>
      <trkpt lat="46.80387" lon="-1.62365">
        <ele>23</ele>
        <time>2024-12-16T21:48:10Z</time>
      </trkpt>
      <trkpt lat="46.80373" lon="-1.62391">
        <ele>23</ele>
        <time>2024-12-16T21:48:14Z</time>
      </trkpt>
      <trkpt lat="46.80342" lon="-1.62434">
        <ele>24</ele>
        <time>2024-12-16T21:48:22Z</time>
      </trkpt>
      <trkpt lat="46.80341" lon="-1.62436">
        <ele>24</ele>
        <time>2024-12-16T21:48:22Z</time>
      </trkpt>
      <trkpt lat="46.80333" lon="-1.62441">
        <ele>24</ele>
        <time>2024-12-16T21:48:24Z</time>
      </trkpt>
      <trkpt lat="46.80313" lon="-1.62446">
        <ele>25</ele>
        <time>2024-12-16T21:48:27Z</time>
      </trkpt>
      <trkpt lat="46.80311" lon="-1.62455">
        <ele>25</ele>
        <time>2024-12-16T21:48:28Z</time>
      </trkpt>
      <trkpt lat="46.80306" lon="-1.62453">
        <ele>25</ele>
        <time>2024-12-16T21:48:29Z</time>
      </trkpt>
      <trkpt lat="46.80307" lon="-1.62459">
        <ele>25</ele>
        <time>2024-12-16T21:48:30Z</time>
      </trkpt>
      <trkpt lat="46.80299" lon="-1.62475">
        <ele>26</ele>
        <time>2024-12-16T21:48:32Z</time>
      </trkpt>
      <trkpt lat="46.80301" lon="-1.62478">
        <ele>26</ele>
        <time>2024-12-16T21:48:33Z</time>
      </trkpt>
      <trkpt lat="46.80298" lon="-1.62491">
        <ele>26</ele>
        <time>2024-12-16T21:48:35Z</time>
      </trkpt>
      <trkpt lat="46.80299" lon="-1.625">
        <ele>26</ele>
        <time>2024-12-16T21:48:36Z</time>
      </trkpt>
      <trkpt lat="46.80334" lon="-1.62592">
        <ele>27</ele>
        <time>2024-12-16T21:48:48Z</time>
      </trkpt>
      <trkpt lat="46.80356" lon="-1.62665">
        <ele>24</ele>
        <time>2024-12-16T21:48:58Z</time>
      </trkpt>
      <trkpt lat="46.80368" lon="-1.62706">
        <ele>24</ele>
        <time>2024-12-16T21:49:04Z</time>
      </trkpt>
      <trkpt lat="46.80381" lon="-1.62749">
        <ele>23</ele>
        <time>2024-12-16T21:49:09Z</time>
      </trkpt>
      <trkpt lat="46.80387" lon="-1.62766">
        <ele>23</ele>
        <time>2024-12-16T21:49:12Z</time>
      </trkpt>
      <trkpt lat="46.80426" lon="-1.62894">
        <ele>21</ele>
        <time>2024-12-16T21:49:29Z</time>
      </trkpt>
      <trkpt lat="46.80441" lon="-1.62938">
        <ele>20</ele>
        <time>2024-12-16T21:49:35Z</time>
      </trkpt>
      <trkpt lat="46.80458" lon="-1.62988">
        <ele>20</ele>
        <time>2024-12-16T21:49:42Z</time>
      </trkpt>
      <trkpt lat="46.80463" lon="-1.63001">
        <ele>20</ele>
        <time>2024-12-16T21:49:43Z</time>
      </trkpt>
      <trkpt lat="46.80484" lon="-1.63045">
        <ele>20</ele>
        <time>2024-12-16T21:49:50Z</time>
      </trkpt>
      <trkpt lat="46.80501" lon="-1.63077">
        <ele>20</ele>
        <time>2024-12-16T21:49:55Z</time>
      </trkpt>
      <trkpt lat="46.80571" lon="-1.63189">
        <ele>21</ele>
        <time>2024-12-16T21:50:13Z</time>
      </trkpt>
      <trkpt lat="46.80582" lon="-1.63212">
        <ele>21</ele>
        <time>2024-12-16T21:50:17Z</time>
      </trkpt>
      <trkpt lat="46.80595" lon="-1.63243">
        <ele>22</ele>
        <time>2024-12-16T21:50:21Z</time>
      </trkpt>
      <trkpt lat="46.806" lon="-1.63264">
        <ele>22</ele>
        <time>2024-12-16T21:50:24Z</time>
      </trkpt>
      <trkpt lat="46.80605" lon="-1.63266">
        <ele>22</ele>
        <time>2024-12-16T21:50:25Z</time>
      </trkpt>
      <trkpt lat="46.806" lon="-1.63264">
        <ele>22</ele>
        <time>2024-12-16T21:50:26Z</time>
      </trkpt>
      <trkpt lat="46.80615" lon="-1.63498">
        <ele>26</ele>
        <time>2024-12-16T21:50:54Z</time>
      </trkpt>
      <trkpt lat="46.80603" lon="-1.63505">
        <ele>26</ele>
        <time>2024-12-16T21:50:57Z</time>
      </trkpt>
      <trkpt lat="46.8057" lon="-1.63537">
        <ele>26</ele>
        <time>2024-12-16T21:51:04Z</time>
      </trkpt>
      <trkpt lat="46.80475" lon="-1.63664">
        <ele>25</ele>
        <time>2024-12-16T21:51:27Z</time>
      </trkpt>
      <trkpt lat="46.80417" lon="-1.63742">
        <ele>21</ele>
        <time>2024-12-16T21:51:41Z</time>
      </trkpt>
      <trkpt lat="46.80399" lon="-1.63767">
        <ele>20</ele>
        <time>2024-12-16T21:51:45Z</time>
      </trkpt>
      <trkpt lat="46.80384" lon="-1.63791">
        <ele>19</ele>
        <time>2024-12-16T21:51:49Z</time>
      </trkpt>
      <trkpt lat="46.80303" lon="-1.63954">
        <ele>19</ele>
        <time>2024-12-16T21:52:13Z</time>
      </trkpt>
      <trkpt lat="46.80289" lon="-1.63989">
        <ele>20</ele>
        <time>2024-12-16T21:52:18Z</time>
      </trkpt>
      <trkpt lat="46.80242" lon="-1.64151">
        <ele>23</ele>
        <time>2024-12-16T21:52:40Z</time>
      </trkpt>
      <trkpt lat="46.80226" lon="-1.64199">
        <ele>24</ele>
        <time>2024-12-16T21:52:46Z</time>
      </trkpt>
      <trkpt lat="46.80207" lon="-1.64244">
        <ele>25</ele>
        <time>2024-12-16T21:52:53Z</time>
      </trkpt>
      <trkpt lat="46.80097" lon="-1.64485">
        <ele>24</ele>
        <time>2024-12-16T21:53:28Z</time>
      </trkpt>
      <trkpt lat="46.80039" lon="-1.64608">
        <ele>28</ele>
        <time>2024-12-16T21:53:46Z</time>
      </trkpt>
      <trkpt lat="46.79991" lon="-1.6471">
        <ele>28</ele>
        <time>2024-12-16T21:54:01Z</time>
      </trkpt>
      <trkpt lat="46.80023" lon="-1.64772">
        <ele>30</ele>
        <time>2024-12-16T21:54:11Z</time>
      </trkpt>
      <trkpt lat="46.80015" lon="-1.64821">
        <ele>29</ele>
        <time>2024-12-16T21:54:17Z</time>
      </trkpt>
      <trkpt lat="46.79987" lon="-1.64849">
        <ele>27</ele>
        <time>2024-12-16T21:54:23Z</time>
      </trkpt>
      <trkpt lat="46.79949" lon="-1.64862">
        <ele>26</ele>
        <time>2024-12-16T21:54:30Z</time>
      </trkpt>
      <trkpt lat="46.79912" lon="-1.64883">
        <ele>25</ele>
        <time>2024-12-16T21:54:37Z</time>
      </trkpt>
      <trkpt lat="46.79832" lon="-1.65059">
        <ele>20</ele>
        <time>2024-12-16T21:55:03Z</time>
      </trkpt>
      <trkpt lat="46.79823" lon="-1.65088">
        <ele>19</ele>
        <time>2024-12-16T21:55:07Z</time>
      </trkpt>
      <trkpt lat="46.7982" lon="-1.65125">
        <ele>20</ele>
        <time>2024-12-16T21:55:11Z</time>
      </trkpt>
      <trkpt lat="46.7982" lon="-1.65217">
        <ele>22</ele>
        <time>2024-12-16T21:55:22Z</time>
      </trkpt>
      <trkpt lat="46.79816" lon="-1.6527">
        <ele>22</ele>
        <time>2024-12-16T21:55:29Z</time>
      </trkpt>
      <trkpt lat="46.79789" lon="-1.65401">
        <ele>22</ele>
        <time>2024-12-16T21:55:46Z</time>
      </trkpt>
      <trkpt lat="46.79784" lon="-1.65451">
        <ele>22</ele>
        <time>2024-12-16T21:55:52Z</time>
      </trkpt>
      <trkpt lat="46.79757" lon="-1.65694">
        <ele>27</ele>
        <time>2024-12-16T21:56:22Z</time>
      </trkpt>
      <trkpt lat="46.79748" lon="-1.65775">
        <ele>31</ele>
        <time>2024-12-16T21:56:32Z</time>
      </trkpt>
      <trkpt lat="46.79739" lon="-1.6585">
        <ele>33</ele>
        <time>2024-12-16T21:56:41Z</time>
      </trkpt>
      <trkpt lat="46.79739" lon="-1.65877">
        <ele>34</ele>
        <time>2024-12-16T21:56:44Z</time>
      </trkpt>
      <trkpt lat="46.7974" lon="-1.65892">
        <ele>34</ele>
        <time>2024-12-16T21:56:46Z</time>
      </trkpt>
      <trkpt lat="46.79767" lon="-1.65995">
        <ele>36</ele>
        <time>2024-12-16T21:56:59Z</time>
      </trkpt>
      <trkpt lat="46.79772" lon="-1.66016">
        <ele>36</ele>
        <time>2024-12-16T21:57:02Z</time>
      </trkpt>
      <trkpt lat="46.79775" lon="-1.66039">
        <ele>36</ele>
        <time>2024-12-16T21:57:05Z</time>
      </trkpt>
      <trkpt lat="46.79776" lon="-1.66046">
        <ele>37</ele>
        <time>2024-12-16T21:57:06Z</time>
      </trkpt>
      <trkpt lat="46.79777" lon="-1.66074">
        <ele>37</ele>
        <time>2024-12-16T21:57:09Z</time>
      </trkpt>
      <trkpt lat="46.79745" lon="-1.66089">
        <ele>37</ele>
        <time>2024-12-16T21:57:15Z</time>
      </trkpt>
      <trkpt lat="46.79746" lon="-1.66091">
        <ele>37</ele>
        <time>2024-12-16T21:57:16Z</time>
      </trkpt>
      <trkpt lat="46.79743" lon="-1.66094">
        <ele>37</ele>
        <time>2024-12-16T21:57:16Z</time>
      </trkpt>
      <trkpt lat="46.79743" lon="-1.66101">
        <ele>37</ele>
        <time>2024-12-16T21:57:17Z</time>
      </trkpt>
      <trkpt lat="46.79739" lon="-1.66113">
        <ele>38</ele>
        <time>2024-12-16T21:57:19Z</time>
      </trkpt>
      <trkpt lat="46.79745" lon="-1.66115">
        <ele>38</ele>
        <time>2024-12-16T21:57:20Z</time>
      </trkpt>
      <trkpt lat="46.79752" lon="-1.66148">
        <ele>39</ele>
        <time>2024-12-16T21:57:24Z</time>
      </trkpt>
      <trkpt lat="46.79753" lon="-1.66156">
        <ele>39</ele>
        <time>2024-12-16T21:57:25Z</time>
      </trkpt>
      <trkpt lat="46.79755" lon="-1.6617">
        <ele>39</ele>
        <time>2024-12-16T21:57:27Z</time>
      </trkpt>
      <trkpt lat="46.79758" lon="-1.66189">
        <ele>39</ele>
        <time>2024-12-16T21:57:29Z</time>
      </trkpt>
      <trkpt lat="46.79759" lon="-1.66201">
        <ele>39</ele>
        <time>2024-12-16T21:57:31Z</time>
      </trkpt>
      <trkpt lat="46.79761" lon="-1.66204">
        <ele>39</ele>
        <time>2024-12-16T21:57:31Z</time>
      </trkpt>
      <trkpt lat="46.79765" lon="-1.66227">
        <ele>40</ele>
        <time>2024-12-16T21:57:34Z</time>
      </trkpt>
      <trkpt lat="46.79757" lon="-1.66232">
        <ele>40</ele>
        <time>2024-12-16T21:57:36Z</time>
      </trkpt>
      <trkpt lat="46.79758" lon="-1.66237">
        <ele>40</ele>
        <time>2024-12-16T21:57:36Z</time>
      </trkpt>
      <trkpt lat="46.79766" lon="-1.66265">
        <ele>40</ele>
        <time>2024-12-16T21:57:40Z</time>
      </trkpt>
      <trkpt lat="46.79752" lon="-1.66273">
        <ele>41</ele>
        <time>2024-12-16T21:57:43Z</time>
      </trkpt>
      <trkpt lat="46.79753" lon="-1.66277">
        <ele>41</ele>
        <time>2024-12-16T21:57:43Z</time>
      </trkpt>
      <trkpt lat="46.79754" lon="-1.66295">
        <ele>41</ele>
        <time>2024-12-16T21:57:45Z</time>
      </trkpt>
      <trkpt lat="46.79756" lon="-1.66312">
        <ele>41</ele>
        <time>2024-12-16T21:57:47Z</time>
      </trkpt>
      <trkpt lat="46.79752" lon="-1.66373">
        <ele>42</ele>
        <time>2024-12-16T21:57:55Z</time>
      </trkpt>
      <trkpt lat="46.79737" lon="-1.66434">
        <ele>42</ele>
        <time>2024-12-16T21:58:03Z</time>
      </trkpt>
      <trkpt lat="46.79733" lon="-1.66444">
        <ele>42</ele>
        <time>2024-12-16T21:58:04Z</time>
      </trkpt>
      <trkpt lat="46.79719" lon="-1.66465">
        <ele>41</ele>
        <time>2024-12-16T21:58:08Z</time>
      </trkpt>
      <trkpt lat="46.79692" lon="-1.6651">
        <ele>41</ele>
        <time>2024-12-16T21:58:15Z</time>
      </trkpt>
      <trkpt lat="46.79688" lon="-1.66521">
        <ele>41</ele>
        <time>2024-12-16T21:58:17Z</time>
      </trkpt>
      <trkpt lat="46.79678" lon="-1.6658">
        <ele>41</ele>
        <time>2024-12-16T21:58:24Z</time>
      </trkpt>
      <trkpt lat="46.79676" lon="-1.66589">
        <ele>41</ele>
        <time>2024-12-16T21:58:25Z</time>
      </trkpt>
      <trkpt lat="46.79672" lon="-1.66613">
        <ele>42</ele>
        <time>2024-12-16T21:58:28Z</time>
      </trkpt>
      <trkpt lat="46.79657" lon="-1.66699">
        <ele>43</ele>
        <time>2024-12-16T21:58:39Z</time>
      </trkpt>
      <trkpt lat="46.7963" lon="-1.66762">
        <ele>44</ele>
        <time>2024-12-16T21:58:48Z</time>
      </trkpt>
      <trkpt lat="46.7957" lon="-1.66899">
        <ele>48</ele>
        <time>2024-12-16T21:59:08Z</time>
      </trkpt>
      <trkpt lat="46.79551" lon="-1.66955">
        <ele>49</ele>
        <time>2024-12-16T21:59:15Z</time>
      </trkpt>
      <trkpt lat="46.79464" lon="-1.67293">
        <ele>53</ele>
        <time>2024-12-16T21:59:59Z</time>
      </trkpt>
      <trkpt lat="46.79421" lon="-1.67462">
        <ele>52</ele>
        <time>2024-12-16T22:00:21Z</time>
      </trkpt>
      <trkpt lat="46.79413" lon="-1.67531">
        <ele>52</ele>
        <time>2024-12-16T22:00:30Z</time>
      </trkpt>
      <trkpt lat="46.79413" lon="-1.67532">
        <ele>52</ele>
        <time>2024-12-16T22:00:30Z</time>
      </trkpt>
      <trkpt lat="46.79372" lon="-1.68034">
        <ele>46</ele>
        <time>2024-12-16T22:01:32Z</time>
      </trkpt>
      <trkpt lat="46.79365" lon="-1.68105">
        <ele>47</ele>
        <time>2024-12-16T22:01:40Z</time>
      </trkpt>
      <trkpt lat="46.79345" lon="-1.68197">
        <ele>45</ele>
        <time>2024-12-16T22:01:52Z</time>
      </trkpt>
      <trkpt lat="46.79317" lon="-1.68313">
        <ele>44</ele>
        <time>2024-12-16T22:02:07Z</time>
      </trkpt>
      <trkpt lat="46.79285" lon="-1.68431">
        <ele>44</ele>
        <time>2024-12-16T22:02:23Z</time>
      </trkpt>
      <trkpt lat="46.79259" lon="-1.68526">
        <ele>46</ele>
        <time>2024-12-16T22:02:35Z</time>
      </trkpt>
      <trkpt lat="46.79218" lon="-1.68664">
        <ele>44</ele>
        <time>2024-12-16T22:02:53Z</time>
      </trkpt>
      <trkpt lat="46.79196" lon="-1.68748">
        <ele>44</ele>
        <time>2024-12-16T22:03:04Z</time>
      </trkpt>
      <trkpt lat="46.79169" lon="-1.6884">
        <ele>44</ele>
        <time>2024-12-16T22:03:16Z</time>
      </trkpt>
      <trkpt lat="46.79139" lon="-1.68946">
        <ele>45</ele>
        <time>2024-12-16T22:03:30Z</time>
      </trkpt>
      <trkpt lat="46.79126" lon="-1.68994">
        <ele>45</ele>
        <time>2024-12-16T22:03:37Z</time>
      </trkpt>
      <trkpt lat="46.79107" lon="-1.69063">
        <ele>45</ele>
        <time>2024-12-16T22:03:46Z</time>
      </trkpt>
      <trkpt lat="46.79036" lon="-1.69313">
        <ele>45</ele>
        <time>2024-12-16T22:04:19Z</time>
      </trkpt>
      <trkpt lat="46.79008" lon="-1.69416">
        <ele>45</ele>
        <time>2024-12-16T22:04:32Z</time>
      </trkpt>
      <trkpt lat="46.79001" lon="-1.69449">
        <ele>45</ele>
        <time>2024-12-16T22:04:36Z</time>
      </trkpt>
      <trkpt lat="46.78988" lon="-1.69532">
        <ele>46</ele>
        <time>2024-12-16T22:04:47Z</time>
      </trkpt>
      <trkpt lat="46.78953" lon="-1.69837">
        <ele>46</ele>
        <time>2024-12-16T22:05:24Z</time>
      </trkpt>
      <trkpt lat="46.78952" lon="-1.69845">
        <ele>47</ele>
        <time>2024-12-16T22:05:25Z</time>
      </trkpt>
      <trkpt lat="46.78943" lon="-1.69902">
        <ele>48</ele>
        <time>2024-12-16T22:05:33Z</time>
      </trkpt>
      <trkpt lat="46.78915" lon="-1.70016">
        <ele>47</ele>
        <time>2024-12-16T22:05:47Z</time>
      </trkpt>
      <trkpt lat="46.78913" lon="-1.70032">
        <ele>47</ele>
        <time>2024-12-16T22:05:49Z</time>
      </trkpt>
      <trkpt lat="46.78911" lon="-1.70067">
        <ele>48</ele>
        <time>2024-12-16T22:05:54Z</time>
      </trkpt>
      <trkpt lat="46.78912" lon="-1.70099">
        <ele>48</ele>
        <time>2024-12-16T22:05:58Z</time>
      </trkpt>
      <trkpt lat="46.78915" lon="-1.70116">
        <ele>48</ele>
        <time>2024-12-16T22:06:00Z</time>
      </trkpt>
      <trkpt lat="46.78922" lon="-1.70133">
        <ele>48</ele>
        <time>2024-12-16T22:06:02Z</time>
      </trkpt>
      <trkpt lat="46.78934" lon="-1.70149">
        <ele>48</ele>
        <time>2024-12-16T22:06:05Z</time>
      </trkpt>
      <trkpt lat="46.78942" lon="-1.70152">
        <ele>48</ele>
        <time>2024-12-16T22:06:06Z</time>
      </trkpt>
      <trkpt lat="46.78947" lon="-1.70157">
        <ele>48</ele>
        <time>2024-12-16T22:06:08Z</time>
      </trkpt>
      <trkpt lat="46.78952" lon="-1.7017">
        <ele>48</ele>
        <time>2024-12-16T22:06:09Z</time>
      </trkpt>
      <trkpt lat="46.78953" lon="-1.70178">
        <ele>48</ele>
        <time>2024-12-16T22:06:10Z</time>
      </trkpt>
      <trkpt lat="46.78951" lon="-1.70192">
        <ele>48</ele>
        <time>2024-12-16T22:06:12Z</time>
      </trkpt>
      <trkpt lat="46.78943" lon="-1.70203">
        <ele>48</ele>
        <time>2024-12-16T22:06:14Z</time>
      </trkpt>
      <trkpt lat="46.78941" lon="-1.70213">
        <ele>48</ele>
        <time>2024-12-16T22:06:15Z</time>
      </trkpt>
      <trkpt lat="46.7894" lon="-1.70228">
        <ele>48</ele>
        <time>2024-12-16T22:06:17Z</time>
      </trkpt>
      <trkpt lat="46.78939" lon="-1.70245">
        <ele>48</ele>
        <time>2024-12-16T22:06:19Z</time>
      </trkpt>
      <trkpt lat="46.78942" lon="-1.70333">
        <ele>47</ele>
        <time>2024-12-16T22:06:30Z</time>
      </trkpt>
      <trkpt lat="46.78941" lon="-1.70387">
        <ele>47</ele>
        <time>2024-12-16T22:06:37Z</time>
      </trkpt>
      <trkpt lat="46.78939" lon="-1.70461">
        <ele>45</ele>
        <time>2024-12-16T22:06:46Z</time>
      </trkpt>
      <trkpt lat="46.78935" lon="-1.70514">
        <ele>44</ele>
        <time>2024-12-16T22:06:52Z</time>
      </trkpt>
      <trkpt lat="46.7893" lon="-1.70554">
        <ele>43</ele>
        <time>2024-12-16T22:06:57Z</time>
      </trkpt>
      <trkpt lat="46.7893" lon="-1.70557">
        <ele>43</ele>
        <time>2024-12-16T22:06:57Z</time>
      </trkpt>
      <trkpt lat="46.78934" lon="-1.7057">
        <ele>43</ele>
        <time>2024-12-16T22:06:59Z</time>
      </trkpt>
      <trkpt lat="46.78932" lon="-1.70588">
        <ele>42</ele>
        <time>2024-12-16T22:07:01Z</time>
      </trkpt>
      <trkpt lat="46.78931" lon="-1.70592">
        <ele>42</ele>
        <time>2024-12-16T22:07:02Z</time>
      </trkpt>
      <trkpt lat="46.78927" lon="-1.70598">
        <ele>42</ele>
        <time>2024-12-16T22:07:03Z</time>
      </trkpt>
      <trkpt lat="46.78921" lon="-1.70603">
        <ele>42</ele>
        <time>2024-12-16T22:07:04Z</time>
      </trkpt>
      <trkpt lat="46.78915" lon="-1.70605">
        <ele>42</ele>
        <time>2024-12-16T22:07:05Z</time>
      </trkpt>
      <trkpt lat="46.78908" lon="-1.70604">
        <ele>42</ele>
        <time>2024-12-16T22:07:06Z</time>
      </trkpt>
      <trkpt lat="46.78883" lon="-1.70632">
        <ele>43</ele>
        <time>2024-12-16T22:07:12Z</time>
      </trkpt>
      <trkpt lat="46.78886" lon="-1.70623">
        <ele>43</ele>
        <time>2024-12-16T22:07:13Z</time>
      </trkpt>
      <trkpt lat="46.78883" lon="-1.70632">
        <ele>43</ele>
        <time>2024-12-16T22:07:14Z</time>
      </trkpt>
      <trkpt lat="46.78862" lon="-1.70677">
        <ele>43</ele>
        <time>2024-12-16T22:07:21Z</time>
      </trkpt>
      <trkpt lat="46.78838" lon="-1.70759">
        <ele>42</ele>
        <time>2024-12-16T22:07:32Z</time>
      </trkpt>
      <trkpt lat="46.78729" lon="-1.71191">
        <ele>43</ele>
        <time>2024-12-16T22:08:28Z</time>
      </trkpt>
      <trkpt lat="46.78716" lon="-1.71258">
        <ele>44</ele>
        <time>2024-12-16T22:08:37Z</time>
      </trkpt>
      <trkpt lat="46.78693" lon="-1.71413">
        <ele>46</ele>
        <time>2024-12-16T22:08:56Z</time>
      </trkpt>
      <trkpt lat="46.78652" lon="-1.71704">
        <ele>47</ele>
        <time>2024-12-16T22:09:32Z</time>
      </trkpt>
      <trkpt lat="46.78644" lon="-1.71764">
        <ele>47</ele>
        <time>2024-12-16T22:09:40Z</time>
      </trkpt>
      <trkpt lat="46.78632" lon="-1.71847">
        <ele>48</ele>
        <time>2024-12-16T22:09:50Z</time>
      </trkpt>
      <trkpt lat="46.78629" lon="-1.71868">
        <ele>48</ele>
        <time>2024-12-16T22:09:52Z</time>
      </trkpt>
      <trkpt lat="46.78609" lon="-1.72">
        <ele>49</ele>
        <time>2024-12-16T22:10:09Z</time>
      </trkpt>
      <trkpt lat="46.78602" lon="-1.72069">
        <ele>50</ele>
        <time>2024-12-16T22:10:17Z</time>
      </trkpt>
      <trkpt lat="46.7857" lon="-1.72657">
        <ele>49</ele>
        <time>2024-12-16T22:11:29Z</time>
      </trkpt>
      <trkpt lat="46.78565" lon="-1.72726">
        <ele>49</ele>
        <time>2024-12-16T22:11:38Z</time>
      </trkpt>
      <trkpt lat="46.78543" lon="-1.72886">
        <ele>50</ele>
        <time>2024-12-16T22:11:58Z</time>
      </trkpt>
      <trkpt lat="46.78508" lon="-1.73096">
        <ele>51</ele>
        <time>2024-12-16T22:12:24Z</time>
      </trkpt>
      <trkpt lat="46.78489" lon="-1.73217">
        <ele>51</ele>
        <time>2024-12-16T22:12:39Z</time>
      </trkpt>
      <trkpt lat="46.78481" lon="-1.7327">
        <ele>51</ele>
        <time>2024-12-16T22:12:46Z</time>
      </trkpt>
      <trkpt lat="46.78477" lon="-1.73303">
        <ele>51</ele>
        <time>2024-12-16T22:12:50Z</time>
      </trkpt>
      <trkpt lat="46.78475" lon="-1.73668">
        <ele>52</ele>
        <time>2024-12-16T22:13:34Z</time>
      </trkpt>
      <trkpt lat="46.78475" lon="-1.73821">
        <ele>52</ele>
        <time>2024-12-16T22:13:53Z</time>
      </trkpt>
      <trkpt lat="46.78529" lon="-1.7434">
        <ele>53</ele>
        <time>2024-12-16T22:14:57Z</time>
      </trkpt>
      <trkpt lat="46.78533" lon="-1.74372">
        <ele>53</ele>
        <time>2024-12-16T22:15:01Z</time>
      </trkpt>
      <trkpt lat="46.78572" lon="-1.74756">
        <ele>51</ele>
        <time>2024-12-16T22:15:48Z</time>
      </trkpt>
      <trkpt lat="46.78575" lon="-1.7479">
        <ele>51</ele>
        <time>2024-12-16T22:15:52Z</time>
      </trkpt>
      <trkpt lat="46.78578" lon="-1.7483">
        <ele>50</ele>
        <time>2024-12-16T22:15:57Z</time>
      </trkpt>
      <trkpt lat="46.78575" lon="-1.74874">
        <ele>50</ele>
        <time>2024-12-16T22:16:03Z</time>
      </trkpt>
      <trkpt lat="46.78532" lon="-1.75093">
        <ele>49</ele>
        <time>2024-12-16T22:16:30Z</time>
      </trkpt>
      <trkpt lat="46.78529" lon="-1.75108">
        <ele>49</ele>
        <time>2024-12-16T22:16:32Z</time>
      </trkpt>
      <trkpt lat="46.78468" lon="-1.7541">
        <ele>48</ele>
        <time>2024-12-16T22:17:11Z</time>
      </trkpt>
      <trkpt lat="46.78439" lon="-1.75544">
        <ele>47</ele>
        <time>2024-12-16T22:17:28Z</time>
      </trkpt>
      <trkpt lat="46.78421" lon="-1.75596">
        <ele>46</ele>
        <time>2024-12-16T22:17:35Z</time>
      </trkpt>
      <trkpt lat="46.78361" lon="-1.75725">
        <ele>46</ele>
        <time>2024-12-16T22:17:54Z</time>
      </trkpt>
      <trkpt lat="46.78303" lon="-1.75849">
        <ele>46</ele>
        <time>2024-12-16T22:18:12Z</time>
      </trkpt>
      <trkpt lat="46.78214" lon="-1.76038">
        <ele>46</ele>
        <time>2024-12-16T22:18:40Z</time>
      </trkpt>
      <trkpt lat="46.78149" lon="-1.76169">
        <ele>47</ele>
        <time>2024-12-16T22:19:00Z</time>
      </trkpt>
      <trkpt lat="46.78117" lon="-1.76218">
        <ele>47</ele>
        <time>2024-12-16T22:19:08Z</time>
      </trkpt>
      <trkpt lat="46.7809" lon="-1.76249">
        <ele>47</ele>
        <time>2024-12-16T22:19:14Z</time>
      </trkpt>
      <trkpt lat="46.78077" lon="-1.76267">
        <ele>47</ele>
        <time>2024-12-16T22:19:17Z</time>
      </trkpt>
      <trkpt lat="46.77962" lon="-1.76413">
        <ele>50</ele>
        <time>2024-12-16T22:19:44Z</time>
      </trkpt>
      <trkpt lat="46.77859" lon="-1.76538">
        <ele>52</ele>
        <time>2024-12-16T22:20:08Z</time>
      </trkpt>
      <trkpt lat="46.77727" lon="-1.76705">
        <ele>52</ele>
        <time>2024-12-16T22:20:39Z</time>
      </trkpt>
      <trkpt lat="46.77712" lon="-1.76725">
        <ele>52</ele>
        <time>2024-12-16T22:20:43Z</time>
      </trkpt>
      <trkpt lat="46.77711" lon="-1.76732">
        <ele>52</ele>
        <time>2024-12-16T22:20:44Z</time>
      </trkpt>
      <trkpt lat="46.77659" lon="-1.76721">
        <ele>53</ele>
        <time>2024-12-16T22:20:53Z</time>
      </trkpt>
      <trkpt lat="46.77656" lon="-1.7672">
        <ele>53</ele>
        <time>2024-12-16T22:20:54Z</time>
      </trkpt>
      <trkpt lat="46.77659" lon="-1.76721">
        <ele>53</ele>
        <time>2024-12-16T22:20:54Z</time>
      </trkpt>
      <trkpt lat="46.77641" lon="-1.76757">
        <ele>53</ele>
        <time>2024-12-16T22:21:00Z</time>
      </trkpt>
      <trkpt lat="46.77468" lon="-1.77079">
        <ele>52</ele>
        <time>2024-12-16T22:21:50Z</time>
      </trkpt>
      <trkpt lat="46.77385" lon="-1.77232">
        <ele>51</ele>
        <time>2024-12-16T22:22:13Z</time>
      </trkpt>
      <trkpt lat="46.77259" lon="-1.77467">
        <ele>51</ele>
        <time>2024-12-16T22:22:50Z</time>
      </trkpt>
      <trkpt lat="46.77246" lon="-1.77495">
        <ele>51</ele>
        <time>2024-12-16T22:22:54Z</time>
      </trkpt>
      <trkpt lat="46.77234" lon="-1.77534">
        <ele>52</ele>
        <time>2024-12-16T22:22:59Z</time>
      </trkpt>
      <trkpt lat="46.77229" lon="-1.7757">
        <ele>52</ele>
        <time>2024-12-16T22:23:04Z</time>
      </trkpt>
      <trkpt lat="46.77217" lon="-1.77672">
        <ele>50</ele>
        <time>2024-12-16T22:23:16Z</time>
      </trkpt>
      <trkpt lat="46.77217" lon="-1.77676">
        <ele>50</ele>
        <time>2024-12-16T22:23:17Z</time>
      </trkpt>
      <trkpt lat="46.77208" lon="-1.7767">
        <ele>51</ele>
        <time>2024-12-16T22:23:18Z</time>
      </trkpt>
      <trkpt lat="46.77205" lon="-1.77664">
        <ele>51</ele>
        <time>2024-12-16T22:23:19Z</time>
      </trkpt>
      <trkpt lat="46.77172" lon="-1.77581">
        <ele>52</ele>
        <time>2024-12-16T22:23:31Z</time>
      </trkpt>
      <trkpt lat="46.77171" lon="-1.7758">
        <ele>52</ele>
        <time>2024-12-16T22:23:31Z</time>
      </trkpt>
      <trkpt lat="46.77172" lon="-1.77581">
        <ele>52</ele>
        <time>2024-12-16T22:23:31Z</time>
      </trkpt>
      <trkpt lat="46.77094" lon="-1.77662">
        <ele>52</ele>
        <time>2024-12-16T22:23:48Z</time>
      </trkpt>
      <trkpt lat="46.77022" lon="-1.77727">
        <ele>53</ele>
        <time>2024-12-16T22:24:04Z</time>
      </trkpt>
      <trkpt lat="46.76911" lon="-1.77805">
        <ele>51</ele>
        <time>2024-12-16T22:24:25Z</time>
      </trkpt>
      <trkpt lat="46.76901" lon="-1.77808">
        <ele>51</ele>
        <time>2024-12-16T22:24:27Z</time>
      </trkpt>
      <trkpt lat="46.76892" lon="-1.7781">
        <ele>51</ele>
        <time>2024-12-16T22:24:29Z</time>
      </trkpt>
      <trkpt lat="46.76857" lon="-1.77839">
        <ele>52</ele>
        <time>2024-12-16T22:24:36Z</time>
      </trkpt>
      <trkpt lat="46.76785" lon="-1.7793">
        <ele>50</ele>
        <time>2024-12-16T22:24:53Z</time>
      </trkpt>
      <trkpt lat="46.7673" lon="-1.78014">
        <ele>49</ele>
        <time>2024-12-16T22:25:07Z</time>
      </trkpt>
      <trkpt lat="46.76697" lon="-1.78046">
        <ele>50</ele>
        <time>2024-12-16T22:25:14Z</time>
      </trkpt>
      <trkpt lat="46.76659" lon="-1.78076">
        <ele>50</ele>
        <time>2024-12-16T22:25:22Z</time>
      </trkpt>
      <trkpt lat="46.76497" lon="-1.78159">
        <ele>50</ele>
        <time>2024-12-16T22:25:52Z</time>
      </trkpt>
      <trkpt lat="46.76429" lon="-1.78191">
        <ele>50</ele>
        <time>2024-12-16T22:26:05Z</time>
      </trkpt>
      <trkpt lat="46.76343" lon="-1.78224">
        <ele>49</ele>
        <time>2024-12-16T22:26:21Z</time>
      </trkpt>
      <trkpt lat="46.76319" lon="-1.78224">
        <ele>49</ele>
        <time>2024-12-16T22:26:25Z</time>
      </trkpt>
      <trkpt lat="46.76305" lon="-1.78219">
        <ele>49</ele>
        <time>2024-12-16T22:26:28Z</time>
      </trkpt>
      <trkpt lat="46.76278" lon="-1.78208">
        <ele>48</ele>
        <time>2024-12-16T22:26:33Z</time>
      </trkpt>
      <trkpt lat="46.76256" lon="-1.78208">
        <ele>48</ele>
        <time>2024-12-16T22:26:37Z</time>
      </trkpt>
      <trkpt lat="46.76174" lon="-1.78244">
        <ele>46</ele>
        <time>2024-12-16T22:26:52Z</time>
      </trkpt>
      <trkpt lat="46.76098" lon="-1.78274">
        <ele>45</ele>
        <time>2024-12-16T22:27:06Z</time>
      </trkpt>
      <trkpt lat="46.75988" lon="-1.7835">
        <ele>44</ele>
        <time>2024-12-16T22:27:28Z</time>
      </trkpt>
      <trkpt lat="46.75947" lon="-1.78374">
        <ele>43</ele>
        <time>2024-12-16T22:27:35Z</time>
      </trkpt>
      <trkpt lat="46.75927" lon="-1.78386">
        <ele>43</ele>
        <time>2024-12-16T22:27:39Z</time>
      </trkpt>
      <trkpt lat="46.75896" lon="-1.78398">
        <ele>42</ele>
        <time>2024-12-16T22:27:45Z</time>
      </trkpt>
      <trkpt lat="46.75881" lon="-1.78409">
        <ele>41</ele>
        <time>2024-12-16T22:27:48Z</time>
      </trkpt>
      <trkpt lat="46.75873" lon="-1.78421">
        <ele>40</ele>
        <time>2024-12-16T22:27:50Z</time>
      </trkpt>
      <trkpt lat="46.75877" lon="-1.78464">
        <ele>40</ele>
        <time>2024-12-16T22:27:55Z</time>
      </trkpt>
      <trkpt lat="46.75878" lon="-1.78505">
        <ele>40</ele>
        <time>2024-12-16T22:28:00Z</time>
      </trkpt>
      <trkpt lat="46.75878" lon="-1.78557">
        <ele>39</ele>
        <time>2024-12-16T22:28:07Z</time>
      </trkpt>
      <trkpt lat="46.75868" lon="-1.78605">
        <ele>39</ele>
        <time>2024-12-16T22:28:13Z</time>
      </trkpt>
      <trkpt lat="46.75853" lon="-1.7864">
        <ele>38</ele>
        <time>2024-12-16T22:28:18Z</time>
      </trkpt>
      <trkpt lat="46.75833" lon="-1.78658">
        <ele>38</ele>
        <time>2024-12-16T22:28:22Z</time>
      </trkpt>
    </trkseg>
  </trk>
</gpx>